[[{"header":{"parameterUnit":"m.s-1","parameterCategory":1,"la1":30.6,"la2":28.766,"lo1":-90.7593,"lo2":-88.6598,"dy":0.0162,"dx":0.0183,"nx":116,"ny":114,"refTime":"2023-11-18T06:00:00:Z","depth":0,"parameterNumber":2,"parameterNumberName":"U-component_of_WINDS"},"data":[0.0,0.0,0.0,0.0,0.0,0.0,0.0,0.0,0.0,0.0,0.0,0.0,0.0,0.0,0.0,0.0,0.0,0.0,0.0,0.0,0.0,0.0,0.0,0.0,0.0,0.0,0.0,0.0,0.0,0.0,0.0,0.0,0.0,0.0,0.0,0.0,0.0,0.0,0.0,0.0,0.0,0.0,0.0,0.0,0.0,0.0,0.0,0.0,0.0,0.0,0.0,0.0,0.0,0.0,0.0,0.0,0.0,0.0,0.0,0.0,0.0,0.0,0.0,0.0,0.0,0.0,0.0,0.0,0.0,0.0,0.0,0.0,0.0,0.0,0.0,0.0,0.0,0.0,0.0,0.0,0.0,0.0,0.0,0.0,0.0,0.0,0.0,0.0,0.0,0.0,0.0,0.0,0.0,0.0,0.0,0.0,0.0,0.0,0.0,0.0,0.0,0.0,0.0,0.0,0.0,0.0,0.0,0.0,0.0,0.0,0.0,0.0,0.0,0.0,0.0,0.0,0.0,0.0,0.0,0.0,0.0,0.0,0.0,0.0,0.0,0.0,0.0,0.0,0.0,0.0,0.0,0.0,0.0,0.0,0.0,0.0,0.0,0.0,0.0,0.0,0.0,0.0,0.0,0.0,0.0,0.0,0.0,0.0,0.0,0.0,0.0,0.0,0.0,0.0,0.0,0.0,0.0,0.0,0.0,0.0,0.0,0.0,0.0,0.0,0.0,0.0,0.0,0.0,0.0,0.0,0.0,0.0,0.0,0.0,0.0,0.0,0.0,0.0,0.0,0.0,0.0,0.0,0.0,0.0,0.0,0.0,0.0,0.0,0.0,0.0,0.0,0.0,0.0,0.0,0.0,0.0,0.0,0.0,0.0,0.0,0.0,0.0,0.0,0.0,0.0,0.0,0.0,0.0,0.0,0.0,0.0,0.0,0.0,0.0,0.0,0.0,0.0,0.0,0.0,0.0,0.0,0.0,0.0,0.0,0.0,0.0,0.0,0.0,0.0,0.0,0.0,0.0,0.0,0.0,0.0,0.0,0.0,0.0,0.0,0.0,0.0,0.0,0.0,0.0,0.0,0.0,0.0,0.0,0.0,0.0,0.0,0.0,0.0,0.0,0.0,0.0,0.0,0.0,0.0,0.0,0.0,0.0,0.0,0.0,0.0,0.0,0.0,0.0,0.0,0.0,0.0,0.0,0.0,0.0,0.0,0.0,0.0,0.0,0.0,0.0,0.0,0.0,0.0,0.0,0.0,0.0,0.0,0.0,0.0,0.0,0.0,0.0,0.0,0.0,0.0,0.0,0.0,0.0,0.0,0.0,0.0,0.0,0.0,0.0,0.0,0.0,0.0,0.0,0.0,0.0,0.0,0.0,0.0,0.0,0.0,0.0,0.0,0.0,0.0,0.0,0.0,0.0,0.0,0.0,0.0,0.0,0.0,0.0,0.0,0.0,0.0,0.0,0.0,0.0,0.0,0.0,0.0,0.0,0.0,0.0,0.0,0.0,0.0,0.0,0.0,0.0,0.0,0.0,0.0,0.0,0.0,0.0,0.0,0.0,0.0,0.0,0.0,0.0,0.0,0.0,0.0,0.0,0.0,0.0,0.0,0.0,0.0,0.0,0.0,0.0,0.0,0.0,0.0,0.0,0.0,0.0,0.0,0.0,0.0,0.0,0.0,0.0,0.0,0.0,0.0,0.0,0.0,0.0,0.0,0.0,0.0,0.0,0.0,0.0,0.0,0.0,0.0,0.0,0.0,0.0,0.0,0.0,0.0,0.0,0.0,0.0,0.0,0.0,0.0,0.0,0.0,0.0,0.0,0.0,0.0,0.0,0.0,0.0,0.0,0.0,0.0,0.0,0.0,0.0,0.0,0.0,0.0,0.0,0.0,0.0,0.0,0.0,0.0,0.0,0.0,0.0,0.0,0.0,0.0,0.0,0.0,0.0,0.0,0.0,0.0,0.0,0.0,0.0,0.0,0.0,0.0,0.0,0.0,0.0,0.0,0.0,0.0,0.0,0.0,0.0,0.0,0.0,0.0,0.0,0.0,0.0,0.0,0.0,0.0,0.0,0.0,0.0,0.0,0.0,0.0,0.0,0.0,0.0,0.0,0.0,0.0,0.0,0.0,0.0,0.0,0.0,0.0,0.0,0.0,0.0,0.0,0.0,0.0,0.0,0.0,0.0,0.0,0.0,0.0,0.0,0.0,0.0,0.0,0.0,0.0,0.0,0.0,0.0,0.0,0.0,0.0,0.0,0.0,0.0,0.0,0.0,0.0,0.0,0.0,0.0,0.0,0.0,0.0,0.0,0.0,0.0,0.0,0.0,0.0,0.0,0.0,0.0,0.0,0.0,0.0,0.0,0.0,0.0,0.0,0.0,0.0,0.0,0.0,0.0,0.0,0.0,0.0,0.0,0.0,0.0,0.0,0.0,0.0,0.0,0.0,0.0,0.0,0.0,0.0,0.0,0.0,0.0,0.0,0.0,0.0,0.0,0.0,0.0,0.0,0.0,0.0,0.0,0.0,0.0,0.0,0.0,0.0,0.0,0.0,0.0,0.0,0.0,0.0,0.0,0.0,0.0,0.0,0.0,0.0,0.0,0.0,0.0,0.0,0.0,0.0,0.0,0.0,0.0,0.0,0.0,0.0,0.0,0.0,0.0,0.0,0.0,0.0,0.0,0.0,0.0,0.0,0.0,0.0,0.0,0.0,0.0,0.0,0.0,0.0,0.0,0.0,0.0,0.0,0.0,0.0,0.0,0.0,0.0,0.0,0.0,0.0,0.0,0.0,0.0,0.0,0.0,0.0,0.0,0.0,0.0,0.0,0.0,0.0,0.0,0.0,0.0,0.0,0.0,0.0,0.0,0.0,0.0,0.0,0.0,0.0,0.0,0.0,0.0,0.0,0.0,0.0,0.0,0.0,0.0,0.0,0.0,0.0,0.0,0.0,0.0,0.0,0.0,0.0,0.0,0.0,0.0,0.0,0.0,0.0,0.0,0.0,0.0,0.0,0.0,0.0,0.0,0.0,0.0,0.0,0.0,0.0,0.0,0.0,0.0,0.0,0.0,0.0,0.0,0.0,0.0,0.0,0.0,0.0,0.0,0.0,0.0,0.0,0.0,0.0,0.0,0.0,0.0,0.0,0.0,0.0,0.0,0.0,0.0,0.0,0.0,0.0,0.0,0.0,0.0,0.0,0.0,0.0,0.0,0.0,0.0,0.0,0.0,0.0,0.0,0.0,0.0,0.0,0.0,0.0,0.0,0.0,0.0,0.0,0.0,0.0,0.0,0.0,0.0,0.0,0.0,0.0,0.0,0.0,0.0,0.0,0.0,0.0,0.0,0.0,0.0,0.0,0.0,0.0,0.0,0.0,0.0,0.0,0.0,0.0,0.0,0.0,0.0,0.0,0.0,0.0,0.0,0.0,0.0,0.0,0.0,0.0,0.0,0.0,0.0,0.0,0.0,0.0,0.0,0.0,0.0,0.0,0.0,0.0,0.0,0.0,0.0,0.0,0.0,0.0,0.0,0.0,0.0,0.0,0.0,0.0,0.0,0.0,0.0,0.0,0.0,0.0,0.0,0.0,0.0,0.0,0.0,0.0,0.0,0.0,0.0,0.0,0.0,0.0,0.0,0.0,0.0,0.0,0.0,0.0,0.0,0.0,0.0,0.0,0.0,0.0,0.0,0.0,0.0,0.0,0.0,0.0,0.0,0.0,0.0,0.0,0.0,0.0,0.0,0.0,0.0,0.0,0.0,0.0,0.0,0.0,0.0,0.0,0.0,0.0,0.0,0.0,0.0,0.0,0.0,0.0,0.0,0.0,0.0,0.0,0.0,0.0,0.0,0.0,0.0,0.0,0.0,0.0,0.0,0.0,0.0,0.0,0.0,0.0,0.0,0.0,0.0,0.0,0.0,0.0,0.0,0.0,0.0,0.0,0.0,0.0,0.0,0.0,0.0,0.0,0.0,0.0,0.0,0.0,0.0,0.0,0.0,0.0,0.0,0.0,0.0,0.0,0.0,0.0,0.0,0.0,0.0,0.0,0.0,0.0,0.0,0.0,0.0,0.0,0.0,0.0,0.0,0.0,0.0,0.0,0.0,0.0,0.0,0.0,0.0,0.0,0.0,0.0,0.0,0.0,0.0,0.0,0.0,0.0,0.0,0.0,0.0,0.0,0.0,0.0,0.0,0.0,0.0,0.0,0.0,0.0,0.0,0.0,0.0,0.0,0.0,0.0,0.0,0.0,0.0,0.0,0.0,0.0,0.0,0.0,0.0,0.0,0.0,0.0,0.0,0.0,0.0,0.0,0.0,0.0,0.0,0.0,0.0,0.0,0.0,0.0,0.0,0.0,0.0,0.0,0.0,0.0,0.0,0.0,0.0,0.0,0.0,0.0,0.0,0.0,0.0,0.0,0.0,0.0,0.0,0.0,0.0,0.0,0.0,0.0,0.0,0.0,0.0,0.0,0.0,0.0,0.0,0.0,0.0,0.0,0.0,0.0,0.0,0.0,0.0,0.0,0.0,0.0,0.0,0.0,0.0,0.0,0.0,0.0,0.0,0.0,0.0,0.0,0.0,0.0,0.0,0.0,0.0,0.0,0.0,0.0,0.0,0.0,0.0,0.0,0.0,0.0,0.0,0.0,0.0,0.0,0.0,0.0,0.0,0.0,0.0,0.0,0.0,0.0,0.0,0.0,0.0,0.0,0.0,0.0,0.0,0.0,0.0,0.0,0.0,0.0,0.0,0.0,0.0,0.0,0.0,0.0,0.0,0.0,0.0,0.0,0.0,0.0,0.0,0.0,0.0,0.0,0.0,0.0,0.0,0.0,0.0,0.0,0.0,0.0,0.0,0.0,0.0,0.0,0.0,0.0,0.0,0.0,0.0,0.0,0.0,0.0,0.0,0.0,0.0,0.0,0.0,0.0,0.0,0.0,0.0,0.0,0.0,0.0,0.0,0.0,0.0,0.0,0.0,0.0,0.0,0.0,0.0,0.0,0.0,0.0,0.0,0.0,0.0,0.0,0.0,0.0,0.0,0.0,0.0,0.0,0.0,0.0,0.0,0.0,0.0,0.0,0.0,0.0,0.0,0.0,0.0,0.0,0.0,0.0,0.0,0.0,0.0,0.0,0.0,0.0,0.0,0.0,0.0,0.0,0.0,0.0,0.0,0.0,0.0,0.0,0.0,0.0,0.0,0.0,0.0,0.0,0.0,0.0,0.0,0.0,0.0,0.0,0.0,0.0,0.0,0.0,0.0,0.0,0.0,0.0,0.0,0.0,0.0,0.0,0.0,0.0,0.0,0.0,0.0,0.0,0.0,0.0,0.0,0.0,0.0,0.0,0.0,0.0,0.0,0.0,0.0,0.0,0.0,0.0,0.0,0.0,0.0,0.0,0.0,0.0,0.0,0.0,0.0,0.0,0.0,0.0,0.0,0.0,0.0,0.0,0.0,0.0,0.0,0.0,0.0,0.0,0.0,0.0,0.0,0.0,0.0,0.0,0.0,0.0,0.0,0.0,0.0,0.0,0.0,0.0,0.0,0.0,0.0,0.0,0.0,0.0,0.0,0.0,0.0,0.0,0.0,0.0,0.0,0.0,0.0,0.0,0.0,0.0,0.0,0.0,0.0,0.0,0.0,0.0,0.0,0.0,0.0,0.0,0.0,0.0,0.0,0.0,0.0,0.0,0.0,0.0,0.0,0.0,0.0,0.0,0.0,0.0,0.0,0.0,0.0,0.0,0.0,0.0,0.0,0.0,0.0,0.0,0.0,0.0,0.0,0.0,0.0,0.0,0.0,0.0,0.0,0.0,0.0,0.0,0.0,0.0,0.0,0.0,0.0,0.0,0.0,0.0,0.0,0.0,0.0,0.0,0.0,0.0,0.0,0.0,0.0,0.0,0.0,0.0,0.0,0.0,0.0,0.0,0.0,0.0,0.0,0.0,0.0,0.0,0.0,0.0,0.0,0.0,0.0,0.0,0.0,0.0,0.0,0.0,0.0,0.0,0.0,0.0,0.0,0.0,0.0,0.0,0.0,0.0,0.0,0.0,0.0,0.0,0.0,0.0,0.0,0.0,0.0,0.0,0.0,5.874,0.0,0.0,0.0,0.0,0.0,0.0,0.0,0.0,0.0,0.0,0.0,0.0,0.0,0.0,0.0,0.0,0.0,0.0,0.0,0.0,0.0,0.0,0.0,0.0,0.0,0.0,0.0,0.0,0.0,0.0,0.0,0.0,0.0,0.0,0.0,0.0,0.0,0.0,0.0,0.0,0.0,0.0,0.0,0.0,0.0,0.0,0.0,0.0,0.0,0.0,0.0,0.0,0.0,0.0,0.0,0.0,0.0,0.0,0.0,0.0,0.0,0.0,0.0,0.0,0.0,0.0,0.0,0.0,0.0,0.0,0.0,0.0,0.0,0.0,0.0,0.0,0.0,0.0,0.0,0.0,0.0,0.0,0.0,0.0,0.0,0.0,0.0,0.0,0.0,0.0,0.0,0.0,0.0,0.0,0.0,0.0,0.0,0.0,0.0,0.0,0.0,0.0,0.0,0.0,0.0,0.0,0.0,0.0,0.0,0.0,0.0,0.0,0.0,0.0,0.0,0.0,6.0127,0.0,0.0,0.0,0.0,0.0,0.0,0.0,0.0,0.0,0.0,0.0,0.0,0.0,0.0,0.0,0.0,0.0,0.0,0.0,0.0,0.0,0.0,0.0,5.3225,5.3225,5.3225,5.3225,5.3188,0.0,0.0,0.0,0.0,0.0,0.0,5.4903,5.5233,5.5403,0.0,0.0,0.0,0.0,0.0,0.0,0.0,0.0,0.0,0.0,0.0,0.0,0.0,0.0,0.0,0.0,0.0,0.0,0.0,0.0,0.0,0.0,0.0,0.0,0.0,0.0,0.0,0.0,0.0,0.0,0.0,0.0,0.0,0.0,0.0,0.0,0.0,0.0,0.0,0.0,0.0,0.0,0.0,0.0,0.0,0.0,0.0,0.0,0.0,0.0,0.0,0.0,0.0,0.0,0.0,0.0,0.0,0.0,0.0,0.0,0.0,0.0,0.0,0.0,0.0,0.0,0.0,0.0,0.0,0.0,0.0,6.0571,6.0942,6.1658,6.1658,6.2042,6.2579,6.1198,6.1186,6.2196,6.1989,0.0,0.0,0.0,0.0,0.0,0.0,0.0,0.0,0.0,0.0,0.0,0.0,0.0,0.0,0.0,0.0,0.0,0.0,0.0,0.0,0.0,5.3225,5.3225,5.3225,5.3225,5.3318,5.3604,0.0,0.0,5.4654,5.4716,5.4933,5.5286,5.5377,5.5403,5.5403,0.0,0.0,5.5427,5.6154,5.6562,5.6573,5.5806,0.0,0.0,0.0,0.0,0.0,0.0,0.0,0.0,0.0,0.0,0.0,0.0,0.0,0.0,0.0,0.0,0.0,0.0,0.0,0.0,0.0,0.0,0.0,0.0,0.0,0.0,0.0,0.0,0.0,0.0,0.0,0.0,0.0,0.0,0.0,0.0,0.0,0.0,0.0,0.0,0.0,0.0,0.0,5.528,5.528,0.0,0.0,0.0,0.0,0.0,0.0,0.0,0.0,0.0,0.0,0.0,0.0,0.0,5.9777,5.9809,6.0159,6.0342,6.0398,6.0398,6.0502,6.0698,6.0698,6.0763,6.093,6.07,0.0,6.295,6.2842,0.0,0.0,0.0,0.0,0.0,0.0,0.0,0.0,0.0,0.0,0.0,0.0,0.0,0.0,0.0,0.0,0.0,0.0,0.0,0.0,0.0,5.3225,5.3272,5.3444,5.3484,5.3641,5.4016,5.4052,5.4296,5.4776,5.4806,5.499,5.5403,5.5403,5.5403,5.5403,5.5861,5.6078,5.6154,5.7035,5.7213,5.6789,5.6405,5.6496,5.6931,5.7289,0.0,0.0,0.0,0.0,0.0,0.0,0.0,0.0,0.0,0.0,0.0,0.0,0.0,0.0,0.0,0.0,0.0,0.0,0.0,0.0,0.0,0.0,0.0,0.0,0.0,0.0,0.0,0.0,0.0,0.0,0.0,0.0,0.0,0.0,0.0,0.0,0.0,0.0,0.0,5.5354,5.5574,5.5574,5.5978,5.6271,0.0,0.0,0.0,0.0,0.0,0.0,0.0,0.0,0.0,5.9537,5.9937,6.0129,6.0129,6.0342,6.0464,6.0464,6.0533,6.0853,6.1339,6.1365,6.1684,6.2106,6.2106,6.2529,6.3143,6.2525,6.2462,6.2727,0.0,0.0,0.0,0.0,6.2184,6.1731,0.0,0.0,0.0,0.0,0.0,0.0,0.0,0.0,0.0,0.0,0.0,0.0,5.3225,5.3272,5.344,5.3682,5.3795,5.398,5.4262,5.4296,5.4463,5.4776,5.4806,5.499,5.5403,5.5594,5.5708,5.5708,5.632,5.6639,5.669,5.7341,5.7366,5.6827,5.7019,5.7224,5.7366,5.757,5.7277,0.0,0.0,0.0,0.0,0.0,0.0,0.0,0.0,0.0,0.0,0.0,0.0,0.0,0.0,0.0,0.0,0.0,0.0,0.0,0.0,0.0,0.0,0.0,0.0,0.0,0.0,0.0,0.0,0.0,0.0,0.0,0.0,0.0,0.0,0.0,0.0,0.0,0.0,5.6088,5.6198,5.6198,5.6748,5.7161,0.0,0.0,0.0,0.0,0.0,0.0,5.9361,5.9706,5.9937,5.9937,6.0256,6.0408,6.0408,6.0464,6.0453,6.0491,6.0559,6.0981,6.1633,6.1645,6.2016,6.2592,6.2567,6.2567,6.2529,6.2233,6.2487,6.3034,6.2949,6.2704,6.2444,6.2444,6.2091,6.1653,0.0,0.0,0.0,0.0,0.0,0.0,0.0,0.0,0.0,0.0,0.0,5.3225,5.3225,5.3484,5.3682,5.372,5.4052,5.4262,5.4296,5.4296,5.4463,5.4776,5.4806,5.499,5.5403,5.6129,5.6549,5.6549,5.6587,5.6639,5.669,5.6728,5.6778,5.6827,5.7695,5.7134,5.5677,5.6447,5.6728,5.6767,0.0,0.0,0.0,0.0,0.0,0.0,0.0,0.0,0.0,0.0,0.0,0.0,0.0,0.0,0.0,0.0,0.0,0.0,0.0,0.0,0.0,0.0,0.0,0.0,0.0,0.0,0.0,0.0,0.0,0.0,0.0,0.0,0.0,0.0,0.0,0.0,0.0,0.0,0.0,5.7886,5.7923,0.0,0.0,0.0,0.0,5.914,5.9537,5.9777,5.9777,6.0159,6.0342,6.0342,6.0408,6.0408,6.0408,6.037,6.0436,6.0436,6.0436,6.0464,6.0556,6.0502,6.054,6.0659,6.0578,6.0551,6.0693,6.2413,6.3092,6.3088,6.3034,6.2949,6.2862,6.2862,6.2328,6.1573,0.0,0.0,0.0,0.0,0.0,0.0,0.0,0.0,5.3225,5.3225,5.3225,5.3272,5.3484,5.3604,5.3795,5.4052,5.4228,5.4296,5.4296,5.4495,5.4685,5.4806,5.5057,5.5489,5.6167,5.6434,5.6587,5.6587,5.716,5.7187,5.6639,5.7213,5.7175,5.6665,5.7009,5.678,5.6282,5.7149,5.7506,5.7493,5.7772,5.7886,0.0,0.0,0.0,0.0,0.0,0.0,0.0,0.0,0.0,0.0,0.0,0.0,0.0,0.0,0.0,0.0,0.0,0.0,0.0,0.0,0.0,0.0,0.0,0.0,0.0,0.0,0.0,0.0,0.0,0.0,0.0,0.0,0.0,0.0,0.0,0.0,0.0,5.8369,5.8369,0.0,5.8949,5.9214,5.9432,5.9571,5.9937,6.0188,6.0188,6.0313,6.0408,6.0408,6.0408,6.0637,6.1172,6.1172,6.144,6.2013,6.207,6.2098,6.2126,6.2153,6.2142,6.2142,6.218,6.1808,6.1414,6.2617,6.2437,6.1371,6.1343,6.1315,6.1287,6.1287,6.1402,6.1593,0.0,0.0,0.0,0.0,0.0,0.0,0.0,0.0,5.3225,5.3225,5.3225,5.3355,5.3643,5.372,5.387,5.4262,5.4397,5.443,5.4296,5.4623,5.4806,5.4806,5.5434,5.5938,5.6205,5.674,5.6893,5.6587,5.716,5.716,5.6587,5.6893,5.6893,5.6587,5.6587,5.674,5.7084,5.771,5.7939,5.7886,5.7886,5.7886,5.7963,0.0,0.0,0.0,0.0,0.0,0.0,0.0,0.0,0.0,0.0,0.0,0.0,0.0,0.0,0.0,0.0,0.0,0.0,0.0,0.0,0.0,0.0,0.0,0.0,0.0,0.0,0.0,0.0,0.0,0.0,0.0,0.0,0.0,0.0,0.0,5.8142,5.8545,5.8586,5.8831,5.9361,5.9639,5.9874,5.9969,6.0256,6.0408,6.0408,6.0637,6.079,6.079,6.1096,6.1516,6.2051,6.2051,6.2319,6.2892,6.2949,6.2978,6.2978,6.3006,6.3034,6.3034,6.3034,6.2689,6.223,6.2804,6.2327,6.1249,6.1277,6.1277,6.1249,6.1249,6.1593,6.2051,0.0,0.0,0.0,0.0,0.0,0.0,0.0,5.3225,5.3225,5.3225,5.3225,5.3318,5.3643,5.372,5.387,5.4228,5.4591,5.4654,5.4296,5.4623,5.4806,5.4806,5.5957,5.6205,5.5441,5.7046,5.7466,5.6587,5.6587,5.6587,5.6549,5.5747,5.5823,5.6587,5.6587,5.7084,5.7925,5.7925,5.7963,5.7963,5.7963,5.7963,5.7963,0.0,0.0,0.0,0.0,0.0,0.0,0.0,0.0,0.0,0.0,0.0,0.0,0.0,0.0,0.0,0.0,0.0,0.0,0.0,0.0,0.0,0.0,0.0,0.0,0.0,0.0,0.0,0.0,0.0,0.0,0.0,0.0,0.0,5.7997,5.7997,5.8142,5.8545,5.8628,5.8912,5.9739,5.9842,5.9969,6.037,6.0408,6.0446,6.0446,6.1211,6.1631,6.1631,6.2471,6.293,6.293,6.2968,6.3006,6.3045,6.3045,6.3083,6.3083,6.3083,6.3083,6.3083,6.3083,6.3045,6.2968,6.3006,6.3006,6.293,6.2978,6.2949,6.2892,6.2892,6.293,6.293,0.0,0.0,0.0,0.0,0.0,0.0,0.0,5.3225,5.3225,5.3225,5.34,5.3602,5.3682,5.398,5.4052,5.387,5.4228,5.4296,5.3907,5.4425,5.4933,5.5233,5.5542,5.5899,5.6243,5.6702,5.6816,5.6587,5.6587,5.6282,5.5747,5.5517,5.5823,5.6587,5.6587,5.739,5.8765,5.8765,5.9147,5.9644,5.9033,5.9147,5.972,0.0,0.0,0.0,0.0,0.0,0.0,0.0,0.0,0.0,0.0,0.0,0.0,0.0,0.0,0.0,0.0,0.0,0.0,0.0,0.0,0.0,0.0,0.0,0.0,0.0,0.0,0.0,0.0,0.0,0.0,0.0,0.0,5.7997,5.7997,5.7997,5.8275,5.8949,5.9065,5.9361,6.0159,6.0256,6.0285,6.037,6.0943,6.1287,6.1287,6.2089,6.2548,6.2548,6.2777,6.3197,6.3847,6.442,6.5031,6.5681,6.6254,6.6522,6.6522,6.6522,6.6522,6.6522,6.6522,6.5834,6.4764,6.5375,6.4955,6.377,6.3188,6.2921,6.2892,6.2892,6.3312,6.3923,0.0,0.0,0.0,0.0,0.0,0.0,0.0,5.3225,5.3225,5.3225,5.3484,5.3758,5.3944,5.4016,5.4016,5.398,5.4016,5.3944,5.372,5.4392,5.4933,5.514,5.5656,5.5976,5.6091,5.6434,5.6434,5.6091,5.6434,5.6358,5.5938,5.6625,5.739,5.8192,5.8536,5.9453,6.0676,6.0293,6.0446,6.0828,5.9988,5.995,6.0408,6.0408,6.0408,6.0342,5.9937,5.9673,5.9467,5.8831,0.0,0.0,0.0,0.0,0.0,0.0,0.0,0.0,0.0,0.0,0.0,0.0,0.0,0.0,0.0,0.0,0.0,0.0,0.0,0.0,0.0,0.0,0.0,0.0,5.7997,5.7997,5.7997,5.8142,5.8545,5.9361,5.9467,5.9673,6.0342,6.0714,6.0905,6.0905,6.1669,6.2128,6.2128,6.3312,6.3962,6.3962,6.4649,6.5222,6.5757,6.6216,6.6713,6.7209,6.7668,6.7897,6.7897,6.7897,6.7897,6.7897,6.7928,6.7424,6.6583,6.708,6.6697,0.0,0.0,0.0,0.0,0.0,6.4267,6.4764,0.0,0.0,0.0,0.0,0.0,0.0,0.0,5.3225,5.3225,5.3225,5.3484,5.3833,5.4193,5.3907,5.387,5.4193,5.3907,5.3758,5.3833,5.4458,5.4903,5.4903,5.5881,5.6129,5.5441,5.6091,5.6167,5.5556,5.6243,5.6625,5.6778,5.8345,5.9568,6.0408,6.1134,6.1936,6.2701,6.1822,6.1478,6.1402,6.0676,6.0408,6.0408,6.0408,6.0408,6.0342,5.9937,5.9571,5.9215,5.875,0.0,0.0,0.0,0.0,0.0,0.0,0.0,0.0,0.0,0.0,0.0,0.0,0.0,0.0,0.0,0.0,0.0,0.0,0.0,0.0,0.0,0.0,0.0,0.0,5.7997,5.8042,5.8097,5.8455,5.8912,5.9639,5.982,6.0058,6.0495,6.1287,6.1745,6.1745,6.2624,6.3197,6.3197,0.0,0.0,0.0,0.0,6.7897,6.7897,6.8012,6.805,6.805,6.8126,6.8165,6.8165,6.8165,6.8165,6.8165,6.8334,6.8327,6.8212,6.8212,6.8174,6.7944,6.6323,6.5681,6.5711,6.5681,6.5681,6.5681,0.0,0.0,0.0,0.0,0.0,0.0,0.0,5.3225,5.3225,5.3225,5.3484,5.372,5.3833,5.3758,5.372,5.3833,5.3758,5.3943,5.4522,0.0,5.5286,5.5286,5.553,5.5556,5.5403,5.5556,5.5861,5.6358,5.6511,5.6969,5.7657,5.8651,5.9568,6.0408,6.0561,6.1096,6.1784,6.0981,6.0637,6.0599,6.0446,6.0408,6.0408,6.0408,6.0408,6.0342,5.9937,5.9777,5.9571,5.887,5.8545,5.8455,5.8097,0.0,0.0,0.0,0.0,0.0,0.0,0.0,0.0,0.0,0.0,0.0,0.0,0.0,0.0,0.0,0.0,0.0,0.0,0.0,0.0,5.7997,5.7997,5.8231,5.887,5.9026,5.914,5.9289,5.9963,6.0626,6.1306,6.2128,6.2662,6.2662,6.4076,6.4917,6.4917,6.6522,6.74,6.74,6.7706,6.7897,6.7897,6.8585,6.8929,6.8967,0.0,0.0,6.9922,6.9922,6.9922,6.9922,6.9922,6.961,6.8999,6.8999,6.8578,6.789,6.7553,6.75,6.7569,6.747,6.74,6.74,0.0,0.0,0.0,0.0,0.0,0.0,0.0,5.3225,5.3225,5.3225,5.3484,5.3795,5.398,5.3833,5.3795,5.398,5.4016,5.4158,0.0,5.5085,5.5403,5.5403,5.5403,5.5403,5.5403,5.5785,5.6205,5.6587,5.7428,5.8307,5.9185,6.0408,6.1249,6.1669,6.2089,6.228,6.2204,6.1363,6.0981,6.0981,6.0561,6.0408,6.0408,6.0408,6.0408,6.037,6.0159,5.9842,5.9432,5.9065,5.8628,5.8238,5.8088,5.829,5.8621,0.0,0.0,0.0,0.0,0.0,0.0,0.0,0.0,0.0,0.0,0.0,0.0,0.0,0.0,5.7997,0.0,0.0,5.7997,5.7997,5.7997,5.8231,5.8831,5.9283,5.974,6.0312,6.0795,6.1375,6.2175,6.3388,6.4153,6.4153,6.5681,6.6636,6.6636,6.7859,6.8547,6.8547,6.8929,6.9158,6.9158,6.9578,6.9807,6.9807,7.0228,7.0419,7.0419,7.0419,7.0419,7.0419,7.0451,7.0292,6.991,6.991,6.9642,6.926,6.919,6.8693,6.7998,6.7928,6.7897,6.7897,0.0,0.0,0.0,0.0,0.0,0.0,0.0,5.2858,5.2784,5.2968,5.3182,5.3572,5.4086,5.3833,5.3758,5.4158,5.4262,5.433,0.0,5.5028,5.5403,5.5403,5.5403,5.5403,5.5403,5.6205,5.6664,5.6855,5.8345,5.9568,6.0408,6.1936,6.2662,6.2701,6.3388,6.3312,6.2586,6.1745,6.1363,6.1325,6.0637,6.0408,6.0408,6.0408,6.0408,6.037,6.0188,5.9777,5.9178,5.9026,5.854,5.7997,5.7997,5.8437,5.8988,5.8988,5.8988,0.0,0.0,0.0,0.0,0.0,0.0,0.0,0.0,0.0,5.7997,5.7997,5.7997,5.7997,5.7997,5.7997,5.7997,5.7997,5.7997,5.826,5.8892,5.957,6.0529,6.1963,6.2031,6.2375,6.3312,6.4764,6.5719,6.5872,6.7286,6.8126,6.8126,6.8967,6.9425,6.9425,7.0075,7.0419,7.0419,7.0419,7.0419,7.0419,7.0419,7.0419,7.0419,7.0419,7.0419,7.0419,7.0522,7.0554,7.0554,7.0554,7.0554,7.0554,7.0451,6.9578,6.8394,6.8394,6.8394,6.8394,0.0,0.0,0.0,0.0,0.0,0.0,0.0,0.0,5.1316,5.205,5.2165,5.2589,5.3645,5.3481,5.34,5.372,5.4088,0.0,5.4716,5.514,5.5403,5.5403,5.5403,5.5403,5.5403,5.6205,5.6969,5.7734,5.8651,5.9568,6.0408,6.1325,6.1745,6.1745,6.186,6.186,6.1707,6.0867,6.0523,6.0523,6.0446,6.0408,6.0408,6.0408,6.0408,6.0313,5.9571,5.9289,5.9103,5.8369,5.8088,5.7997,5.7997,5.807,5.8143,5.8143,0.0,5.8143,5.8143,5.807,0.0,5.7997,5.7997,5.7997,0.0,0.0,5.7997,5.7997,5.7997,5.7997,5.7997,5.7997,5.7997,5.7997,5.7997,5.8534,6.0076,6.0379,6.1314,6.3634,6.36,6.384,6.5001,6.5987,6.6865,6.7553,6.8508,6.9043,6.9043,6.9807,7.0266,7.0266,7.0342,7.0419,7.0419,7.0419,7.0419,7.0419,7.0419,7.0419,7.0419,7.0419,7.0419,7.0419,7.0419,7.0419,7.0419,7.0419,7.0419,7.0419,7.0419,7.0304,7.0113,7.0113,7.0113,7.0113,0.0,0.0,0.0,0.0,0.0,0.0,0.0,0.0,0.0,5.1242,5.172,5.225,5.2939,5.3306,5.3444,5.34,0.0,0.0,5.4495,5.5057,5.5403,5.5403,5.5403,5.5403,5.5403,5.6205,5.6778,5.7122,5.8001,5.9338,6.1096,6.0943,6.1402,6.2319,6.1822,6.1325,6.0867,6.0523,6.0408,6.0408,6.0408,6.0408,6.0408,6.0408,6.0408,6.0313,5.9739,5.9252,0.0,5.8455,5.8186,5.7997,5.7997,5.7997,5.7997,5.7997,5.7997,0.0,5.7997,0.0,0.0,0.0,5.7997,5.7997,5.7997,5.7997,5.7997,5.7997,5.7997,5.7997,5.7997,5.7997,5.7997,0.0,5.8637,5.9441,6.0379,6.1541,6.2955,6.4665,6.5175,6.5601,6.6139,6.6904,6.7744,6.8585,6.9425,6.9884,6.9884,7.0228,7.0419,7.0419,7.0419,7.0419,7.0419,7.0419,7.0419,7.0419,7.0419,7.0419,7.0419,7.0419,7.0419,7.0419,7.0419,7.0419,7.0419,7.0419,7.0419,7.0419,7.0419,7.0419,7.0419,7.0419,7.0419,7.0419,0.0,0.0,0.0,0.0,0.0,0.0,0.0,0.0,0.0,0.0,5.1169,5.1915,5.2638,5.3193,5.3484,5.3318,0.0,0.0,0.0,5.4933,5.5286,5.5403,5.5403,5.5403,5.5403,5.6205,5.6587,5.6587,5.7466,5.8918,6.0905,6.0293,6.0828,6.2166,6.1554,6.0943,6.0408,6.0408,6.0408,6.0408,6.0408,6.0408,6.0408,6.0285,6.0159,6.0038,5.9744,5.9289,5.875,5.8503,5.8275,5.7997,5.7997,5.7997,5.7997,5.7997,5.7997,5.7997,5.7997,0.0,0.0,5.7997,5.7997,5.7997,5.7997,5.7997,5.7997,5.7997,5.7997,5.7997,5.7997,5.7997,5.8116,5.8473,5.9307,6.0248,6.1243,6.2816,6.4377,6.5612,6.6522,6.7133,6.7362,6.7935,6.8623,6.9464,7.0075,7.0419,7.0419,7.0419,7.0419,7.0419,7.0419,7.0419,7.0419,7.0419,7.0419,7.0419,7.0419,7.0419,7.0419,7.0419,7.0419,7.0419,7.0419,7.0419,7.0419,7.0419,7.0419,7.0419,7.0419,7.0419,7.0419,7.0419,7.0419,7.0419,0.0,0.0,0.0,0.0,0.0,0.0,0.0,0.0,0.0,0.0,0.0,0.0,0.0,5.3188,5.3318,0.0,0.0,0.0,0.0,5.4806,5.499,5.5377,5.5403,5.5403,5.5403,5.6205,5.6587,5.6587,5.7466,5.8345,5.9185,5.9147,5.9606,6.0446,6.0446,6.0408,6.0408,6.0408,6.0408,6.0408,6.0408,6.0408,6.0342,5.9969,5.9571,5.9252,5.9215,5.9215,5.9065,5.8275,5.7997,5.7997,5.7997,5.7997,0.0,5.7997,5.7997,5.7997,5.7997,0.0,5.7997,5.7997,5.7997,5.7997,5.7997,5.7997,5.7997,5.7997,5.7997,5.7997,5.7997,5.7997,5.8399,5.9658,5.9855,6.0743,6.3189,6.4241,6.5251,6.6529,6.7362,6.8203,0.0,6.9158,6.9502,7.0304,7.0381,7.0419,7.0419,7.0419,7.0419,7.0419,7.0419,7.0419,7.0419,7.0419,7.0419,7.0419,7.0419,7.0419,7.0419,7.0419,7.0419,7.0419,7.0419,7.0419,7.0419,7.0419,7.0419,7.0419,7.0419,7.0419,7.0419,7.0419,7.0419,7.0419,0.0,0.0,0.0,0.0,0.0,0.0,0.0,0.0,0.0,0.0,0.0,0.0,0.0,0.0,0.0,0.0,0.0,0.0,0.0,5.4522,5.4836,5.499,5.526,5.5403,5.5403,5.567,5.5785,5.5785,5.6091,5.7237,5.9109,5.8536,5.9338,6.1172,6.0637,6.0408,6.0408,6.0408,6.0408,6.0408,6.0408,6.0408,6.0408,6.0256,5.9937,5.9571,0.0,5.887,5.8369,5.8051,0.0,5.7997,5.7997,5.7997,5.7997,5.7997,5.7997,5.7997,5.7997,0.0,5.7997,5.7997,5.7997,5.7997,5.7997,5.7997,5.7997,5.7997,5.7997,5.8143,5.8694,5.8804,5.9108,6.0066,6.1162,6.2366,6.3804,6.5186,6.6624,6.8203,6.8585,0.0,0.0,0.0,0.0,7.0342,7.0419,7.0419,7.0419,7.0419,7.0419,7.0419,7.0419,7.0419,7.0419,7.0419,7.0419,7.0419,7.0419,7.0419,7.0419,7.0419,7.0419,7.0419,7.0419,7.0419,7.0419,7.0419,7.0419,7.0419,7.0419,7.0419,7.0419,7.0419,7.0419,7.0419,0.0,0.0,0.0,0.0,0.0,0.0,0.0,0.0,0.0,0.0,0.0,0.0,0.0,0.0,0.0,0.0,0.0,0.0,0.0,0.0,5.4522,5.4776,5.5057,5.526,5.5403,5.5403,5.5403,5.5403,5.5403,5.6511,5.8651,5.8154,5.9071,6.1134,6.0637,6.0408,6.0408,6.0408,6.0408,6.0408,6.0408,6.0408,6.0342,6.0099,5.9809,0.0,5.8988,5.8455,5.7997,5.7997,5.7997,5.7997,5.7997,5.7997,5.7997,5.7997,5.7997,5.7997,5.7997,5.7997,5.7997,5.7997,5.7997,5.7997,5.7997,5.7997,5.7997,5.7997,5.8217,5.8584,5.9098,5.9428,5.9953,6.0913,6.2109,6.3349,6.4633,6.6125,6.763,6.9043,6.9464,6.9846,0.0,0.0,0.0,7.0381,7.0419,7.0419,7.0419,7.0419,7.0419,7.0419,7.0419,7.0419,7.0419,7.0419,7.0572,7.0877,7.1183,7.1336,7.1336,7.1336,7.1336,7.1336,7.1336,7.1336,7.1336,7.1336,7.1336,7.1336,7.1336,7.1336,7.1336,7.1369,7.1331,7.1254,0.0,0.0,0.0,0.0,0.0,0.0,0.0,0.0,0.0,0.0,0.0,0.0,0.0,0.0,0.0,0.0,0.0,0.0,0.0,0.0,0.0,5.4746,5.4776,5.499,5.5403,5.5403,5.5403,5.5403,5.5441,5.632,5.7886,5.7925,5.8842,6.0408,6.0408,6.0408,6.0408,6.0408,6.0408,6.0408,6.0408,6.0408,6.0313,5.9537,5.9215,5.9103,5.8282,5.8042,0.0,0.0,0.0,0.0,5.7997,5.7997,5.7997,5.7997,5.7997,5.7997,5.7997,5.7997,5.7997,5.7997,5.7997,5.7997,5.7997,5.8033,5.807,5.807,5.8694,5.9281,0.0,0.0,6.0903,6.2183,6.2766,6.3766,6.58,6.7169,6.8279,0.0,0.0,0.0,0.0,0.0,0.0,7.0419,0.0,7.0419,7.0419,7.0419,7.0419,7.0419,7.0457,7.0495,7.0495,7.0533,7.0954,7.1756,7.2597,7.2979,7.2979,7.2979,7.2979,7.2979,7.2979,7.2979,7.2979,7.2979,7.2979,7.2979,7.2979,7.2979,7.2979,7.3079,7.3073,7.2843,0.0,0.0,0.0,0.0,0.0,0.0,0.0,0.0,0.0,0.0,0.0,0.0,0.0,0.0,0.0,0.0,0.0,0.0,0.0,0.0,0.0,0.0,0.0,0.0,0.0,0.0,0.0,0.0,5.6014,5.6855,5.7925,5.8498,5.9376,6.0408,6.0408,6.0408,6.0408,6.0408,6.0408,6.0408,6.0408,6.0408,6.0342,5.9842,5.9467,5.914,5.8628,0.0,0.0,0.0,0.0,0.0,0.0,5.7997,5.7997,5.7997,5.7997,5.7997,5.7997,5.7997,5.7997,5.7997,5.7997,5.7997,5.7997,5.8474,5.8914,5.8914,5.9538,6.0272,0.0,0.0,0.0,6.3044,6.4322,0.0,6.6783,6.8083,0.0,6.9999,0.0,7.0419,7.0419,7.0419,0.0,0.0,7.0419,7.0419,7.0419,7.0419,7.0419,7.0419,7.103,7.1374,7.1374,7.2024,7.2444,7.2673,7.2902,7.2979,7.2979,7.2979,7.2979,7.2979,7.2979,7.2979,7.2979,7.2979,7.2979,7.2979,7.2979,7.2979,7.2979,7.3012,7.3079,7.3035,0.0,0.0,0.0,0.0,0.0,0.0,0.0,0.0,0.0,0.0,0.0,0.0,0.0,0.0,0.0,0.0,0.0,0.0,0.0,0.0,0.0,0.0,0.0,0.0,0.0,0.0,0.0,0.0,0.0,0.0,5.8459,5.888,5.9568,6.0408,6.0408,6.0408,6.0408,6.0408,6.0408,0.0,0.0,6.0129,6.0068,5.9502,5.9103,0.0,0.0,0.0,0.0,0.0,0.0,5.7997,5.7997,5.7997,5.7997,5.7997,0.0,5.7997,5.7997,5.7997,5.7997,5.7997,5.8253,5.8547,5.8547,5.9171,5.9758,5.9758,6.0382,0.0,6.152,0.0,0.0,0.0,0.0,0.0,6.7199,6.8426,6.9502,0.0,7.0419,0.0,7.0419,7.0419,7.0419,0.0,7.0419,7.0419,7.0419,7.0419,7.0572,7.0954,7.145,7.1871,7.2253,7.3093,7.3514,7.3514,7.3896,7.4087,7.4087,7.4087,7.4087,7.4087,0.0,7.4087,7.4087,7.4087,7.4087,7.4087,7.4087,7.4087,7.4087,7.4121,7.415,7.4183,0.0,0.0,0.0,0.0,0.0,0.0,0.0,0.0,0.0,0.0,0.0,0.0,0.0,0.0,0.0,0.0,0.0,0.0,0.0,0.0,0.0,0.0,0.0,0.0,0.0,0.0,0.0,0.0,0.0,0.0,0.0,0.0,0.0,0.0,0.0,6.0408,6.0408,6.0408,6.0408,6.0342,5.9937,5.9809,5.9706,0.0,0.0,0.0,0.0,0.0,0.0,0.0,5.7997,5.7997,5.7997,5.7997,5.7997,5.7997,5.7997,5.7997,5.7997,5.7997,5.8033,5.8143,5.8694,5.9245,5.9355,5.9979,6.0566,6.0566,0.0,6.1741,6.1741,6.2724,6.3535,6.358,0.0,6.6478,6.7273,6.8502,6.9616,7.0342,7.0419,7.0419,7.0419,7.0419,7.0419,7.0419,7.0533,7.0572,7.0572,7.0572,7.103,7.1985,7.2024,7.2444,7.3323,7.401,7.4393,7.4393,7.5119,7.5501,7.5501,7.5501,7.5501,7.5501,7.5501,7.5501,7.5501,7.5501,7.5501,7.5501,7.5501,7.5501,7.5535,7.5566,7.5599,7.5599,0.0,0.0,0.0,0.0,0.0,0.0,0.0,0.0,0.0,0.0,5.1903,5.2307,0.0,0.0,0.0,0.0,0.0,0.0,0.0,0.0,0.0,0.0,0.0,0.0,0.0,0.0,0.0,0.0,0.0,0.0,0.0,0.0,0.0,0.0,0.0,6.0408,6.0408,6.0408,6.0408,6.0342,5.9937,5.9809,5.9706,0.0,0.0,0.0,0.0,0.0,0.0,0.0,5.7997,5.7997,5.7997,5.7997,5.7997,5.7997,5.7997,5.7997,5.7997,5.7997,5.8143,5.8841,5.9098,5.9391,6.0052,6.0823,0.0,0.0,6.2034,6.2585,6.2585,6.3094,6.3624,6.3934,0.0,0.0,0.0,0.0,7.0228,0.0,0.0,0.0,0.0,0.0,0.0,0.0,0.0,7.145,7.145,7.145,7.2176,7.3705,7.3781,7.4163,7.5042,7.5195,7.5271,7.5271,7.5424,7.5501,7.5501,7.5501,7.5501,7.5501,7.5501,0.0,7.5501,7.5501,7.5501,7.5501,7.5501,7.5501,7.5501,7.5535,7.5532,7.5599,0.0,0.0,0.0,0.0,0.0,0.0,0.0,5.1756,5.216,5.2564,5.2637,5.2784,5.3188,5.3225,0.0,0.0,0.0,0.0,0.0,0.0,0.0,0.0,0.0,0.0,0.0,0.0,0.0,0.0,0.0,0.0,0.0,0.0,0.0,0.0,0.0,0.0,0.0,6.0408,6.0408,6.0342,5.9706,5.9502,0.0,0.0,0.0,0.0,0.0,0.0,0.0,0.0,5.7997,5.7997,5.7997,5.7997,5.7997,5.7997,5.7997,5.7997,5.7997,5.8327,5.8731,5.9098,5.9832,6.0566,6.0933,0.0,0.0,0.0,6.2548,6.2805,6.2805,0.0,0.0,0.0,0.0,0.0,0.0,0.0,0.0,0.0,0.0,0.0,0.0,0.0,0.0,0.0,0.0,7.168,7.168,7.252,7.3361,7.4163,7.4622,7.508,7.5501,7.5501,7.5501,7.5501,7.5501,7.5501,7.5501,7.5501,7.5501,7.5501,7.5501,7.5501,7.5501,7.5501,7.5501,7.5501,7.5501,7.5501,7.5501,7.5501,7.5532,7.5599,0.0,0.0,0.0,0.0,0.0,0.0,0.0,5.227,5.2491,5.3115,5.3225,5.3225,5.3225,5.3225,5.3225,0.0,0.0,0.0,0.0,0.0,0.0,0.0,0.0,0.0,0.0,0.0,0.0,0.0,0.0,0.0,0.0,0.0,0.0,0.0,0.0,0.0,0.0,0.0,6.0342,0.0,0.0,0.0,0.0,0.0,0.0,0.0,0.0,0.0,0.0,0.0,5.7997,5.7997,5.7997,5.7997,5.7997,5.7997,5.7997,5.8033,5.8217,5.8731,5.9281,5.9648,6.0676,6.163,6.1814,6.2365,0.0,0.0,6.2805,6.2805,6.2805,0.0,6.3354,0.0,6.5564,0.0,0.0,0.0,0.0,0.0,0.0,0.0,0.0,0.0,0.0,0.0,0.0,0.0,7.2253,7.3667,7.4469,7.4469,7.5119,7.5501,7.5501,7.5501,7.5501,7.5501,7.5501,7.5501,7.5501,7.5501,7.5501,7.5501,7.5501,7.5501,7.5501,7.5501,7.5501,7.5501,7.5501,7.5501,7.5501,7.5535,7.5532,7.5599,0.0,0.0,0.0,0.0,0.0,0.0,0.0,5.3115,5.3115,5.3188,5.3225,5.3225,5.3225,5.3225,5.3225,0.0,0.0,0.0,0.0,0.0,0.0,0.0,0.0,0.0,0.0,0.0,0.0,0.0,0.0,0.0,0.0,0.0,0.0,0.0,0.0,0.0,0.0,0.0,0.0,0.0,0.0,0.0,0.0,0.0,0.0,0.0,0.0,0.0,0.0,0.0,0.0,5.7997,5.7997,5.7997,5.7997,5.7997,0.0,0.0,5.8914,5.9171,5.9575,6.1006,6.1484,6.1777,6.2511,0.0,6.2805,6.2805,6.2805,6.2805,6.2805,6.2855,0.0,0.0,0.0,6.6819,0.0,0.0,0.0,0.0,0.0,0.0,0.0,0.0,0.0,0.0,0.0,0.0,7.3972,7.4851,7.5386,7.5386,7.5462,7.5501,7.5501,7.5501,7.5501,7.5501,7.5501,7.5501,7.5501,7.5501,7.5501,7.5501,7.5501,7.5501,0.0,7.5501,7.5501,7.5501,7.5501,7.5501,7.5535,7.5566,7.5599,7.5633,0.0,0.0,0.0,0.0,0.0,0.0,5.3225,5.3225,5.3225,5.3225,5.3225,5.3225,5.3225,5.3225,5.3225,5.3225,0.0,0.0,0.0,0.0,0.0,0.0,0.0,0.0,0.0,0.0,0.0,5.4495,0.0,0.0,0.0,0.0,0.0,0.0,0.0,0.0,0.0,0.0,0.0,0.0,0.0,0.0,0.0,0.0,0.0,0.0,0.0,0.0,0.0,0.0,0.0,0.0,5.7997,5.7997,0.0,0.0,5.8327,5.8804,5.9134,5.9905,6.0786,6.1447,6.1961,6.2401,6.2732,0.0,6.2805,6.2805,6.2805,6.2805,6.2805,6.2805,6.3002,0.0,6.5199,0.0,6.7532,0.0,0.0,0.0,0.0,0.0,0.0,0.0,0.0,0.0,0.0,0.0,7.4966,7.531,7.5501,7.5501,7.5501,7.5501,7.5501,7.5501,7.5501,7.5501,7.5501,7.5501,7.5501,7.5501,7.5501,7.5501,7.5501,7.5501,0.0,7.5501,7.5501,7.5501,7.5501,7.5501,7.5535,7.5566,7.5633,7.5699,0.0,0.0,0.0,0.0,0.0,5.3225,5.3225,5.3225,5.3225,5.3225,5.3225,5.3225,5.3225,5.3225,5.3225,5.3225,5.3225,0.0,0.0,0.0,0.0,0.0,0.0,0.0,0.0,0.0,5.4123,5.4123,5.4123,5.4052,0.0,0.0,0.0,0.0,0.0,0.0,0.0,0.0,0.0,0.0,0.0,0.0,0.0,0.0,0.0,0.0,0.0,0.0,0.0,0.0,0.0,0.0,0.0,0.0,0.0,0.0,5.8584,5.9281,5.9501,6.0566,6.1667,6.1887,6.2401,6.2805,0.0,0.0,6.2805,6.2805,6.2805,6.2805,6.2805,6.3025,6.3392,6.398,6.5456,6.6866,6.7771,6.9094,0.0,0.0,0.0,0.0,0.0,0.0,0.0,0.0,0.0,0.0,7.5501,7.5501,7.5501,7.5501,7.5501,7.5501,7.5501,7.5501,7.5501,7.5501,7.5501,7.5501,7.5501,7.5501,7.5501,7.5501,7.5501,7.5501,0.0,7.5501,7.5501,7.5501,7.5501,7.5501,7.5535,7.5599,7.5628,7.5724,0.0,0.0,0.0,0.0,0.0,0.0,5.3225,5.3225,5.3225,5.3225,5.3225,5.3225,5.3225,5.3225,5.3225,5.3225,5.3225,0.0,0.0,0.0,0.0,0.0,0.0,0.0,0.0,0.0,5.372,5.372,5.372,5.3524,5.3225,5.3563,5.5059,0.0,0.0,0.0,0.0,0.0,0.0,0.0,0.0,0.0,5.7997,0.0,0.0,0.0,0.0,0.0,0.0,0.0,0.0,0.0,0.0,5.7997,5.7997,0.0,5.8584,5.9391,6.0162,6.097,6.1777,6.2585,6.2805,6.2805,0.0,0.0,6.2805,6.2805,6.2805,6.2805,6.2805,6.3503,6.409,6.409,6.6267,6.7851,6.7889,6.9359,0.0,0.0,0.0,0.0,0.0,0.0,0.0,0.0,0.0,0.0,7.5501,7.5501,7.5501,7.5501,7.5501,7.5501,7.5501,7.5501,7.5501,7.5501,7.5501,7.5501,7.5501,7.5501,7.5501,7.5501,7.5501,7.5501,0.0,7.5501,7.5501,7.5501,7.5501,7.5501,7.5535,7.5628,7.5692,7.5724,0.0,0.0,0.0,0.0,0.0,0.0,0.0,5.3225,5.3225,5.3225,5.3225,5.3225,5.3225,5.3225,5.3225,5.3225,5.3225,0.0,0.0,0.0,0.0,0.0,0.0,0.0,0.0,0.0,5.3359,5.3359,5.3359,5.3314,5.3225,5.3314,5.4059,5.5354,5.6063,0.0,0.0,0.0,0.0,0.0,0.0,5.7997,5.7997,0.0,0.0,0.0,0.0,0.0,0.0,0.0,0.0,0.0,0.0,0.0,0.0,5.8657,5.9391,6.0199,6.1006,6.1814,6.2475,6.2768,6.2805,6.2805,6.2805,0.0,6.2805,6.2805,6.2805,6.2805,6.2805,6.3503,6.4273,6.4824,6.6308,6.7726,6.8597,0.0,0.0,0.0,0.0,0.0,0.0,0.0,0.0,0.0,0.0,0.0,7.5566,7.5497,7.5501,7.5501,7.5501,7.5501,7.5501,7.5501,7.5501,7.5501,7.5501,7.5501,7.5501,7.5501,7.5501,7.5501,7.5501,7.5501,7.5501,7.5501,7.5501,7.5501,7.5501,7.5535,7.5566,7.566,7.5763,7.5826,0.0,0.0,0.0,0.0,0.0,0.0,0.0,5.3225,5.3225,5.3225,5.3225,5.3225,5.3225,5.3225,5.3225,5.3225,5.3225,0.0,0.0,0.0,0.0,0.0,0.0,0.0,0.0,5.3225,5.3225,5.3225,5.3225,5.3225,5.3225,5.3225,5.3628,5.4436,5.5507,0.0,0.0,0.0,0.0,0.0,5.7997,5.7997,5.7997,0.0,0.0,0.0,0.0,0.0,0.0,0.0,0.0,0.0,0.0,0.0,0.0,0.0,6.0236,6.097,6.1447,6.2181,6.2805,6.2805,6.2805,0.0,0.0,0.0,0.0,6.2805,6.2805,6.2915,6.3246,6.398,6.4824,6.5632,6.6987,6.8219,6.8972,0.0,0.0,0.0,0.0,0.0,0.0,0.0,0.0,0.0,0.0,0.0,7.5599,7.557,7.5501,7.5501,7.5501,7.5501,7.5501,7.5501,7.5501,7.5501,7.5501,7.5501,7.5501,7.5501,7.5501,7.5501,7.5501,7.5501,0.0,7.5501,7.5501,7.5501,7.5501,7.5532,7.5599,7.566,7.5794,7.5895,0.0,0.0,0.0,0.0,0.0,0.0,0.0,5.3225,5.3225,5.3225,5.3225,5.3225,5.3225,5.3225,5.3225,5.3225,0.0,0.0,0.0,0.0,0.0,0.0,0.0,0.0,5.3225,5.3225,5.3225,5.3225,5.3225,5.3225,5.3225,5.3225,5.3628,5.4436,5.5244,5.6276,0.0,0.0,0.0,0.0,5.7997,5.7997,0.0,0.0,0.0,0.0,0.0,0.0,0.0,0.0,0.0,0.0,0.0,0.0,0.0,0.0,0.0,0.0,0.0,6.2218,6.2805,6.2805,6.2805,0.0,0.0,0.0,0.0,0.0,0.0,6.3135,6.3943,6.4787,6.5632,6.6366,6.7932,6.9091,6.9091,6.9853,0.0,0.0,0.0,0.0,0.0,0.0,0.0,0.0,0.0,0.0,7.5599,7.5532,7.5501,7.5501,7.5501,7.5501,7.5501,7.5501,7.5501,7.5501,7.5501,7.5501,7.5501,7.5501,7.5501,0.0,7.5501,7.5501,7.5501,7.5501,7.5501,7.5501,7.5501,7.5532,7.5633,7.5699,7.5794,7.5895,0.0,0.0,0.0,0.0,0.0,0.0,0.0,0.0,0.0,0.0,5.3225,5.3225,5.3225,5.3225,5.3225,0.0,0.0,0.0,0.0,0.0,0.0,0.0,0.0,0.0,5.3225,5.3225,5.3225,5.3225,5.3225,5.3225,5.3225,5.3225,5.3628,5.4436,5.5244,5.647,0.0,0.0,0.0,0.0,5.7997,5.7997,0.0,0.0,0.0,0.0,5.7997,5.7997,0.0,0.0,0.0,0.0,0.0,0.0,0.0,0.0,6.097,6.1741,6.2365,0.0,6.2805,6.2805,6.2805,6.2805,0.0,0.0,0.0,0.0,0.0,0.0,0.0,6.5264,6.6292,6.6476,6.7932,6.9091,6.9091,0.0,0.0,0.0,0.0,0.0,0.0,0.0,0.0,0.0,0.0,7.5794,7.566,7.5633,7.5532,7.5501,7.5501,7.5501,7.5501,7.5501,7.5501,7.5501,7.5501,7.5501,7.5501,7.5501,7.5501,7.5501,7.5501,7.5501,7.5501,7.5501,7.5501,7.5501,7.5532,7.5633,7.566,7.5794,7.5925,7.5985,0.0,0.0,0.0,0.0,0.0,0.0,0.0,0.0,0.0,0.0,0.0,0.0,0.0,0.0,0.0,0.0,0.0,0.0,0.0,0.0,0.0,0.0,0.0,5.3225,5.3225,5.3225,5.3225,5.3225,5.3225,5.3225,5.3225,5.3225,5.3628,5.4436,5.5611,5.6638,0.0,0.0,0.0,5.7997,5.7997,0.0,0.0,0.0,0.0,0.0,5.7997,5.7997,0.0,5.7997,5.7997,5.7997,0.0,0.0,0.0,0.0,6.1227,6.2254,6.2695,6.2805,6.2805,6.2805,6.2805,6.2805,0.0,0.0,0.0,0.0,0.0,0.0,0.0,0.0,0.0,6.728,6.8526,6.9504,0.0,0.0,0.0,0.0,0.0,0.0,0.0,0.0,0.0,0.0,0.0,7.5864,7.5692,7.5633,7.5566,7.5501,7.5501,7.5501,7.5501,7.5501,7.5501,7.5501,7.5501,7.5501,7.5501,7.5501,7.5501,7.5501,7.5501,7.5501,7.5501,7.5497,7.557,7.5532,7.5633,7.5699,7.5794,7.5864,7.5955,7.6015,0.0,0.0,0.0,0.0,0.0,0.0,0.0,0.0,0.0,0.0,0.0,0.0,0.0,0.0,0.0,0.0,0.0,0.0,0.0,0.0,0.0,0.0,0.0,5.3225,5.3225,5.3225,5.3225,5.3225,5.3225,5.3225,5.3225,5.3335,5.3885,5.484,5.6308,5.6969,0.0,0.0,5.7997,5.7997,5.7997,0.0,0.0,0.0,0.0,0.0,0.0,0.0,0.0,5.7997,5.7997,5.8033,5.8143,0.0,0.0,0.0,0.0,0.0,6.2805,6.2805,6.2805,6.2805,6.2805,6.2805,0.0,0.0,0.0,0.0,0.0,0.0,0.0,0.0,0.0,0.0,0.0,0.0,0.0,0.0,0.0,0.0,0.0,0.0,0.0,0.0,0.0,0.0,0.0,7.5826,7.5692,7.5666,7.5566,7.5501,7.5501,7.5501,7.5501,7.5501,7.5501,7.5501,7.5501,7.5501,7.5501,7.5501,7.5501,7.5501,7.5535,0.0,7.5535,7.5599,7.5633,7.5633,7.5731,7.5794,7.5895,7.5895,7.5955,7.6015,0.0,0.0,0.0,0.0,0.0,0.0,0.0,0.0,0.0,0.0,0.0,0.0,0.0,0.0,0.0,0.0,0.0,0.0,0.0,0.0,0.0,5.3225,5.3225,5.3225,5.3225,5.3225,5.3225,5.3225,5.3225,5.3225,5.3225,5.3922,5.5023,5.6492,5.7409,5.7813,5.7813,5.796,5.7997,5.7997,5.7997,0.0,0.0,0.0,0.0,0.0,0.0,0.0,0.0,5.7997,5.7997,5.8107,5.8804,0.0,0.0,0.0,0.0,0.0,6.2805,6.2805,6.2805,6.2805,6.2805,6.2805,0.0,0.0,0.0,0.0,0.0,0.0,0.0,0.0,0.0,0.0,0.0,0.0,0.0,0.0,0.0,0.0,0.0,0.0,0.0,0.0,0.0,0.0,0.0,7.5887,7.5692,7.5692,7.5633,7.5501,7.5501,7.5501,7.5501,7.5501,7.5501,7.5501,7.5501,7.5501,7.5501,7.5501,7.5501,7.5501,0.0,7.5566,7.5599,7.5666,7.566,7.5692,7.5794,7.5864,7.5895,7.5985,7.6015,7.6092,0.0,0.0,0.0,0.0,0.0,0.0,0.0,0.0,0.0,0.0,0.0,0.0,0.0,0.0,0.0,0.0,0.0,0.0,0.0,0.0,0.0,5.3225,5.3225,5.3225,5.3225,5.3225,5.3225,5.3225,5.3225,5.3445,5.3885,5.5133,5.5868,5.6198,5.7446,5.7776,5.7373,5.7813,5.7997,5.7997,0.0,0.0,0.0,0.0,0.0,0.0,0.0,0.0,0.0,0.0,5.829,5.8731,5.9098,0.0,0.0,0.0,0.0,0.0,6.2805,6.2805,6.2805,6.2805,6.2805,6.2805,0.0,0.0,0.0,0.0,0.0,0.0,0.0,0.0,0.0,0.0,0.0,0.0,0.0,0.0,0.0,0.0,0.0,0.0,0.0,0.0,0.0,0.0,0.0,7.5917,7.5794,7.5763,7.5666,7.5532,7.5535,7.5501,7.5501,7.5501,7.5501,7.5501,7.5501,7.5501,7.5501,7.5501,7.5501,7.5501,0.0,7.5599,7.5599,7.5731,7.5794,7.5833,7.6425,7.6647,7.6686,7.7207,7.7361,7.74,0.0,0.0,0.0,0.0,0.0,0.0,0.0,0.0,0.0,0.0,0.0,0.0,0.0,0.0,0.0,0.0,0.0,0.0,0.0,0.0,5.3225,5.3225,5.3225,5.3225,5.3225,5.3225,5.3225,5.3225,5.3408,5.3995,5.4987,5.6235,5.6675,5.6492,5.774,5.796,5.7409,5.8033,5.818,5.7997,0.0,0.0,0.0,0.0,0.0,0.0,0.0,0.0,0.0,0.0,0.0,0.0,0.0,0.0,0.0,6.1814,6.2328,6.2805,6.2805,6.2805,6.2805,6.2805,0.0,0.0,0.0,0.0,0.0,0.0,0.0,0.0,0.0,0.0,0.0,0.0,0.0,0.0,0.0,0.0,0.0,0.0,0.0,0.0,0.0,0.0,0.0,0.0,0.0,7.5985,7.5895,7.5794,7.5699,7.5599,7.5532,7.5535,7.5501,7.5692,7.5692,7.5501,7.5501,7.5501,7.5501,7.5535,7.5497,7.5535,7.5599,7.5781,7.5972,7.6171,7.6348,7.6579,7.7293,7.7592,7.7669,7.8246,7.8477,7.8515,0.0,0.0,0.0,0.0,0.0,0.0,0.0,0.0,0.0,0.0,0.0,0.0,0.0,0.0,0.0,0.0,0.0,0.0,0.0,0.0,5.3225,5.3225,5.3225,5.3225,5.3225,5.3225,5.3225,5.3225,5.3959,5.5097,5.6638,5.6748,5.7593,5.8951,5.9061,5.9098,5.9061,5.9098,5.8694,5.7997,5.7997,0.0,0.0,0.0,0.0,0.0,0.0,0.0,0.0,0.0,0.0,0.0,0.0,0.0,6.1741,6.2511,6.2768,6.2805,6.2805,6.2805,6.2805,0.0,0.0,0.0,0.0,0.0,0.0,0.0,0.0,0.0,0.0,0.0,0.0,0.0,0.0,0.0,0.0,0.0,0.0,0.0,0.0,0.0,0.0,0.0,0.0,0.0,7.6015,7.5985,7.5895,7.5895,7.5801,7.5599,7.5599,7.5566,7.5501,7.6227,7.6227,7.5501,7.5501,7.5501,7.5501,7.5566,7.5599,7.5599,7.5801,7.6286,7.7009,7.7139,7.763,7.8323,7.84,7.84,7.84,7.8477,7.8477,7.8631,0.0,0.0,0.0,0.0,0.0,0.0,0.0,0.0,0.0,0.0,0.0,0.0,0.0,0.0,0.0,0.0,0.0,0.0,0.0,5.3371,5.3225,5.3225,5.3225,5.3445,5.3959,5.3482,5.3445,5.3959,5.5757,5.6969,5.7556,5.8584,5.9355,5.9942,5.9428,5.9208,5.9171,5.8694,5.829,5.7997,5.7997,5.7997,0.0,0.0,0.0,0.0,0.0,0.0,0.0,0.0,5.9612,6.075,6.1043,6.1704,6.2401,6.2732,6.2805,6.2805,6.2805,6.2805,0.0,0.0,0.0,0.0,0.0,0.0,0.0,0.0,0.0,0.0,0.0,0.0,0.0,0.0,0.0,0.0,0.0,0.0,0.0,0.0,0.0,0.0,0.0,0.0,0.0,0.0,7.6015,7.6015,7.5955,7.5925,7.5864,7.5801,7.5666,7.5867,7.6369,7.6675,7.6943,7.7134,7.7134,7.7169,7.7241,7.7275,7.7308,7.7308,7.7368,7.7623,7.7892,7.8023,7.8207,7.8554,7.9092,7.9631,8.0131,8.0131,8.0131,8.0169,0.0,0.0,0.0,0.0,0.0,0.0,0.0,0.0,0.0,0.0,0.0,0.0,0.0,0.0,0.0,0.0,0.0,0.0,5.3261,5.3225,5.3225,5.3225,5.3445,5.3849,5.4399,5.4363,5.462,5.517,5.7336,5.851,5.8767,5.9869,6.0419,6.0382,5.9832,5.9465,5.9171,5.8621,5.8217,5.7997,5.7997,5.7997,0.0,0.0,0.0,0.0,0.0,0.0,0.0,0.0,6.0493,6.1594,6.1594,6.2144,6.2805,6.2805,6.2805,6.2805,6.2805,6.3025,6.3406,0.0,0.0,0.0,0.0,0.0,0.0,0.0,0.0,0.0,0.0,0.0,0.0,0.0,0.0,0.0,0.0,0.0,0.0,0.0,0.0,0.0,0.0,0.0,0.0,7.6015,7.6015,7.6015,7.6015,7.5955,7.5925,7.5895,7.5999,7.6355,7.693,7.7467,7.8003,7.8611,7.888,7.8726,7.83,7.8333,7.8333,7.8366,7.8391,7.8577,7.8846,7.8869,7.9054,7.9361,7.9977,8.0554,8.1093,8.1093,8.1093,8.1093,0.0,0.0,0.0,0.0,0.0,0.0,0.0,0.0,0.0,0.0,0.0,0.0,0.0,0.0,0.0,0.0,0.0,0.0,5.3261,5.3225,5.3225,5.3225,5.3995,5.4436,5.4436,5.6014,5.6859,5.6822,5.8437,5.9648,6.0419,6.0419,6.0419,6.0419,6.0419,5.9942,5.9208,5.9208,5.8731,5.7997,5.7997,5.7997,5.7997,0.0,0.0,0.0,0.0,0.0,0.0,0.0,6.0933,6.1594,6.1594,6.2144,6.2805,6.2805,6.2805,6.2805,6.2805,6.3429,0.0,0.0,0.0,0.0,0.0,0.0,0.0,0.0,0.0,0.0,0.0,0.0,0.0,0.0,0.0,0.0,0.0,0.0,0.0,0.0,0.0,0.0,0.0,0.0,7.6015,7.6015,7.6015,7.6015,7.6015,7.6015,7.5985,7.5895,7.6701,7.7093,7.6996,7.8645,7.9594,7.9697,8.0504,8.001,7.8338,7.8398,7.843,7.843,7.8485,7.9015,7.9823,7.9823,8.0323,8.1093,8.1093,8.1093,8.1093,8.1093,8.1093,8.1093,0.0,0.0,0.0,0.0,0.0,0.0,0.0,0.0,0.0,0.0,0.0,0.0,0.0,0.0,0.0,0.0,0.0,0.0,5.3225,5.3739,5.4032,5.4032,5.4803,5.5757,5.6895,5.9061,5.9612,5.851,6.0089,6.1006,6.1227,6.1227,6.1227,6.119,6.0052,5.9428,5.9171,5.8621,5.8217,5.8033,5.8621,5.8841,5.8914,0.0,0.0,0.0,0.0,0.0,0.0,0.0,0.0,0.0,6.2438,6.2622,6.2805,6.2805,6.2805,6.2805,6.2805,6.3652,0.0,0.0,0.0,0.0,0.0,0.0,0.0,0.0,0.0,0.0,0.0,0.0,0.0,0.0,0.0,0.0,0.0,0.0,0.0,0.0,0.0,0.0,0.0,0.0,7.6015,7.6015,7.6015,7.6015,7.6015,7.6015,7.6015,7.5985,7.6694,7.7361,7.7976,7.9089,7.9934,8.0542,8.0876,8.076,8.0261,8.0292,8.0292,8.0292,8.0323,8.0477,8.0708,8.0708,8.0862,8.1093,8.1093,8.1093,8.1093,8.1093,8.1093,8.1093,0.0,0.0,0.0,0.0,0.0,0.0,0.0,0.0,0.0,0.0,0.0,0.0,0.0,0.0,0.0,0.0,0.0,0.0,0.0,5.4142,5.4546,5.484,5.5941,5.7446,5.9391,6.086,6.1263,6.0639,6.1594,6.1924,6.1594,6.1594,6.1263,6.0603,5.9648,5.9024,5.8731,5.8547,5.8474,5.8547,5.9355,5.9685,5.9758,0.0,0.0,0.0,0.0,0.0,0.0,0.0,0.0,0.0,6.2805,6.2805,6.2805,6.2805,6.2805,6.2928,6.3419,0.0,0.0,0.0,0.0,0.0,0.0,0.0,0.0,0.0,0.0,0.0,0.0,0.0,0.0,0.0,0.0,0.0,0.0,0.0,0.0,0.0,0.0,0.0,0.0,7.6015,7.6015,7.6015,7.6015,7.6015,7.6015,7.6015,7.6015,7.6015,7.707,7.7916,7.8423,7.9646,8.0491,8.0991,8.1061,8.1093,8.1093,8.1093,8.1093,8.1093,8.1093,8.1093,8.1093,8.1093,8.1093,8.1093,8.1093,8.1093,8.1093,8.1093,8.1093,8.1093,0.0,0.0,0.0,0.0,0.0,0.0,0.0,0.0,0.0,0.0,0.0,0.0,0.0,0.0,0.0,0.0,0.0,0.0,0.0,0.0,5.4987,5.5757,5.7409,5.9355,6.1557,6.1667,6.2071,6.2805,6.2732,6.2328,6.1594,6.1447,6.0603,5.9208,5.9134,5.8731,5.8143,5.8914,5.9245,5.9391,6.0199,6.0529,6.0529,6.0603,0.0,0.0,0.0,0.0,0.0,0.0,0.0,0.0,6.2805,6.2805,6.2805,6.2805,6.2842,6.326,0.0,0.0,0.0,0.0,0.0,0.0,0.0,0.0,0.0,0.0,0.0,0.0,0.0,0.0,0.0,0.0,0.0,0.0,0.0,0.0,0.0,0.0,0.0,0.0,7.6015,7.6015,7.6015,7.6015,7.6015,7.6015,7.6015,7.6015,7.6015,7.6015,7.763,7.8477,7.8477,8.0208,8.1093,8.1093,8.1093,8.1093,8.1093,8.1093,8.1093,8.1093,8.1093,8.1093,8.1093,8.1093,8.1093,8.1093,8.1093,8.1093,8.1093,8.1093,8.1093,8.1093,0.0,0.0,0.0,0.0,0.0,0.0,0.0,0.0,0.0,0.0,0.0,0.0,0.0,0.0,0.0,0.0,0.0,0.0,0.0,0.0,5.6638,5.7446,5.9612,6.108,6.1594,6.2218,6.2658,6.2805,6.2181,6.1777,6.1557,6.0309,5.9538,5.9171,5.8547,5.851,5.8951,5.9134,5.9575,6.0236,6.1006,6.1337,6.141,6.2034,6.2401,0.0,0.0,0.0,0.0,0.0,0.0,0.0,6.2805,6.2805,6.2805,6.2805,6.3505,6.4364,0.0,0.0,0.0,0.0,0.0,0.0,0.0,0.0,0.0,0.0,0.0,0.0,0.0,0.0,0.0,0.0,0.0,0.0,0.0,0.0,0.0,0.0,0.0,0.0,7.6015,7.6015,7.6015,7.6015,7.6015,7.6015,7.6015,7.6015,7.6015,7.6015,7.763,7.8477,7.8477,8.0208,8.1093,8.1093,8.1093,8.1093,8.1093,8.1093,8.1093,8.1093,8.1093,8.1093,8.1093,8.1093,8.1093,8.1093,8.1093,8.1093,8.1093,8.1093,8.1093,8.1093,0.0,0.0,0.0,0.0,0.0,0.0,0.0,0.0,0.0,0.0,0.0,0.0,0.0,0.0,0.0,0.0,0.0,0.0,0.0,0.0,5.807,5.9648,6.0933,6.1777,6.2181,6.2585,6.2622,6.2218,6.141,6.1043,0.0,5.9795,5.8988,5.8621,5.8584,5.8804,5.9281,6.0015,6.0603,6.1043,6.1851,6.2181,6.2218,6.2658,6.2805,6.2805,6.2805,0.0,0.0,0.0,0.0,0.0,0.0,0.0,6.2879,6.3319,6.3886,6.4668,0.0,0.0,0.0,0.0,0.0,0.0,0.0,0.0,0.0,0.0,0.0,0.0,0.0,0.0,0.0,0.0,0.0,0.0,0.0,0.0,0.0,0.0,0.0,7.6015,7.6015,7.6015,7.6015,7.6015,7.6015,7.6015,7.6015,7.6015,7.6015,7.6015,7.763,7.8477,7.8477,8.0208,8.1093,8.1093,8.1093,8.1093,8.1093,8.1093,8.1093,8.1093,8.1093,8.1093,8.1093,8.1093,8.1093,8.1093,8.1093,8.1093,8.1093,8.1093,8.1093,8.1093,0.0,0.0,0.0,0.0,0.0,0.0,0.0,0.0,0.0,0.0,0.0,0.0,0.0,0.0,0.0,0.0,0.0,0.0,0.0,0.0,0.0,6.1629,6.1789,6.2108,6.2805,6.2658,6.2291,6.1594,6.0676,0.0,0.0,0.0,0.0,5.8253,5.9061,5.9501,5.9722,6.1043,6.1667,6.1851,6.2548,6.2805,6.2805,6.2805,6.2805,6.2805,6.2805,6.2805,6.2805,6.2805,0.0,0.0,0.0,0.0,6.3209,6.4053,6.4485,6.5103,0.0,0.0,0.0,0.0,0.0,0.0,0.0,0.0,0.0,0.0,0.0,0.0,0.0,0.0,0.0,0.0,0.0,0.0,0.0,0.0,0.0,0.0,0.0,7.6015,7.6015,7.6015,7.6015,7.6015,7.6015,7.6015,7.6015,7.6015,7.6015,7.6015,7.763,7.8477,7.8477,8.0208,8.1093,8.1093,8.1093,8.1093,8.1093,8.1093,8.1093,8.1093,8.1093,8.1093,8.1093,8.1093,8.1093,8.1093,8.1093,8.1093,8.1093,8.1093,8.1093,8.1093,0.0,0.0,0.0,0.0,0.0,0.0,0.0,0.0,0.0,0.0,0.0,0.0,0.0,0.0,0.0,0.0,0.0,0.0,5.8841,0.0,0.0,6.2175,6.2498,6.2695,6.2805,6.2108,6.1704,6.1594,0.0,0.0,0.0,0.0,0.0,5.9098,0.0,0.0,6.13,6.152,6.1998,6.2658,6.2768,6.2805,6.2805,6.2805,6.2805,6.2805,6.2805,6.2805,6.2805,6.2805,6.2805,0.0,0.0,0.0,6.409,6.4897,6.5952,6.6861,0.0,0.0,0.0,0.0,0.0,0.0,0.0,0.0,0.0,0.0,0.0,0.0,0.0,0.0,0.0,0.0,0.0,0.0,0.0,0.0,0.0,0.0,7.6015,7.6015,7.6015,7.6015,7.6015,7.6015,7.6015,7.6015,7.6015,7.6015,7.6015,7.6015,7.763,7.8477,7.8477,8.0208,8.1093,8.1093,8.1093,8.1093,8.1093,8.1093,8.1093,8.1093,8.1093,8.1093,8.1093,8.1093,8.1093,8.1093,8.1093,8.1093,8.1093,8.1093,8.1093,8.1093,0.0,0.0,0.0,0.0,0.0,0.0,0.0,0.0,0.0,0.0,0.0,0.0,0.0,0.0,0.0,5.8033,5.8474,5.9208,6.0456,6.1678,6.2406,6.2556,6.253,6.2398,6.2108,6.1587,6.1283,6.132,0.0,0.0,0.0,6.1241,6.0789,0.0,0.0,0.0,0.0,0.0,0.0,6.2805,6.2805,6.2953,6.3158,6.2904,6.2965,6.3194,6.3456,6.3539,6.3613,6.4053,6.42,6.4273,6.464,0.0,0.0,0.0,6.6338,0.0,0.0,0.0,0.0,0.0,0.0,0.0,0.0,0.0,0.0,0.0,0.0,0.0,0.0,0.0,0.0,0.0,0.0,0.0,0.0,0.0,0.0,7.6015,7.6015,7.6015,7.6015,7.6015,7.6015,7.6015,7.6015,7.6015,7.6015,7.6015,7.6015,7.6015,7.763,7.8477,7.8477,8.0208,8.1093,8.1093,8.1093,8.1093,8.1093,8.1093,8.1093,8.1093,8.1093,8.1093,8.1093,8.1093,8.1093,8.1093,8.1093,8.1093,8.1093,8.1093,8.1093,8.1093,0.0,0.0,0.0,0.0,0.0,0.0,0.0,0.0,0.0,0.0,0.0,0.0,0.0,0.0,0.0,0.0,5.9973,6.0654,6.2011,6.2487,6.2673,6.253,6.2168,6.19,6.175,6.1308,6.1193,0.0,0.0,0.0,6.1995,6.2749,6.247,0.0,6.2345,0.0,0.0,0.0,0.0,0.0,6.311,6.3262,6.3527,6.3474,6.3688,6.4033,6.4413,6.4549,6.4659,6.5132,6.5301,6.5338,6.5558,6.5595,0.0,0.0,0.0,0.0,0.0,0.0,0.0,0.0,0.0,0.0,0.0,0.0,0.0,0.0,0.0,0.0,0.0,0.0,0.0,0.0,0.0,0.0,0.0,0.0,0.0,7.6015,7.6015,7.6015,7.6015,7.6015,7.6015,7.6015,7.6015,7.6015,7.6015,7.6015,7.6015,7.6015,7.763,7.8477,7.8477,8.0208,8.1093,8.1093,8.1093,8.1093,8.1093,8.1093,8.1093,8.1093,8.1093,8.1093,8.1093,8.1093,8.1093,8.1093,8.1093,8.1093,8.1093,8.1093,8.1093,8.1093,0.0,0.0,0.0,0.0,0.0,0.0,0.0,0.0,0.0,0.0,0.0,0.0,5.8471,5.9255,6.0072,6.0964,6.2051,6.2899,6.3345,6.2694,6.2103,6.1766,6.1326,0.0,6.222,6.1484,0.0,0.0,0.0,0.0,6.2859,6.331,6.3689,6.3903,6.3981,6.3771,6.3416,0.0,0.0,0.0,0.0,6.3846,6.361,6.4828,6.5295,6.5328,6.5791,6.5905,6.5811,6.5419,6.5301,6.5448,6.6219,6.6439,6.6586,0.0,0.0,0.0,0.0,0.0,0.0,0.0,0.0,0.0,0.0,0.0,0.0,0.0,0.0,0.0,0.0,0.0,0.0,0.0,0.0,0.0,0.0,0.0,7.6015,7.6015,7.6015,7.6015,7.6015,7.6015,7.6015,7.6015,7.6015,7.6015,7.6015,7.6015,7.6015,7.6015,7.763,7.8477,7.8477,8.0208,8.1093,8.1093,8.1093,8.1093,8.1093,8.1093,8.1093,8.1093,8.1093,8.1093,8.1093,8.1093,8.1093,8.1093,8.1093,8.1093,8.1093,8.1093,8.1093,8.1093,0.0,0.0,0.0,0.0,0.0,0.0,0.0,0.0,0.0,0.0,0.0,0.0,0.0,6.0112,6.0479,6.1044,6.1507,6.1868,6.2259,6.2787,6.2899,6.2482,6.2598,6.2672,6.2657,6.2146,0.0,0.0,0.0,6.3693,6.4491,6.4698,6.4681,6.452,6.452,6.4292,6.3892,6.4016,0.0,0.0,0.0,0.0,0.0,0.0,0.0,0.0,0.0,0.0,0.0,6.7197,6.7082,6.688,6.7173,6.7247,6.732,6.7614,6.7687,6.781,6.8247,0.0,0.0,0.0,0.0,0.0,0.0,0.0,0.0,0.0,0.0,0.0,0.0,0.0,0.0,0.0,0.0,0.0,0.0,0.0,7.6015,7.6015,7.6015,7.6015,7.6015,7.6015,7.6015,7.6015,7.6015,7.6015,7.6015,7.6015,7.6015,7.6015,7.763,7.9015,8.0169,8.0785,8.1093,8.1093,8.1093,8.1093,8.1093,8.1093,8.1093,8.1093,8.1093,8.1093,8.1093,8.1093,8.1093,8.1093,8.1093,8.1093,8.1093,8.1093,8.1093,8.1093,0.0,0.0,0.0,0.0,0.0,0.0,0.0,0.0,0.0,0.0,0.0,0.0,0.0,0.0,6.1092,6.2032,6.1868,6.1908,6.2444,6.3151,6.3305,6.2749,6.3003,6.3151,6.3126,0.0,0.0,0.0,0.0,0.0,0.0,0.0,6.5252,6.5019,6.5019,6.4775,0.0,0.0,0.0,6.4821,0.0,0.0,6.6518,0.0,0.0,0.0,0.0,0.0,0.0,0.0,0.0,0.0,0.0,0.0,6.7915,6.7741,6.7687,6.7794,6.8084,0.0,0.0,0.0,0.0,0.0,0.0,0.0,0.0,0.0,0.0,0.0,0.0,0.0,0.0,0.0,0.0,0.0,0.0,7.6015,7.6015,7.6015,7.6015,7.6015,7.6015,7.6015,7.6015,7.6015,7.6015,0.0,7.6015,7.6015,7.6245,7.6823,7.79,7.9323,8.1093,8.1093,8.1093,8.1093,8.1093,8.1093,8.1093,8.1093,8.1093,8.1093,8.1093,8.1093,8.1093,8.1093,8.1093,8.1093,8.1093,8.1093,8.1093,8.1093,8.1093,8.1093,0.0,0.0,0.0,0.0,0.0,0.0,0.0,0.0,0.0,5.9328,0.0,0.0,0.0,0.0,0.0,6.397,6.3345,6.3237,6.4123,6.3764,6.3145,6.2383,6.2383,6.2762,6.363,0.0,0.0,0.0,0.0,0.0,0.0,0.0,6.5413,0.0,6.5452,6.5226,6.4996,0.0,6.6445,6.6173,0.0,6.7702,6.7501,0.0,0.0,0.0,6.9731,6.9889,0.0,0.0,0.0,0.0,0.0,0.0,0.0,6.781,6.7687,6.7741,0.0,0.0,0.0,0.0,0.0,0.0,0.0,0.0,0.0,0.0,0.0,0.0,0.0,0.0,0.0,0.0,0.0,0.0,0.0,7.6015,7.6015,7.6015,7.6015,7.6015,7.6015,7.6015,7.6015,7.6015,7.6015,7.6015,7.6015,7.6015,7.6746,7.84,7.8477,7.9323,8.1054,8.1093,8.1093,8.1093,8.1093,8.1093,8.1093,8.1093,8.1093,8.1093,8.1093,8.1093,8.1093,8.1093,8.1093,8.1093,8.1093,8.1093,8.1093,8.1093,8.1093,8.1093,0.0,0.0,0.0,0.0,0.0,0.0,0.0,5.9726,5.9904,0.0,0.0,0.0,6.1317,6.1652,6.2287,6.3168,6.2511,6.2405,6.3206,6.346,6.3584,6.3688,6.4222,6.4679,6.4908,0.0,0.0,0.0,0.0,0.0,6.5413,6.5413,0.0,0.0,6.633,6.6574,6.7044,6.6796,0.0,0.0,6.8438,6.8814,0.0,0.0,0.0,0.0,0.0,7.0243,0.0,0.0,6.9549,6.9143,0.0,0.0,0.0,6.781,6.7967,6.8235,6.8235,0.0,0.0,0.0,0.0,0.0,7.0748,7.0898,0.0,0.0,0.0,0.0,0.0,0.0,0.0,0.0,0.0,0.0,7.5745,7.6015,7.6015,7.6015,7.6015,7.6015,7.6015,7.6015,7.6015,0.0,7.6015,7.6015,7.6015,7.6015,7.6515,7.7592,7.8207,7.9015,8.0169,8.0785,8.1093,8.1093,8.1093,8.1093,8.1093,8.1093,8.1093,8.1093,8.1093,8.1093,8.1093,8.1093,8.1093,8.1093,8.1093,8.1093,8.1093,8.1093,8.1093,8.1093,0.0,0.0,0.0,0.0,0.0,0.0,5.9744,6.0172,6.0449,0.0,0.0,0.0,6.2166,6.2268,6.2623,6.3359,6.3041,6.309,6.3894,6.4229,6.4464,6.4688,6.5146,6.5413,6.5413,6.5444,0.0,0.0,0.0,6.5444,6.5413,6.5757,6.6216,0.0,0.0,0.0,0.0,0.0,0.0,0.0,6.9419,0.0,0.0,7.0425,7.0678,0.0,0.0,0.0,7.0342,7.0369,7.0137,0.0,0.0,0.0,0.0,0.0,0.0,0.0,0.0,0.0,0.0,0.0,0.0,0.0,7.0805,7.0898,7.0898,0.0,0.0,0.0,0.0,0.0,0.0,0.0,0.0,7.3553,7.5207,7.5784,7.6015,7.6015,7.6015,7.6015,7.6015,7.6015,7.6015,7.6015,7.6015,7.6015,7.6015,7.6015,7.6399,7.7284,7.7746,7.8592,7.9785,8.0285,8.0746,8.1093,8.1093,8.1093,8.1093,8.1093,8.1093,8.1093,8.1093,8.1093,8.1093,8.1093,8.1093,8.1093,8.1093,8.1093,8.1093,8.1093,8.1093,8.1093,0.0,0.0,0.0,6.0408,6.0408,6.0408,6.0523,6.1134,6.1363,0.0,6.1975,6.293,6.3045,6.2788,6.3061,6.4229,6.4364,6.47,6.5367,6.5413,6.5405,6.5444,6.5444,6.5444,6.5444,6.5465,6.5465,6.5413,6.558,6.5618,6.5566,6.6445,6.6865,6.7018,0.0,0.0,0.0,0.0,0.0,6.9457,7.0247,7.0585,0.0,0.0,7.0737,0.0,7.0787,7.0815,7.0815,7.0871,7.0815,0.0,0.0,0.0,0.0,0.0,6.9176,0.0,0.0,0.0,0.0,0.0,0.0,0.0,7.0871,7.0898,7.0898,7.0898,0.0,0.0,0.0,0.0,0.0,0.0,0.0,7.2783,7.4476,7.5361,7.5899,7.5976,7.6015,7.6015,7.6015,7.6015,7.6015,7.6015,7.6015,7.6015,7.6015,7.6015,7.6361,7.713,7.7246,7.8015,7.9515,7.9708,8.0208,8.0977,8.1054,8.1093,8.1093,8.1093,8.1093,8.1093,8.1093,8.1093,8.1093,8.1093,8.1093,8.1093,8.1093,8.1093,8.1093,8.1093,8.1093,8.1093,6.0408,0.0,0.0,0.0,6.0408,6.0599,6.1287,6.1516,6.1784,6.2357,6.2701,6.3188,6.3934,6.3923,6.4199,6.5108,6.5176,6.5282,6.5465,6.5465,6.5494,6.5552,6.5552,6.5552,6.5552,6.558,6.5552,6.5465,6.6221,6.6536,6.6445,6.7286,6.805,6.8699,0.0,0.0,0.0,0.0,0.0,7.0324,7.0547,0.0,7.0708,7.0729,7.0815,7.0871,7.0871,7.0871,7.0871,0.0,7.0787,7.0699,0.0,0.0,0.0,0.0,0.0,0.0,0.0,0.0,0.0,0.0,0.0,0.0,7.0871,7.0898,7.0898,0.0,0.0,0.0,0.0,0.0,0.0,0.0,0.0,7.2783,7.4476,7.4861,7.5207,7.5938,7.6015,7.6015,7.6015,7.6015,7.6015,7.6015,7.6015,7.6015,7.6015,7.6015,7.6092,7.6245,7.6938,7.7438,7.7784,7.9131,7.99,8.0054,8.0746,8.1093,8.1093,8.1093,8.1093,8.1093,8.1093,8.1093,8.1093,8.1093,8.1093,8.1093,8.1093,8.1093,8.1093,8.1093,8.1093,8.1093,6.0408,0.0,0.0,0.0,6.0981,6.1287,6.2128,6.2242,6.2433,6.2853,6.3303,6.3906,6.4805,6.4949,6.513,6.5456,6.5561,6.559,6.5552,6.5552,6.5552,6.5608,6.5608,6.58,6.626,6.6288,6.6451,6.6795,6.7276,6.7446,6.7324,6.8158,6.8839,0.0,0.0,0.0,0.0,0.0,7.0451,7.0585,7.0616,0.0,7.0729,7.0815,7.0871,7.0898,7.0898,7.0898,7.0898,7.0871,7.0815,0.0,0.0,7.0375,7.031,0.0,7.0137,7.0315,0.0,0.0,0.0,7.0758,0.0,0.0,0.0,7.0898,7.0898,7.0898,0.0,0.0,0.0,0.0,0.0,7.0898,7.1283,7.2014,7.3283,7.3822,7.4399,7.5245,7.5361,7.5515,7.5976,7.6015,7.6015,7.6015,7.6015,7.6015,7.6015,7.6015,7.6015,7.6015,7.6438,7.6861,7.7284,7.8515,7.9361,7.9823,8.0669,8.1093,8.1093,8.1093,8.1093,8.1093,8.1093,8.1093,8.1093,8.1093,8.1093,8.1093,8.1093,8.1093,8.1093,8.1093,8.1093,8.1093,6.0637,0.0,0.0,0.0,6.186,6.2128,6.3006,6.3159,6.3197,6.3379,6.4087,6.4795,6.5446,6.5674,6.5701,6.5608,6.5701,6.5778,6.5866,6.5866,6.5942,6.6134,6.6134,6.6479,6.7198,6.7253,6.7543,6.8127,6.8339,6.8348,6.8196,6.9138,0.0,0.0,0.0,0.0,0.0,0.0,0.0,7.0647,0.0,7.0729,7.0787,7.0871,7.0898,7.0898,7.0898,7.0898,7.0898,7.0898,0.0,7.0815,7.0815,7.0758,0.0,0.0,0.0,0.0,0.0,0.0,0.0,0.0,0.0,7.0898,0.0,0.0,0.0,0.0,0.0,0.0,0.0,0.0,0.0,0.0,0.0,0.0,0.0,7.2552,0.0,7.4361,7.463,7.4976,7.5668,7.5899,7.6015,7.6015,7.6015,7.6015,7.6015,7.6015,7.6015,7.6015,7.6015,7.6322,7.7053,7.7861,7.8631,7.9323,8.0362,8.0862,8.0862,8.1016,8.1093,8.1093,8.1093,8.1093,8.1093,8.1093,8.1093,8.1093,8.1093,8.1093,8.1093,8.1093,8.1093,8.1093,6.1631,6.2089,0.0,0.0,6.2739,6.3045,6.3923,6.4038,6.4335,6.5082,6.536,6.5465,0.0,0.0,0.0,0.0,0.0,0.0,6.6765,0.0,6.7203,6.8064,6.8102,6.8141,6.8218,6.8218,6.8241,6.8177,6.8905,6.9191,6.9169,7.0049,0.0,0.0,7.0631,0.0,0.0,0.0,7.0699,0.0,7.0787,7.0787,0.0,7.0871,7.0898,7.0898,7.0898,7.0898,7.0898,0.0,7.0898,7.0898,0.0,7.0871,7.0871,0.0,0.0,0.0,0.0,0.0,0.0,0.0,7.0898,0.0,0.0,0.0,7.0898,7.0898,0.0,0.0,0.0,0.0,0.0,0.0,0.0,0.0,7.1014,7.1129,7.1783,7.3437,7.4284,7.4745,7.4861,7.5553,7.6015,7.6015,7.6015,7.6015,7.6015,7.6015,7.6015,7.6015,7.6015,7.6053,7.613,7.7015,7.7476,7.7592,7.9208,7.9939,7.9977,8.0746,8.1093,8.1093,8.1093,8.1093,8.1093,8.1093,8.1093,8.1093,8.1093,8.1093,8.1093,8.1093,8.1093,8.1093,6.2548,6.2662,0.0,0.0,6.3685,6.3982,6.4853,6.4996,6.514,6.5513,6.6057,0.0,0.0,0.0,0.0,0.0,0.0,6.7395,0.0,0.0,6.7987,6.8398,6.8398,6.8629,6.9129,6.9167,6.9344,6.9721,7.0038,7.0162,7.0141,7.0516,0.0,0.0,7.0758,0.0,7.0767,0.0,0.0,0.0,0.0,0.0,0.0,7.0898,7.0898,7.0898,7.0898,7.0898,7.0898,0.0,7.0898,0.0,0.0,0.0,0.0,0.0,0.0,0.0,0.0,0.0,0.0,0.0,0.0,0.0,7.0898,0.0,7.0898,0.0,0.0,0.0,0.0,0.0,0.0,0.0,7.0898,0.0,0.0,0.0,7.136,0.0,0.0,0.0,7.463,7.5014,7.5476,7.5976,7.6015,7.6015,7.6015,7.6015,7.6015,7.6015,7.6015,7.6015,7.6015,7.6861,7.7284,7.7323,7.8477,7.9323,7.9823,8.0169,8.0631,8.1093,8.1093,8.1093,8.1093,8.1093,8.1093,8.1093,8.1093,8.1093,8.1093,8.1093,8.1093,8.1093,6.3732,0.0,0.0,0.0,0.0,0.0,0.0,0.0,0.0,0.0,0.0,0.0,6.7395,6.7987,0.0,0.0,0.0,6.8513,0.0,0.0,6.8859,0.0,0.0,0.0,0.0,7.0014,7.0294,7.0787,7.0787,7.0758,7.0737,7.0758,7.0815,0.0,0.0,7.0815,7.0815,0.0,0.0,7.0815,7.0815,7.0843,7.0898,7.0898,7.0898,7.0898,7.0898,7.0898,7.0898,7.0898,7.0898,0.0,7.0898,0.0,0.0,0.0,0.0,0.0,7.0898,0.0,0.0,0.0,0.0,0.0,0.0,0.0,0.0,0.0,0.0,0.0,0.0,0.0,0.0,0.0,0.0,7.0898,0.0,7.0898,0.0,0.0,0.0,0.0,0.0,7.4591,7.4976,7.5592,7.5861,7.6015,7.6015,7.6015,7.6015,7.6015,7.6015,7.6015,7.6015,7.663,7.6938,7.6938,7.7784,7.8515,7.9131,7.9592,8.0169,8.0746,8.1016,8.1093,8.1093,8.1093,8.1093,8.1093,8.1093,8.1093,8.1093,8.1093,8.1093,8.1093,6.5337,6.5359,0.0,0.0,0.0,0.0,0.0,0.0,0.0,0.0,0.0,0.0,0.0,0.0,0.0,0.0,0.0,6.8783,6.959,0.0,7.0014,0.0,0.0,7.0821,0.0,0.0,7.0832,7.0787,7.0787,7.0787,0.0,7.0787,7.0815,7.0898,0.0,7.0898,7.0898,7.0898,7.0898,7.0898,7.0898,7.0898,7.0898,0.0,7.0898,7.0898,7.0898,0.0,0.0,7.0898,7.0898,0.0,0.0,0.0,0.0,0.0,0.0,0.0,0.0,0.0,0.0,7.0898,0.0,0.0,0.0,0.0,7.0898,0.0,0.0,0.0,0.0,0.0,0.0,0.0,0.0,0.0,0.0,0.0,0.0,0.0,0.0,0.0,0.0,7.4245,7.4707,7.4745,7.5515,7.6015,7.6015,7.6015,7.6015,7.6015,7.6015,7.6015,7.6015,7.6015,7.6053,7.6053,7.6899,7.7361,7.7438,7.9054,7.9823,7.99,8.0746,8.1093,8.1093,8.1093,8.1093,8.1093,8.1093,8.1093,8.1093,8.1093,8.1093,8.1093,0.0,0.0,0.0,0.0,0.0,0.0,0.0,6.7345,0.0,0.0,0.0,0.0,0.0,0.0,7.0052,0.0,0.0,7.0167,7.0475,7.0475,0.0,0.0,0.0,7.0898,0.0,0.0,0.0,0.0,0.0,0.0,0.0,0.0,0.0,0.0,0.0,7.0898,0.0,0.0,0.0,0.0,0.0,7.0898,7.0898,0.0,0.0,7.0898,7.0898,7.0898,0.0,7.0898,7.0898,7.0898,7.0898,7.0898,7.0898,7.0898,7.0898,0.0,0.0,0.0,7.0898,7.0898,0.0,0.0,0.0,0.0,0.0,0.0,0.0,0.0,0.0,0.0,0.0,0.0,0.0,0.0,0.0,0.0,0.0,0.0,0.0,0.0,0.0,0.0,7.413,7.4668,7.5515,7.6015,7.6015,7.6015,7.6015,7.6015,7.6015,7.6015,7.6015,7.6015,7.6015,7.6015,7.6284,7.6746,7.7323,7.79,7.8746,7.9823,8.0131,8.0554,8.1093,8.1093,8.1093,8.1093,8.1093,8.1093,8.1093,8.1093,8.1093,8.1093,6.6413,0.0,0.0,0.0,0.0,0.0,0.0,0.0,0.0,0.0,6.959,0.0,7.0129,0.0,7.0898,0.0,7.0898,7.0898,7.0898,7.0898,0.0,7.0898,7.0898,0.0,0.0,0.0,0.0,0.0,0.0,7.0898,0.0,0.0,0.0,0.0,0.0,0.0,0.0,0.0,7.0898,0.0,0.0,7.0898,0.0,0.0,7.0898,7.0898,0.0,7.0898,7.0898,7.0898,7.0898,7.0898,7.0898,7.0898,7.0898,7.0898,7.0898,7.0898,7.0898,7.0898,0.0,7.0898,7.0898,0.0,7.0898,0.0,0.0,0.0,0.0,0.0,0.0,0.0,0.0,0.0,0.0,0.0,0.0,7.0898,0.0,7.0898,7.0898,0.0,0.0,7.2514,7.3399,7.4207,7.5053,7.5668,7.5976,7.6015,7.6015,7.6015,7.6015,7.6015,7.6015,7.6015,7.6015,7.6015,7.6015,7.6284,7.6861,7.7169,7.8054,7.9361,7.9669,8.0285,8.1093,8.1093,8.1093,8.1093,8.1093,8.1093,8.1093,8.1093,8.1093,8.1093,0.0,0.0,0.0,0.0,6.7883,0.0,0.0,0.0,6.9744,0.0,7.0437,7.0898,7.0898,7.0898,7.0898,7.0898,7.0898,0.0,7.0898,7.0898,0.0,0.0,7.0898,7.0898,7.0898,0.0,0.0,0.0,0.0,0.0,0.0,0.0,0.0,0.0,7.0898,0.0,7.0898,7.0898,7.0898,7.0898,7.0898,7.0898,7.0898,7.0898,7.0898,7.0898,7.0898,7.0898,7.0898,7.0898,7.0937,7.0975,7.0975,7.0975,7.1014,7.1014,7.1014,7.1014,7.1014,7.1014,7.1014,7.1014,7.1014,0.0,0.0,0.0,7.1014,0.0,0.0,0.0,0.0,0.0,0.0,0.0,0.0,0.0,0.0,0.0,7.0898,7.0898,7.0898,7.0898,7.0898,7.1668,7.2552,7.3437,7.4245,7.5091,7.5938,7.6015,7.6015,7.6015,7.6015,7.6015,7.6015,7.6015,7.6015,7.6015,7.6015,7.6015,7.6015,7.6861,7.7707,7.8554,7.9361,8.0246,8.1093,8.1093,8.1093,8.1093,8.1093,8.1093,8.1093,8.1093,8.1093,8.1093,6.8148,6.8743,6.9365,0.0,6.9629,6.936,0.0,0.0,0.0,0.0,7.0783,7.0898,7.0898,7.0898,7.0898,7.0898,7.0898,0.0,0.0,0.0,0.0,7.0898,7.0898,7.0898,7.0898,7.0898,0.0,7.0898,0.0,0.0,7.0898,0.0,0.0,0.0,0.0,0.0,7.0898,7.0898,7.0898,7.0898,7.0898,7.0898,0.0,0.0,7.0898,7.0898,7.0898,7.0898,7.0898,7.0898,7.1321,7.186,7.186,7.2322,7.2822,7.2822,7.2822,7.2822,7.2822,7.2822,7.2822,7.2822,7.2822,7.2822,0.0,0.0,0.0,0.0,0.0,0.0,0.0,0.0,0.0,0.0,0.0,0.0,0.0,0.0,0.0,7.0898,7.0898,7.0898,7.0898,7.1668,7.2552,7.3437,7.4245,7.5091,7.5938,7.6015,7.6015,7.6015,7.6015,7.6015,7.6015,7.6015,7.6015,7.6015,7.6015,7.6015,7.6015,7.6245,7.713,7.8515,7.8746,7.9708,8.1093,8.1093,8.1093,8.1093,8.1093,8.1093,8.1093,8.1093,8.1093,8.1093,6.9347,0.0,0.0,7.0821,0.0,0.0,7.0206,0.0,0.0,7.0898,7.0898,0.0,7.0898,7.0898,7.0898,7.0898,7.0898,0.0,7.0898,0.0,0.0,7.0898,7.0898,7.0898,7.0898,7.0898,0.0,7.0898,0.0,0.0,7.0898,0.0,0.0,0.0,0.0,7.0898,0.0,7.0898,7.0898,7.0898,7.0898,0.0,0.0,7.1321,7.1475,7.1514,7.1898,7.1783,7.1514,7.1898,7.236,7.2783,7.2783,7.3129,7.3514,7.3514,7.3514,7.3514,7.3514,7.3514,7.3514,7.3514,7.3514,7.3514,7.3514,7.3514,7.3514,0.0,7.3514,7.3514,0.0,0.0,0.0,0.0,0.0,0.0,0.0,0.0,0.0,0.0,7.0898,7.0898,7.0898,7.1321,7.1975,7.286,7.3707,7.4553,7.5399,7.5784,7.6015,7.6015,7.6015,7.6015,7.6015,7.6015,7.6015,7.6015,7.6015,7.6015,7.6015,7.6015,7.6899,7.8477,7.8477,7.9477,8.1093,8.1093,8.1093,8.1093,8.1093,8.1093,8.1093,8.1093,8.1093,8.1093,0.0,0.0,0.0,0.0,0.0,0.0,0.0,7.0898,0.0,7.0898,0.0,7.0898,7.0898,7.0898,7.0898,7.0898,0.0,7.0898,7.0898,7.0898,7.0898,7.0898,7.0898,7.0898,7.0898,7.0898,0.0,0.0,0.0,0.0,0.0,0.0,0.0,0.0,0.0,0.0,0.0,7.0898,7.0898,7.0898,7.1014,7.1052,7.1168,7.2052,7.236,7.2476,7.336,7.3091,7.2476,7.3245,7.3591,7.3668,7.3668,7.3745,7.3822,7.3822,7.3822,7.3822,7.3822,7.3822,7.3822,7.3822,7.3822,7.3822,7.3822,7.3822,7.3822,7.3822,7.3822,7.3822,0.0,0.0,0.0,0.0,0.0,0.0,0.0,0.0,0.0,0.0,0.0,0.0,7.0898,7.0898,7.1245,7.2129,7.3014,7.386,7.4668,0.0,7.6015,7.6015,7.6015,7.6015,7.6015,7.6015,7.6015,7.6015,7.6015,7.6015,7.6015,7.613,7.7015,7.8515,7.8631,7.9592,8.1093,8.1093,8.1093,8.1093,8.1093,8.1093,8.1093,8.1093,8.1093,8.1093,0.0,0.0,0.0,0.0,0.0,7.0898,7.0898,7.0898,7.0898,7.0898,7.0898,7.0898,7.0898,7.0898,7.0898,7.0898,7.0898,0.0,0.0,0.0,0.0,7.0898,7.0898,7.0898,7.0898,7.0898,7.0898,0.0,0.0,0.0,0.0,0.0,0.0,0.0,0.0,0.0,7.0898,7.0898,0.0,7.0975,7.1668,7.1975,7.2052,7.2937,7.3283,7.3399,7.4207,7.3976,7.3322,7.3437,7.3937,7.4476,7.4476,7.4976,7.5553,7.5553,7.5553,7.5553,7.5553,7.5553,7.5553,7.5553,7.5553,7.5553,7.5553,7.5553,7.5553,7.5553,7.5553,7.5553,7.5553,0.0,0.0,0.0,0.0,0.0,0.0,0.0,0.0,0.0,0.0,7.0898,7.0898,7.0898,7.1245,7.2129,7.3014,7.386,7.4668,0.0,7.6015,0.0,7.6015,7.6015,0.0,0.0,7.6015,7.6015,7.6015,7.6015,7.6015,7.6746,7.7592,7.8515,7.9246,8.0169,8.1093,8.1093,8.1093,8.1093,8.1093,8.1093,8.1093,8.1093,8.1093,8.1093,0.0,0.0,0.0,0.0,0.0,0.0,0.0,7.0898,0.0,7.0898,7.0898,7.0898,7.0898,7.0898,7.0898,7.0898,7.0898,7.0898,7.0898,7.0898,7.0898,7.0898,7.0898,0.0,7.0898,7.0898,7.0898,7.0898,0.0,0.0,7.0898,0.0,0.0,0.0,0.0,7.0898,0.0,0.0,0.0,7.1591,7.2014,7.2476,7.2976,7.3822,7.413,7.4245,7.5091,7.513,7.4822,7.4822,7.5053,7.5361,7.5361,7.5668,7.6015,7.6015,7.6015,7.6015,7.6015,7.6015,7.6015,7.6015,7.6015,7.6015,7.6015,7.6015,7.6015,7.6015,7.6015,7.6015,7.6015,7.5668,0.0,0.0,0.0,0.0,0.0,0.0,0.0,0.0,0.0,0.0,0.0,7.1552,7.1745,7.2168,7.3014,7.386,7.4668,7.5515,7.6015,0.0,0.0,0.0,7.6015,0.0,7.6015,7.6015,7.6015,7.6015,7.6015,7.6899,7.7746,7.8554,7.9438,8.0285,8.1093,8.1093,8.1093,8.1093,8.1093,8.1093,8.1093,8.1093,8.1093,8.1093,0.0,7.0898,0.0,0.0,7.0898,0.0,7.0898,7.0898,7.0898,7.0898,7.0898,7.0898,7.0898,7.0898,7.0898,7.0898,7.0898,7.0898,7.0898,7.0898,7.0898,7.0898,7.0898,7.0898,7.0898,7.0898,7.0898,0.0,0.0,0.0,0.0,7.0898,0.0,0.0,0.0,0.0,0.0,0.0,7.1552,7.2206,7.2591,7.3129,7.386,7.4668,7.4976,7.5091,7.5745,7.6015,7.6015,7.6015,7.6015,7.6015,7.6015,7.6015,7.6015,7.6015,7.6015,7.6015,7.6015,7.6015,7.6015,7.6015,7.6015,7.6015,7.6015,7.6015,7.6015,7.6015,7.6015,7.6015,7.6015,7.6015,0.0,0.0,0.0,0.0,0.0,0.0,0.0,0.0,0.0,0.0,7.2476,7.2476,7.2552,7.2706,7.336,7.4053,7.4668,7.5515,7.6015,7.6015,0.0,7.6015,7.6015,0.0,7.6015,7.6015,7.6015,7.6015,7.6053,7.7092,7.79,7.8554,7.9631,8.0477,8.1093,8.1093,8.1093,8.1093,8.1093,8.1093,8.1093,8.1093,8.1093,8.1093,0.0,0.0,0.0,0.0,0.0,0.0,0.0,7.0898,7.0898,7.0898,7.0898,7.0898,7.0898,7.0898,7.0898,7.0898,7.0898,7.0898,7.0898,7.0898,7.0898,7.0898,7.0898,7.0898,7.0898,7.0898,7.0898,0.0,0.0,7.0898,0.0,0.0,0.0,0.0,0.0,0.0,0.0,7.1745,7.2129,7.2322,7.386,7.4514,7.4668,7.5553,7.5861,7.5899,7.5976,7.6015,7.6015,7.6015,7.6015,7.6015,7.6015,7.6015,7.6015,7.6015,7.6015,7.6015,7.6015,7.6015,7.6015,7.6015,7.6015,7.6015,7.6015,7.6015,7.6015,7.6015,7.6015,7.6015,7.6015,7.6015,7.5976,0.0,0.0,0.0,0.0,0.0,7.4322,7.3591,0.0,0.0,7.3399,7.3399,7.3668,7.4399,7.4553,7.463,7.4707,7.5515,7.6015,7.6015,7.6015,7.6015,7.6015,7.6015,7.6015,7.6015,7.6015,7.6015,7.6053,7.7669,7.8438,7.8592,8.0246,8.1016,8.1093,8.1093,8.1093,8.1093,8.1093,8.1093,8.1093,8.1093,8.1093,8.1093,0.0,0.0,0.0,0.0,0.0,0.0,0.0,7.0898,7.0898,7.0898,7.0898,7.0898,7.0898,7.0898,7.0898,7.0898,7.0898,7.0898,7.0898,7.0898,7.0898,7.0898,7.0898,7.0898,7.0898,7.0898,7.0898,0.0,0.0,0.0,0.0,0.0,0.0,0.0,0.0,7.1668,7.1745,7.2629,7.3245,7.3745,7.4437,7.5014,7.5515,7.5861,7.6015,7.6015,7.6015,7.6015,7.6015,7.6015,7.6015,7.6015,7.6015,7.6015,7.6015,7.6015,7.6015,7.6015,7.6015,7.6015,7.6015,7.6015,7.6015,7.6015,7.6015,7.6015,7.6015,7.6015,7.6015,7.6015,7.6015,7.6015,7.6015,7.6015,0.0,0.0,0.0,0.0,0.0,7.5053,0.0,7.4207,7.4207,7.4207,7.4361,7.4668,7.4707,7.4938,7.5438,7.5822,7.6015,7.6015,0.0,7.6015,7.6015,7.6015,7.6015,7.6015,7.6015,7.6284,7.6823,7.7977,7.9054,8.0092,8.0785,8.1093,8.1093,8.1093,8.1093,8.1093,8.1093,8.1093,8.1093,8.1093,8.1093,8.1093,7.1481,0.0,7.128,0.0,7.117,7.1053,7.1053,7.1053,7.113,7.1424,7.1424,7.1274,7.0964,7.0898,7.0898,7.0898,7.0898,7.0898,7.0898,7.0898,7.0898,7.0898,7.0898,0.0,7.0898,7.0898,7.0898,7.0898,7.0898,0.0,0.0,0.0,0.0,0.0,7.2206,7.2591,7.2629,7.3476,7.4168,7.4707,7.4976,7.5438,7.6015,7.6015,7.6015,7.6015,7.6015,7.6015,7.6015,7.609,7.6079,7.609,7.6005,7.6015,7.6015,7.6015,7.6034,7.6079,7.6079,7.6288,7.6521,7.6521,7.6714,7.6907,7.6907,7.6907,7.6842,7.6531,7.6226,7.6015,7.6015,7.6015,7.6015,7.6015,0.0,0.0,0.0,7.6015,0.0,7.6015,7.5476,7.5091,7.5091,7.5091,7.5091,7.5091,0.0,7.5361,7.5976,7.6015,7.6015,0.0,0.0,0.0,7.6015,7.6015,7.6015,7.6015,7.6245,7.6707,7.7323,7.84,7.9669,8.1093,8.1093,8.1093,8.1093,8.1093,8.1093,8.1093,8.1093,8.1093,8.1093,8.1093,8.1093,8.1093,7.1481,7.1481,7.152,7.152,7.1481,7.1481,7.1481,7.1481,7.1792,7.2569,7.2685,7.2231,7.1029,7.0898,7.0898,7.0898,7.0898,7.0898,7.0898,7.0898,7.0898,0.0,0.0,7.0898,7.0898,7.0898,7.0898,7.0898,0.0,0.0,7.0937,0.0,7.2168,7.2206,7.3091,7.3476,7.3553,7.4361,7.4707,7.4784,7.563,7.5976,7.6015,7.6015,7.6015,7.6015,7.6015,7.6015,7.6034,7.6224,7.632,7.6273,7.6062,7.6015,7.6015,7.6015,7.616,7.632,7.632,7.7038,7.7775,7.7775,7.8435,7.9074,7.9074,7.9074,7.8787,7.7782,7.6739,7.6015,7.6015,7.6015,7.6015,7.6015,0.0,0.0,0.0,7.6015,0.0,7.6015,7.5976,7.5976,7.5976,7.5976,7.5976,0.0,0.0,7.5976,0.0,0.0,0.0,7.6015,7.6015,0.0,7.6015,7.6015,7.6015,7.6015,7.6861,7.7284,7.7361,7.9015,8.0285,8.1093,8.1093,8.1093,8.1093,8.1093,8.1093,8.1093,8.1093,8.1093,8.1093,8.1093,8.1093,8.1093,7.1837,7.1739,7.1641,7.1641,7.2025,7.2336,7.2336,7.2818,7.3285,7.3557,7.3596,7.3428,7.3084,7.3025,7.3025,0.0,7.3025,7.3025,0.0,7.3025,7.3025,7.3025,7.2855,7.28,7.28,7.2738,7.2668,7.2668,0.0,0.0,0.0,7.3073,7.3164,7.3129,7.4115,7.4436,7.4361,7.5245,7.5592,7.563,7.5899,7.6015,7.6015,7.6015,7.6118,7.6199,7.6199,7.6668,7.725,7.7312,7.7739,7.8185,7.8124,7.7715,7.7345,7.7948,7.8145,7.8205,7.8205,7.8437,7.8686,7.8686,7.888,7.9113,7.9113,7.9113,7.9018,7.869,7.8339,7.7905,7.7214,7.7087,7.6842,7.6121,7.6015,0.0,7.6015,0.0,7.6015,7.6015,7.6015,7.6015,7.6015,7.6015,0.0,0.0,0.0,0.0,0.0,0.0,0.0,0.0,7.6015,0.0,7.6015,7.6015,7.6284,7.6899,7.7169,7.79,7.9054,8.0169,8.0823,8.1093,8.1093,8.1093,8.1093,8.1093,8.1093,8.1093,8.1093,8.1093,8.1093,8.1093,8.1093,8.1093,7.2417,7.2385,7.2383,7.2695,7.3114,7.3367,7.3367,7.3847,7.4314,7.4625,7.4664,7.4781,7.5132,7.5171,0.0,7.4078,7.3984,7.3984,7.3984,7.3984,7.3984,7.3984,7.3859,7.38,7.38,7.3728,0.0,7.3674,7.3674,7.3674,7.3674,7.4104,7.4259,7.4239,7.515,7.5469,7.5335,7.5942,7.6173,7.6106,7.6106,7.616,7.6224,7.616,7.6441,7.6841,7.6841,7.7487,7.8297,7.8365,7.8746,7.9267,7.9675,7.9455,7.9,7.907,7.9165,7.9213,7.9213,7.953,7.9806,7.9806,8.0078,8.0312,8.0312,7.9998,7.968,7.968,7.9398,7.8922,7.8279,7.8092,7.7703,7.675,7.6563,7.6361,7.6053,0.0,7.6015,0.0,0.0,0.0,0.0,7.6015,7.6015,0.0,0.0,0.0,0.0,0.0,7.6015,7.6015,7.6015,7.6169,7.6476,7.6476,7.6899,7.7746,7.8092,7.8977,8.0323,8.0862,8.1093,8.1093,8.1093,8.1093,8.1093,8.1093,8.1093,8.1093,8.1093,8.1093,8.1093,8.1093,8.1093,8.1093,7.3236,7.3393,0.0,0.0,7.4564,0.0,7.4603,7.4642,7.4954,7.5774,7.5891,7.6203,7.7023,7.7101,7.6301,7.4398,0.0,0.0,0.0,7.4211,7.4211,7.4211,7.4211,7.4195,7.4195,7.4178,7.4178,7.4178,7.4178,7.4178,7.4217,7.5011,7.5383,7.5422,7.6238,7.6478,7.6327,7.6536,7.6497,7.6305,7.6305,7.6475,7.6669,7.6471,7.7038,7.7926,7.7926,7.847,7.9259,7.9429,7.9544,7.9762,8.079,8.1083,8.086,7.9671,7.9453,7.9583,7.9583,8.0328,8.1083,8.1083,8.1708,8.2293,8.2293,8.1538,8.0803,8.0803,7.9998,7.9304,7.9209,7.9057,7.865,7.7814,7.7549,7.7121,7.6284,7.613,7.6092,7.6092,0.0,0.0,7.6015,7.6015,7.6015,0.0,0.0,0.0,0.0,0.0,7.6053,7.6015,7.6053,7.6476,7.7284,7.7361,7.7784,7.8592,7.9477,8.0323,8.1093,8.1093,8.1093,8.1093,8.1093,8.1093,8.1093,8.1093,8.1093,8.1093,8.1093,8.1093,8.1093,8.1093,8.1093,8.1093,0.0,0.0,7.429,7.4486,7.5032,7.5501,7.5501,7.6047,7.6555,7.6789,7.6789,7.6867,7.7062,7.7101,7.6894,7.6427,7.6388,7.6388,7.6388,7.6388,7.6388,7.6388,7.6231,7.6132,7.6132,7.6031,7.5988,7.5988,7.5988,7.5988,7.6005,7.6324,7.6388,7.6316,7.6597,7.6669,7.6555,7.6591,7.6591,7.6536,7.6536,7.6923,7.7503,7.7466,7.8098,7.9027,7.9027,7.9673,8.0562,8.0626,8.1055,8.1648,8.1897,8.1981,8.1936,8.1624,8.1585,8.1602,8.1602,8.1812,8.1981,8.1981,8.2137,8.2293,8.2293,8.2085,8.1914,8.1914,8.1702,8.1275,8.0494,8.0284,7.9865,7.8712,7.8476,7.8335,7.7968,7.7361,7.6976,0.0,7.6399,7.6015,7.6015,7.6015,7.6015,0.0,0.0,7.6284,7.6938,7.6976,7.6669,7.6015,7.663,7.7092,7.7284,7.79,7.8631,7.9515,8.04,8.09,8.1093,8.1093,8.1093,8.1093,8.1093,8.1093,8.1093,8.1093,8.1093,8.1093,8.1093,8.1093,8.1093,8.1093,8.1093,8.1093,7.5032,7.5071,7.5227,7.5618,7.6086,7.6399,7.6399,7.6789,7.7101,7.7101,7.7101,7.7101,7.7101,7.7101,7.7101,7.7101,7.7101,7.7101,7.7101,7.7101,7.7101,7.7101,7.6981,7.6956,7.6956,7.6866,7.6832,7.6832,7.6832,7.6832,7.6832,7.6897,7.6887,7.6832,7.6897,7.6855,7.6699,7.6807,7.6794,7.6723,7.7127,7.7598,7.8105,7.8401,7.9196,8.0124,8.0124,8.0774,8.1591,8.1591,8.1903,8.2293,8.2293,8.2293,8.2293,8.2293,8.2293,8.2293,8.2293,8.2293,8.2293,8.2293,8.2293,8.2293,8.2293,8.2293,8.2293,8.2293,8.2293,8.2124,8.1538,8.1373,8.092,7.983,7.9498,7.9211,7.8706,7.818,7.7861,7.7861,7.7438,7.713,7.713,7.713,7.713,7.713,7.713,0.0,7.7823,7.7861,7.763,7.7169,7.7592,7.8054,7.8438,7.9285,7.9939,8.04,8.0862,8.1093,8.1093,8.1093,8.1093,8.1093,8.1093,8.1093,8.1093,8.1093,8.1093,8.1093,8.1093,8.1093,8.1093,8.1093,8.1093,8.1093,7.5852,7.6008,7.6242,7.6984,7.7101,7.7101,7.7101,7.7101,7.7101,7.7101,7.7101,7.7101,7.7101,7.7101,7.7101,7.7101,7.7101,7.7101,7.7101,7.7101,7.7101,7.7101,7.7101,7.7101,7.7101,7.7101,7.7101,7.7101,7.7101,7.7101,7.7101,7.7101,7.7101,7.7101,7.7101,7.7028,7.6877,7.7153,7.7184,7.71,7.8007,7.8525,7.8852,7.9403,8.028,8.12,8.12,8.1669,8.2293,8.2293,8.2293,8.2293,8.2293,8.2293,8.2293,8.2293,8.2293,8.2293,8.2293,8.2293,8.2293,8.2293,8.2293,8.2293,8.2293,8.2299,8.2299,8.2299,8.2299,8.2299,8.2299,8.2176,8.1758,8.0998,8.059,8.0129,7.9274,0.0,7.8729,7.8707,7.8592,7.8477,7.8477,7.8477,7.8477,7.8477,7.8477,7.8554,7.8669,7.8707,7.8746,7.89,7.8746,7.9092,7.9977,8.0746,8.1093,8.1093,8.1093,8.1093,8.1093,8.1093,8.1093,8.1093,8.1093,8.1093,8.1093,8.1093,8.1093,8.1093,8.1093,8.1093,8.1093,8.1093,8.1093,8.1093,7.6867,7.6906,7.6945,7.7062,7.7101,7.7101,7.7101,7.7101,7.7101,7.7101,7.7101,7.7101,7.7101,7.7101,7.7101,7.7101,7.7101,7.7101,7.7101,7.7101,7.7101,7.7101,7.7101,7.7101,7.7101,7.7101,7.7101,7.7101,7.7101,7.7101,7.7101,7.7101,7.7101,7.7101,7.7101,7.7095,7.7089,7.7876,7.8188,7.8221,7.9118,7.9906,8.0615,8.0719,8.1311,8.2098,8.2098,8.2176,8.2293,8.2293,8.2293,8.2293,8.2293,8.2293,8.2293,8.2293,8.2293,8.2293,8.2293,8.2293,8.2293,8.2293,8.2293,8.2293,8.2293,8.2315,8.2289,8.2289,8.2289,8.2289,8.2289,8.2271,8.2101,8.1611,8.1608,8.1502,8.081,0.0,7.9764,7.9623,7.8938,7.8477,7.8477,7.8477,7.8477,7.8477,7.8477,7.8823,7.9554,7.9592,7.9939,8.0669,7.9977,8.0015,8.09,8.1016,8.1093,8.1093,8.1093,8.1093,8.1093,8.1093,8.1093,8.1093,8.1093,8.1093,8.1093,8.1093,8.1093,8.1093,8.1093,8.1093,8.1093,8.1093,8.1093,8.1093,7.7101,7.7101,7.7101,7.7101,7.7101,7.7101,7.7101,7.7101,7.7101,7.7101,7.7101,7.7101,7.7101,7.7101,7.7101,7.7101,7.7101,7.7101,7.7101,7.7101,7.7101,7.7101,7.7101,7.7101,7.7101,7.7101,7.7101,7.7101,7.7101,7.7101,7.7101,7.7101,7.7101,7.7101,7.7609,7.7804,7.7843,7.8741,7.9092,7.917,8.0068,8.0654,8.1044,8.1513,8.1942,8.2293,8.2293,8.2293,8.2293,8.2293,8.2293,8.2293,8.2293,8.2293,8.2293,8.2293,8.2293,8.2293,8.2293,8.2293,8.2293,8.2293,8.2293,8.2293,8.2293,8.2285,8.2301,8.2301,8.2301,8.2301,8.2301,8.2292,8.2221,8.2036,8.2023,8.1881,8.162,8.1209,8.0888,8.069,8.0316,8.0029,7.9931,7.99,7.99,7.99,7.99,8.0092,8.0477,8.0516,8.0669,8.1093,8.0708,8.0708,8.1093,8.1093,8.1093,8.1093,8.1093,8.1093,8.1093,8.1093,8.1093,8.1093,8.1093,8.1093,8.1093,8.1093,8.1093,8.1093,8.1093,8.1093,8.1093,8.1093,8.1093,8.1093,7.7101,7.7101,7.7101,7.7101,7.7101,7.7101,7.7101,7.7101,7.7101,7.7101,7.7101,7.7101,7.7101,7.7101,7.7101,7.7101,7.7101,7.7101,7.7101,7.7101,7.7101,7.7101,7.7101,7.7101,7.7101,7.7101,7.7101,7.7101,7.7101,7.7101,7.7101,7.7296,7.7414,7.7453,7.8311,7.8702,7.8741,7.9639,7.999,8.0068,8.0966,8.1317,8.1396,8.2059,8.2293,8.2293,8.2293,8.2293,8.2293,8.2293,8.2293,8.2293,8.2293,8.2293,8.2293,8.2293,8.2293,8.2293,8.2293,8.2293,8.2293,8.2293,8.2299,8.2299,8.2293,8.2292,8.2304,8.2304,8.2304,8.2304,8.2304,8.2303,8.2292,8.2221,0.0,8.205,8.1948,8.182,8.1698,8.1469,8.1437,8.135,8.1205,8.1154,8.1093,8.1093,8.1093,8.1093,8.1093,8.1093,8.1093,8.1093,8.1093,8.1093,8.1093,8.1093,8.1093,8.1093,8.1093,8.1093,8.1093,8.1093,8.1093,8.1093,8.1093,8.1093,8.1093,8.1093,8.1093,8.1093,8.1093,8.1093,8.1093,8.1093,8.1093,8.1093,7.7101,7.7101,7.7101,7.7101,7.7101,7.7101,7.7101,7.7101,7.7101,7.7101,7.7101,7.7101,7.7101,7.7101,7.7101,7.7101,7.7101,7.7101,7.7101,7.7101,7.7101,7.7101,7.7101,7.7101,7.7101,7.7101,7.7101,7.7101,7.7101,7.7101,7.7101,7.7921,7.8311,7.835,7.9209,7.96,7.9678,8.0537,8.0888,8.0966,8.1864,8.2215,8.2215,8.2293,8.2293,8.2293,8.2293,8.2293,8.2293,8.2293,8.2293,8.2293,8.2293,8.2293,8.2293,8.2293,8.2293,8.2293,8.2293,8.2293,8.2293,8.2293,8.2315,8.2285,8.2299,8.2292,8.2304,8.2304,8.2304,8.2304,8.2304,8.2304,8.2223,8.2071,0.0,0.0,8.177,8.1851,8.192,8.1698,8.1491,8.1387,8.1362,8.1196,8.1093,8.1093,8.1093,8.1093,8.1093,8.1093,8.1093,8.1093,8.1093,8.1093,8.1093,8.1093,8.1093,8.1093,8.1093,8.1093,8.1093,8.1093,8.1093,8.1093,8.1093,8.1093,8.1093,8.1093,8.1093,8.1093,8.1093,8.1093,8.1093,8.1093,8.1093,8.1093,7.7804,7.7921,7.8077,7.8624,7.8702,7.8702,7.8702,7.8702,7.8702,7.8702,7.8233,7.7921,7.7921,7.7414,7.7101,7.7101,7.7101,7.7101,7.7101,7.7101,7.7101,7.7101,7.7101,7.7101,7.7101,7.7101,7.7375,7.7921,7.7921,7.8194,7.8702,7.9053,7.9209,7.9248,8.0107,8.0498,8.0576,8.1435,8.1825,8.1825,8.2176,8.2293,8.2293,8.2293,8.2293,8.2293,8.2293,8.2293,8.2293,8.2293,8.2293,8.2293,8.2293,8.2293,8.2293,8.2293,8.2293,8.2293,8.2293,8.2293,8.2293,8.2293,8.2315,8.2292,8.2297,8.2303,8.2304,8.2304,8.2304,8.2304,8.2304,8.2304,8.2265,8.2207,0.0,8.2234,8.2084,8.2143,8.2094,8.192,8.1804,8.1679,8.1437,8.1323,8.1224,8.1124,8.1093,8.1093,8.1093,8.1093,8.1093,8.1093,8.1093,8.1093,8.1093,8.1093,8.1093,8.1093,8.1093,8.1093,8.1093,8.1093,8.1093,8.1093,8.1093,8.1093,8.1093,8.1093,8.1093,8.1093,8.1093,8.1093,8.1093,8.1093,8.1093,8.1093,7.8702,7.8819,7.9014,7.96,7.9717,7.9717,7.9717,7.9717,7.9717,7.9717,7.917,7.8819,7.8819,7.8038,7.7492,7.7492,7.7257,7.7101,7.7101,7.7101,7.7101,7.7101,7.7101,7.7218,7.7492,7.7492,7.7921,7.8819,7.8819,7.9092,7.9717,7.999,8.0107,8.0146,8.1005,8.1396,8.1435,8.2059,8.2293,8.2293,8.2293,8.2293,8.2293,8.2293,8.2293,8.2293,8.2293,8.2293,8.2293,8.2293,8.2293,8.2293,8.2293,8.2293,8.2293,8.2293,8.2293,8.2293,8.2293,8.2293,8.2293,8.2293,8.231,8.2289,8.2304,8.2304,8.2304,8.2304,8.2304,8.2304,8.2304,8.2304,8.2304,8.2295,8.2315,8.2293,8.2293,8.2293,8.2234,8.2094,8.205,8.1866,8.162,8.1484,8.135,8.1196,8.1154,8.1093,8.1093,8.1093,8.1093,8.1093,8.1093,8.1093,8.1093,8.1093,8.1093,8.1093,8.1093,8.1093,8.1093,8.1093,8.1093,8.1093,8.1093,8.1093,8.1093,8.1093,8.1093,8.1093,8.1093,8.1093,8.1093,8.1093,8.1093,8.1093,7.9717,7.9717,7.9717,7.9717,7.9717,7.9717,7.9717,7.9717,7.9717,7.9717,7.9717,7.9717,7.9717,7.8936,7.839,7.839,7.7609,7.7101,7.7101,7.7101,7.7101,7.7101,7.7101,7.7492,7.839,7.839,7.8858,7.9717,7.9717,7.9717,7.9756,8.0615,8.1005,8.1044,8.1903,8.2293,8.2293,8.2293,8.2293,8.2293,8.2293,8.2293,8.2293,8.2293,8.2293,8.2293,8.2293,8.2293,8.2293,8.2293,8.2293,8.2293,8.2293,8.2293,8.2293,8.2293,8.2293,8.2293,8.2293,8.2293,8.2293,8.2293,8.2293,8.231,8.2304,8.2304,8.2304,8.2304,8.2304,8.2304,8.2304,8.2304,8.2304,8.2295,8.2315,8.2293,8.2293,8.2293,8.2293,8.2293,8.2104,8.1987,8.1987,8.164,8.1387,8.1387,8.1196,8.1093,8.1093,8.1093,8.1093,8.1093,8.1093,8.1093,8.1093,8.1093,8.1093,8.1093,8.1093,8.1093,8.1093,8.1093,8.1093,8.1093,8.1093,8.1093,8.1093,8.1093,8.1093,8.1093,8.1093,8.1093,8.1093,8.1093,8.1093,8.1093,8.0498,8.0615,8.081,8.1435,8.1513,8.1513,8.1513,8.1513,8.1513,8.1513,8.1005,8.0615,8.0615,7.9834,7.9326,7.9326,7.9053,7.8936,7.8936,7.835,7.8272,7.8897,7.835,7.8116,7.839,7.9014,7.9756,8.0615,8.0615,8.0927,8.1513,8.1786,8.1903,8.1903,8.2176,8.2293,8.2293,8.2293,8.2293,8.2293,8.2293,8.2293,8.2293,8.2293,8.2293,8.2293,8.2293,8.2293,8.2293,8.2293,8.2293,8.2293,8.2293,8.2293,8.2293,8.2293,8.2293,8.2293,8.2293,8.2293,8.2299,8.232,8.231,8.231,8.2304,8.2304,8.2304,8.2304,8.2304,8.2304,8.2304,8.2304,8.2304,8.2304,8.2285,8.2293,8.2293,8.2293,8.2293,8.2293,8.2234,8.2153,8.1999,8.1866,8.1753,8.162,8.1536,8.1461,8.1323,8.1437,8.153,8.153,8.1362,8.1296,8.1296,8.1176,8.1093,8.1093,8.1093,8.1093,8.1093,8.1093,8.1093,8.1093,8.1093,8.1093,8.1093,8.1093,8.1093,8.1093,8.1093,8.1093,8.1093,8.1093,8.1093,8.1093,8.1396,8.1513,8.1669,8.2215,8.2293,8.2293,8.2293,8.2293,8.2293,8.2293,8.1825,8.1513,8.1513,8.0732,8.0224,8.0224,7.9912,7.9717,7.9717,7.9209,7.9131,7.9678,7.9522,7.9444,7.9444,7.9951,8.0654,8.1513,8.1513,8.1786,8.2293,8.2293,8.2293,8.2293,8.2293,8.2293,8.2293,8.2293,8.2293,8.2293,8.2293,8.2293,8.2293,8.2293,8.2293,8.2293,8.2293,8.2293,8.2293,8.2293,8.2293,8.2293,8.2293,8.2293,8.2293,8.2293,8.2293,8.2293,8.2293,8.2293,8.2299,8.2315,8.2285,8.2292,8.2304,8.2304,8.2304,8.2304,8.2304,8.2304,8.2304,8.2304,8.2304,8.2304,8.2295,8.2305,8.2293,8.2293,8.2293,8.2293,8.2293,8.2234,8.2143,8.2062,8.1934,8.1717,8.1698,8.164,8.1553,8.162,8.1698,8.1698,8.1579,8.1484,8.1387,8.1308,8.1176,8.1093,8.1093,8.1116,8.1196,8.1196,8.128,8.135,8.135,8.1269,8.1196,8.1196,8.1176,8.1093,8.1093,8.1093,8.1093,8.1093,8.1093,8.1093,8.2293,8.2293,8.2293,8.2293,8.2293,8.2293,8.2293,8.2293,8.2293,8.2293,8.2293,8.2293,8.2293,8.1591,8.1122,8.1122,8.0302,7.9834,7.9912,7.9873,7.9834,7.9912,8.0693,8.1122,8.1122,8.1122,8.1513,8.2293,8.2293,8.2293,8.2293,8.2293,8.2293,8.2293,8.2293,8.2293,8.2293,8.2293,8.2293,8.2293,8.2293,8.2293,8.2293,8.2293,8.2293,8.2293,8.2293,8.2293,8.2293,8.2293,8.2293,8.2293,8.2293,8.2293,8.2293,8.2293,8.2293,8.2293,8.2293,8.2293,8.2293,8.2293,8.2292,8.2304,8.2304,8.2304,8.2304,8.2304,8.2304,8.2304,8.2304,8.2304,8.2304,8.2304,8.2301,8.2289,8.2299,8.2293,8.2293,8.2293,8.2293,8.2293,8.2293,8.2143,8.1948,8.1735,8.1735,8.1735,8.1717,8.1735,8.1753,8.1753,8.1735,8.164,8.1461,8.1437,8.1323,8.1124,8.1124,8.1224,8.1437,8.1437,8.1553,8.1698,8.1698,8.1579,8.1437,8.1412,8.1296,8.1146,8.1124,8.1124,8.1124,8.1093,8.1093,8.1093,8.2293,8.2293,8.2293,8.2293,8.2293,8.2293,8.2293,8.2293,8.2293,8.2293,8.2293,8.2293,8.2293,8.2137,8.202,8.202,8.12,8.1005,8.1708,8.1083,8.1005,8.1708,8.1903,8.202,8.202,8.202,8.2098,8.2293,8.2293,8.2293,8.2293,8.2293,8.2293,8.2293,8.2293,8.2293,8.2293,8.2293,8.2293,8.2293,8.2293,8.2293,8.2293,8.2293,8.2293,8.2293,8.2293,8.2293,8.2293,8.2293,8.2293,8.2293,8.2293,8.2293,8.2293,8.2293,8.2293,8.2299,8.2281,8.231,8.2293,8.2293,8.2292,8.2304,8.2304,8.2304,8.2304,8.2304,8.2304,8.2304,8.2304,8.2304,8.2304,8.2304,8.2304,8.23,8.2299,8.2293,8.2293,8.2293,8.2293,8.2293,8.2293,8.228,8.2153,8.1948,8.2073,8.2084,8.1948,8.2073,8.2162,8.2162,8.2038,8.1934,8.1851,8.1717,8.1514,8.135,8.135,8.1437,8.164,8.164,8.166,8.1698,8.1698,8.1679,8.162,8.1484,8.1484,8.1514,8.1224,8.1205,8.1323,8.1146,8.1093,8.1093,8.2293,8.2293,8.2293,8.2293,8.2293,8.2293,8.2293,8.2293,8.2293,8.2293,8.2293,8.2293,8.2293,8.2293,8.2293,8.2293,8.1864,8.1825,8.2254,8.1864,8.1825,8.2293,8.2293,8.2293,8.2293,8.2293,8.2293,8.2293,8.2293,8.2293,8.2293,8.2293,8.2293,8.2293,8.2293,8.2293,8.2293,8.2293,8.2293,8.2293,8.2293,8.2293,8.2293,8.2293,8.2293,8.2293,8.2293,8.2293,8.2293,8.2293,8.2293,8.2293,8.2293,8.2293,8.2293,8.2293,8.2305,8.2315,8.2315,8.2305,8.2293,8.2293,8.2292,8.2304,8.2304,8.2304,8.2304,8.2304,8.2304,8.2304,8.2304,8.2304,8.2304,8.2304,8.2304,8.2304,8.2292,8.231,8.2293,8.2293,8.2293,8.2293,8.2293,8.2293,8.228,8.2153,8.2234,8.2234,8.2153,8.2234,8.2293,8.2293,8.2218,8.2084,8.1987,8.192,8.1787,8.1679,8.1579,8.164,8.1836,8.1836,8.1905,8.1974,8.1974,8.1934,8.182,8.1735,8.1698,8.166,8.1375,8.1296,8.1401,8.1176,8.1093,8.1093,8.2293,8.2293,8.2293,8.2293,8.2293,8.2293,8.2293,8.2293,8.2293,8.2293,8.2293,8.2293,8.2293,8.2293,8.2293,8.2293,8.2293,8.2293,8.2293,8.2293,8.2293,8.2293,8.2293,8.2293,8.2293,8.2293,8.2293,8.2293,8.2293,8.2293,8.2293,8.2293,8.2293,8.2293,8.2293,8.2293,8.2293,8.2293,8.2293,8.2293,8.2293,8.2293,8.2293,8.2293,8.2293,8.2293,8.2293,8.2293,8.2293,8.2293,8.2293,8.2293,8.2293,8.2293,8.2293,8.2293,8.231,8.2285,8.231,8.231,8.231,8.231,8.2295,8.2304,8.2304,8.2304,8.2304,8.2304,8.2304,8.2304,8.2304,8.2304,8.2304,8.2304,8.2304,8.2304,8.2304,8.2289,8.2299,8.2293,8.2293,8.2293,8.2293,8.2293,8.2293,8.2293,8.2293,8.2293,8.2293,8.2293,8.2293,8.2293,8.2293,8.2226,8.2062,8.2062,8.2062,8.2062,8.1866,8.1905,8.2062,8.2062,8.2153,8.2293,8.2293,8.2218,8.2062,8.1999,8.1934,8.177,8.1536,8.1461,8.1412,8.1205,8.1093,8.1093,8.2293,8.2293,8.2293,8.2293,8.2293,8.2293,8.2293,8.2293,8.2293,8.2293,8.2293,8.2293,8.2293,8.2293,8.2293,8.2293,8.2293,8.2293,8.2293,8.2293,8.2293,8.2293,8.2293,8.2293,8.2293,8.2293,8.2293,8.2293,8.2293,8.2293,8.2293,8.2293,8.2293,8.2293,8.2293,8.2293,8.2293,8.2293,8.2293,8.2293,8.2293,8.2293,8.2293,8.2293,8.2293,8.2293,8.2293,8.2293,8.2293,8.2293,8.2293,8.2293,8.2293,8.2293,8.2293,8.2293,8.2293,8.231,8.23,8.2304,8.2304,8.2304,8.2304,8.2304,8.2304,8.2304,8.2304,8.2304,8.2304,8.2304,8.2304,8.2304,8.2304,8.2304,8.2304,8.2304,8.2297,8.2292,8.2281,8.2293,8.2293,8.2293,8.2293,8.2293,8.2293,8.2293,8.2293,8.2293,8.2293,8.2293,8.2293,8.2293,8.2293,8.2287,8.228,8.228,8.228,8.228,8.2226,8.2226,8.228,8.228,8.2287,8.2293,8.2293,8.2287,8.2234,8.2073,8.2084,8.2171,8.1804,8.166,8.16,8.1224,8.1093,8.1093,8.2293,8.2293,8.2293,8.2293,8.2293,8.2293,8.2293,8.2293,8.2293,8.2293,8.2293,8.2293,8.2293,8.2293,8.2293,8.2293,8.2293,8.2293,8.2293,8.2293,8.2293,8.2293,8.2293,8.2293,8.2293,8.2293,8.2293,8.2293,8.2293,8.2293,8.2293,8.2293,8.2293,8.2293,8.2293,8.2293,8.2293,8.2293,8.2293,8.2293,8.2293,8.2293,8.2293,8.2293,8.2293,8.2293,8.2293,8.2293,8.2293,8.2293,8.2293,8.2293,8.2293,8.2293,8.2293,8.2293,8.2293,8.2305,8.2303,8.2304,8.2304,8.2304,8.2304,8.2304,8.2304,8.2304,8.2304,8.2304,8.2304,8.2304,8.2304,8.2304,8.2304,8.2304,8.2304,8.2304,8.2295,8.2292,8.2285,8.2299,8.2293,8.2293,8.2293,8.2293,8.2293,8.2293,8.2293,8.2293,8.2293,8.2293,8.2293,8.2293,8.2293,8.2293,8.2293,8.2293,8.2293,8.2293,8.2293,8.2293,8.2293,8.2293,8.2293,8.2293,8.2293,8.2293,8.2287,8.2218,8.2226,8.228,8.1974,8.1735,8.1507,8.1234,8.1093,8.1093]},{"header":{"parameterUnit":"m.s-1","parameterCategory":1,"la1":30.6,"la2":28.766,"lo1":-90.7593,"lo2":-88.6598,"dy":0.0162,"dx":0.0183,"nx":116,"ny":114,"refTime":"2023-11-18T06:00:00:Z","depth":0,"parameterNumber":3,"parameterNumberName":"V-component_of_WINDS"},"data":[0.0,0.0,0.0,0.0,0.0,0.0,0.0,0.0,0.0,0.0,0.0,0.0,0.0,0.0,0.0,0.0,0.0,0.0,0.0,0.0,0.0,0.0,0.0,0.0,0.0,0.0,0.0,0.0,0.0,0.0,0.0,0.0,0.0,0.0,0.0,0.0,0.0,0.0,0.0,0.0,0.0,0.0,0.0,0.0,0.0,0.0,0.0,0.0,0.0,0.0,0.0,0.0,0.0,0.0,0.0,0.0,0.0,0.0,0.0,0.0,0.0,0.0,0.0,0.0,0.0,0.0,0.0,0.0,0.0,0.0,0.0,0.0,0.0,0.0,0.0,0.0,0.0,0.0,0.0,0.0,0.0,0.0,0.0,0.0,0.0,0.0,0.0,0.0,0.0,0.0,0.0,0.0,0.0,0.0,0.0,0.0,0.0,0.0,0.0,0.0,0.0,0.0,0.0,0.0,0.0,0.0,0.0,0.0,0.0,0.0,0.0,0.0,0.0,0.0,0.0,0.0,0.0,0.0,0.0,0.0,0.0,0.0,0.0,0.0,0.0,0.0,0.0,0.0,0.0,0.0,0.0,0.0,0.0,0.0,0.0,0.0,0.0,0.0,0.0,0.0,0.0,0.0,0.0,0.0,0.0,0.0,0.0,0.0,0.0,0.0,0.0,0.0,0.0,0.0,0.0,0.0,0.0,0.0,0.0,0.0,0.0,0.0,0.0,0.0,0.0,0.0,0.0,0.0,0.0,0.0,0.0,0.0,0.0,0.0,0.0,0.0,0.0,0.0,0.0,0.0,0.0,0.0,0.0,0.0,0.0,0.0,0.0,0.0,0.0,0.0,0.0,0.0,0.0,0.0,0.0,0.0,0.0,0.0,0.0,0.0,0.0,0.0,0.0,0.0,0.0,0.0,0.0,0.0,0.0,0.0,0.0,0.0,0.0,0.0,0.0,0.0,0.0,0.0,0.0,0.0,0.0,0.0,0.0,0.0,0.0,0.0,0.0,0.0,0.0,0.0,0.0,0.0,0.0,0.0,0.0,0.0,0.0,0.0,0.0,0.0,0.0,0.0,0.0,0.0,0.0,0.0,0.0,0.0,0.0,0.0,0.0,0.0,0.0,0.0,0.0,0.0,0.0,0.0,0.0,0.0,0.0,0.0,0.0,0.0,0.0,0.0,0.0,0.0,0.0,0.0,0.0,0.0,0.0,0.0,0.0,0.0,0.0,0.0,0.0,0.0,0.0,0.0,0.0,0.0,0.0,0.0,0.0,0.0,0.0,0.0,0.0,0.0,0.0,0.0,0.0,0.0,0.0,0.0,0.0,0.0,0.0,0.0,0.0,0.0,0.0,0.0,0.0,0.0,0.0,0.0,0.0,0.0,0.0,0.0,0.0,0.0,0.0,0.0,0.0,0.0,0.0,0.0,0.0,0.0,0.0,0.0,0.0,0.0,0.0,0.0,0.0,0.0,0.0,0.0,0.0,0.0,0.0,0.0,0.0,0.0,0.0,0.0,0.0,0.0,0.0,0.0,0.0,0.0,0.0,0.0,0.0,0.0,0.0,0.0,0.0,0.0,0.0,0.0,0.0,0.0,0.0,0.0,0.0,0.0,0.0,0.0,0.0,0.0,0.0,0.0,0.0,0.0,0.0,0.0,0.0,0.0,0.0,0.0,0.0,0.0,0.0,0.0,0.0,0.0,0.0,0.0,0.0,0.0,0.0,0.0,0.0,0.0,0.0,0.0,0.0,0.0,0.0,0.0,0.0,0.0,0.0,0.0,0.0,0.0,0.0,0.0,0.0,0.0,0.0,0.0,0.0,0.0,0.0,0.0,0.0,0.0,0.0,0.0,0.0,0.0,0.0,0.0,0.0,0.0,0.0,0.0,0.0,0.0,0.0,0.0,0.0,0.0,0.0,0.0,0.0,0.0,0.0,0.0,0.0,0.0,0.0,0.0,0.0,0.0,0.0,0.0,0.0,0.0,0.0,0.0,0.0,0.0,0.0,0.0,0.0,0.0,0.0,0.0,0.0,0.0,0.0,0.0,0.0,0.0,0.0,0.0,0.0,0.0,0.0,0.0,0.0,0.0,0.0,0.0,0.0,0.0,0.0,0.0,0.0,0.0,0.0,0.0,0.0,0.0,0.0,0.0,0.0,0.0,0.0,0.0,0.0,0.0,0.0,0.0,0.0,0.0,0.0,0.0,0.0,0.0,0.0,0.0,0.0,0.0,0.0,0.0,0.0,0.0,0.0,0.0,0.0,0.0,0.0,0.0,0.0,0.0,0.0,0.0,0.0,0.0,0.0,0.0,0.0,0.0,0.0,0.0,0.0,0.0,0.0,0.0,0.0,0.0,0.0,0.0,0.0,0.0,0.0,0.0,0.0,0.0,0.0,0.0,0.0,0.0,0.0,0.0,0.0,0.0,0.0,0.0,0.0,0.0,0.0,0.0,0.0,0.0,0.0,0.0,0.0,0.0,0.0,0.0,0.0,0.0,0.0,0.0,0.0,0.0,0.0,0.0,0.0,0.0,0.0,0.0,0.0,0.0,0.0,0.0,0.0,0.0,0.0,0.0,0.0,0.0,0.0,0.0,0.0,0.0,0.0,0.0,0.0,0.0,0.0,0.0,0.0,0.0,0.0,0.0,0.0,0.0,0.0,0.0,0.0,0.0,0.0,0.0,0.0,0.0,0.0,0.0,0.0,0.0,0.0,0.0,0.0,0.0,0.0,0.0,0.0,0.0,0.0,0.0,0.0,0.0,0.0,0.0,0.0,0.0,0.0,0.0,0.0,0.0,0.0,0.0,0.0,0.0,0.0,0.0,0.0,0.0,0.0,0.0,0.0,0.0,0.0,0.0,0.0,0.0,0.0,0.0,0.0,0.0,0.0,0.0,0.0,0.0,0.0,0.0,0.0,0.0,0.0,0.0,0.0,0.0,0.0,0.0,0.0,0.0,0.0,0.0,0.0,0.0,0.0,0.0,0.0,0.0,0.0,0.0,0.0,0.0,0.0,0.0,0.0,0.0,0.0,0.0,0.0,0.0,0.0,0.0,0.0,0.0,0.0,0.0,0.0,0.0,0.0,0.0,0.0,0.0,0.0,0.0,0.0,0.0,0.0,0.0,0.0,0.0,0.0,0.0,0.0,0.0,0.0,0.0,0.0,0.0,0.0,0.0,0.0,0.0,0.0,0.0,0.0,0.0,0.0,0.0,0.0,0.0,0.0,0.0,0.0,0.0,0.0,0.0,0.0,0.0,0.0,0.0,0.0,0.0,0.0,0.0,0.0,0.0,0.0,0.0,0.0,0.0,0.0,0.0,0.0,0.0,0.0,0.0,0.0,0.0,0.0,0.0,0.0,0.0,0.0,0.0,0.0,0.0,0.0,0.0,0.0,0.0,0.0,0.0,0.0,0.0,0.0,0.0,0.0,0.0,0.0,0.0,0.0,0.0,0.0,0.0,0.0,0.0,0.0,0.0,0.0,0.0,0.0,0.0,0.0,0.0,0.0,0.0,0.0,0.0,0.0,0.0,0.0,0.0,0.0,0.0,0.0,0.0,0.0,0.0,0.0,0.0,0.0,0.0,0.0,0.0,0.0,0.0,0.0,0.0,0.0,0.0,0.0,0.0,0.0,0.0,0.0,0.0,0.0,0.0,0.0,0.0,0.0,0.0,0.0,0.0,0.0,0.0,0.0,0.0,0.0,0.0,0.0,0.0,0.0,0.0,0.0,0.0,0.0,0.0,0.0,0.0,0.0,0.0,0.0,0.0,0.0,0.0,0.0,0.0,0.0,0.0,0.0,0.0,0.0,0.0,0.0,0.0,0.0,0.0,0.0,0.0,0.0,0.0,0.0,0.0,0.0,0.0,0.0,0.0,0.0,0.0,0.0,0.0,0.0,0.0,0.0,0.0,0.0,0.0,0.0,0.0,0.0,0.0,0.0,0.0,0.0,0.0,0.0,0.0,0.0,0.0,0.0,0.0,0.0,0.0,0.0,0.0,0.0,0.0,0.0,0.0,0.0,0.0,0.0,0.0,0.0,0.0,0.0,0.0,0.0,0.0,0.0,0.0,0.0,0.0,0.0,0.0,0.0,0.0,0.0,0.0,0.0,0.0,0.0,0.0,0.0,0.0,0.0,0.0,0.0,0.0,0.0,0.0,0.0,0.0,0.0,0.0,0.0,0.0,0.0,0.0,0.0,0.0,0.0,0.0,0.0,0.0,0.0,0.0,0.0,0.0,0.0,0.0,0.0,0.0,0.0,0.0,0.0,0.0,0.0,0.0,0.0,0.0,0.0,0.0,0.0,0.0,0.0,0.0,0.0,0.0,0.0,0.0,0.0,0.0,0.0,0.0,0.0,0.0,0.0,0.0,0.0,0.0,0.0,0.0,0.0,0.0,0.0,0.0,0.0,0.0,0.0,0.0,0.0,0.0,0.0,0.0,0.0,0.0,0.0,0.0,0.0,0.0,0.0,0.0,0.0,0.0,0.0,0.0,0.0,0.0,0.0,0.0,0.0,0.0,0.0,0.0,0.0,0.0,0.0,0.0,0.0,0.0,0.0,0.0,0.0,0.0,0.0,0.0,0.0,0.0,0.0,0.0,0.0,0.0,0.0,0.0,0.0,0.0,0.0,0.0,0.0,0.0,0.0,0.0,0.0,0.0,0.0,0.0,0.0,0.0,0.0,0.0,0.0,0.0,0.0,0.0,0.0,0.0,0.0,0.0,0.0,0.0,0.0,0.0,0.0,0.0,0.0,0.0,0.0,0.0,0.0,0.0,0.0,0.0,0.0,0.0,0.0,0.0,0.0,0.0,0.0,0.0,0.0,0.0,0.0,0.0,0.0,0.0,0.0,0.0,0.0,0.0,0.0,0.0,0.0,0.0,0.0,0.0,0.0,0.0,0.0,0.0,0.0,0.0,0.0,0.0,0.0,0.0,0.0,0.0,0.0,0.0,0.0,0.0,0.0,0.0,0.0,0.0,0.0,0.0,0.0,0.0,0.0,0.0,0.0,0.0,0.0,0.0,0.0,0.0,0.0,0.0,0.0,0.0,0.0,0.0,0.0,0.0,0.0,0.0,0.0,0.0,0.0,0.0,0.0,0.0,0.0,0.0,0.0,0.0,0.0,0.0,0.0,0.0,0.0,0.0,0.0,0.0,0.0,0.0,0.0,0.0,0.0,0.0,0.0,0.0,0.0,0.0,0.0,0.0,0.0,0.0,0.0,0.0,0.0,0.0,0.0,0.0,0.0,0.0,0.0,0.0,0.0,0.0,0.0,0.0,0.0,0.0,0.0,0.0,0.0,0.0,0.0,0.0,0.0,0.0,0.0,0.0,0.0,0.0,0.0,0.0,0.0,0.0,0.0,0.0,0.0,0.0,0.0,0.0,0.0,0.0,0.0,0.0,0.0,0.0,0.0,0.0,0.0,0.0,0.0,0.0,0.0,0.0,0.0,0.0,0.0,0.0,0.0,0.0,0.0,0.0,0.0,0.0,0.0,0.0,0.0,0.0,0.0,0.0,0.0,0.0,0.0,0.0,0.0,0.0,0.0,0.0,0.0,0.0,0.0,0.0,0.0,0.0,0.0,0.0,0.0,0.0,0.0,0.0,0.0,0.0,0.0,0.0,0.0,0.0,0.0,0.0,0.0,0.0,0.0,0.0,0.0,0.0,0.0,0.0,0.0,0.0,0.0,0.0,0.0,0.0,0.0,0.0,0.0,0.0,0.0,0.0,0.0,0.0,0.0,0.0,0.0,0.0,0.0,0.0,0.0,0.0,0.0,0.0,0.0,0.0,0.0,0.0,0.0,0.0,0.0,0.0,0.0,0.0,0.0,0.0,0.0,0.0,0.0,0.0,0.0,0.0,0.0,0.0,0.0,0.0,0.0,0.0,0.0,0.0,0.0,0.0,0.0,0.0,0.0,0.0,0.0,0.0,0.0,0.0,0.0,0.0,0.0,0.0,0.0,0.0,0.0,0.0,0.0,0.0,0.0,0.0,0.0,0.0,0.0,0.0,0.0,0.0,0.0,0.0,0.0,0.0,0.0,0.0,0.0,0.0,0.0,0.0,0.0,0.0,0.0,0.0,0.0,0.0,0.0,0.0,-1.5465,0.0,0.0,0.0,0.0,0.0,0.0,0.0,0.0,0.0,0.0,0.0,0.0,0.0,0.0,0.0,0.0,0.0,0.0,0.0,0.0,0.0,0.0,0.0,0.0,0.0,0.0,0.0,0.0,0.0,0.0,0.0,0.0,0.0,0.0,0.0,0.0,0.0,0.0,0.0,0.0,0.0,0.0,0.0,0.0,0.0,0.0,0.0,0.0,0.0,0.0,0.0,0.0,0.0,0.0,0.0,0.0,0.0,0.0,0.0,0.0,0.0,0.0,0.0,0.0,0.0,0.0,0.0,0.0,0.0,0.0,0.0,0.0,0.0,0.0,0.0,0.0,0.0,0.0,0.0,0.0,0.0,0.0,0.0,0.0,0.0,0.0,0.0,0.0,0.0,0.0,0.0,0.0,0.0,0.0,0.0,0.0,0.0,0.0,0.0,0.0,0.0,0.0,0.0,0.0,0.0,0.0,0.0,0.0,0.0,0.0,0.0,0.0,0.0,0.0,0.0,0.0,-1.4435,0.0,0.0,0.0,0.0,0.0,0.0,0.0,0.0,0.0,0.0,0.0,0.0,0.0,0.0,0.0,0.0,0.0,0.0,0.0,0.0,0.0,0.0,0.0,-1.9372,-1.9372,-1.9372,-1.9372,-1.9359,0.0,0.0,0.0,0.0,0.0,0.0,-1.3435,-1.2371,-1.1776,0.0,0.0,0.0,0.0,0.0,0.0,0.0,0.0,0.0,0.0,0.0,0.0,0.0,0.0,0.0,0.0,0.0,0.0,0.0,0.0,0.0,0.0,0.0,0.0,0.0,0.0,0.0,0.0,0.0,0.0,0.0,0.0,0.0,0.0,0.0,0.0,0.0,0.0,0.0,0.0,0.0,0.0,0.0,0.0,0.0,0.0,0.0,0.0,0.0,0.0,0.0,0.0,0.0,0.0,0.0,0.0,0.0,0.0,0.0,0.0,0.0,0.0,0.0,0.0,0.0,0.0,0.0,0.0,0.0,0.0,0.0,-1.2048,-1.1984,-1.1985,-1.1985,-1.206,-1.2164,-1.1896,-1.1755,-1.1668,-1.233,0.0,0.0,0.0,0.0,0.0,0.0,0.0,0.0,0.0,0.0,0.0,0.0,0.0,0.0,0.0,0.0,0.0,0.0,0.0,0.0,0.0,-1.9372,-1.9372,-1.9372,-1.9372,-1.8881,-1.7806,0.0,0.0,-1.4262,-1.4023,-1.3315,-1.213,-1.1897,-1.1776,-1.1776,0.0,0.0,-1.1277,-1.1425,-1.1379,-1.1125,-1.0974,0.0,0.0,0.0,0.0,0.0,0.0,0.0,0.0,0.0,0.0,0.0,0.0,0.0,0.0,0.0,0.0,0.0,0.0,0.0,0.0,0.0,0.0,0.0,0.0,0.0,0.0,0.0,0.0,0.0,0.0,0.0,0.0,0.0,0.0,0.0,0.0,0.0,0.0,0.0,0.0,0.0,0.0,0.0,-2.012,-2.012,0.0,0.0,0.0,0.0,0.0,0.0,0.0,0.0,0.0,0.0,0.0,0.0,0.0,-1.5043,-1.4912,-1.3613,-1.2964,-1.27,-1.27,-1.2584,-1.2211,-1.2211,-1.2086,-1.1844,-1.1799,0.0,-1.2094,-1.2643,0.0,0.0,0.0,0.0,0.0,0.0,0.0,0.0,0.0,0.0,0.0,0.0,0.0,0.0,0.0,0.0,0.0,0.0,0.0,0.0,0.0,-1.9372,-1.9127,-1.8402,-1.8286,-1.7818,-1.6514,-1.6397,-1.5569,-1.3784,-1.3665,-1.3075,-1.1776,-1.1776,-1.1776,-1.1776,-1.1874,-1.1792,-1.1425,-1.1604,-1.151,-1.1039,-1.0964,-1.111,-1.1324,-1.1526,0.0,0.0,0.0,0.0,0.0,0.0,0.0,0.0,0.0,0.0,0.0,0.0,0.0,0.0,0.0,0.0,0.0,0.0,0.0,0.0,0.0,0.0,0.0,0.0,0.0,0.0,0.0,0.0,0.0,0.0,0.0,0.0,0.0,0.0,0.0,0.0,0.0,0.0,0.0,-2.0147,-2.0227,-2.0227,-2.0374,-2.0481,0.0,0.0,0.0,0.0,0.0,0.0,0.0,0.0,0.0,-1.5814,-1.439,-1.3744,-1.3744,-1.2964,-1.2576,-1.2576,-1.2041,-1.1829,-1.1784,-1.165,-1.1432,-1.1511,-1.1511,-1.1589,-1.1703,-1.2437,-1.3134,-1.3763,0.0,0.0,0.0,0.0,-1.7099,-1.7701,0.0,0.0,0.0,0.0,0.0,0.0,0.0,0.0,0.0,0.0,0.0,0.0,-1.9372,-1.9127,-1.8532,-1.7572,-1.722,-1.6632,-1.5688,-1.5569,-1.4976,-1.3784,-1.3665,-1.3075,-1.1776,-1.1817,-1.1841,-1.1841,-1.1971,-1.1781,-1.1534,-1.1666,-1.1541,-1.1046,-1.1083,-1.1253,-1.1541,-1.1713,-1.1783,0.0,0.0,0.0,0.0,0.0,0.0,0.0,0.0,0.0,0.0,0.0,0.0,0.0,0.0,0.0,0.0,0.0,0.0,0.0,0.0,0.0,0.0,0.0,0.0,0.0,0.0,0.0,0.0,0.0,0.0,0.0,0.0,0.0,0.0,0.0,0.0,0.0,0.0,-2.0414,-2.0454,-2.0454,-2.0655,-2.0664,0.0,0.0,0.0,0.0,0.0,0.0,-1.6462,-1.5163,-1.439,-1.439,-1.3358,-1.284,-1.284,-1.2576,-1.2437,-1.2444,-1.1909,-1.1578,-1.1701,-1.1425,-1.1354,-1.146,-1.1596,-1.1596,-1.1589,-1.2097,-1.2429,-1.2681,-1.3093,-1.4045,-1.4992,-1.4992,-1.5769,-1.652,0.0,0.0,0.0,0.0,0.0,0.0,0.0,0.0,0.0,0.0,0.0,-1.9372,-1.9372,-1.8286,-1.7572,-1.7455,-1.6397,-1.5688,-1.5569,-1.5569,-1.4976,-1.3784,-1.3665,-1.3075,-1.1776,-1.1931,-1.202,-1.202,-1.2028,-1.1781,-1.1534,-1.1542,-1.1294,-1.1046,-1.1084,-1.1106,-1.0822,-1.1356,-1.1542,-1.1549,0.0,0.0,0.0,0.0,0.0,0.0,0.0,0.0,0.0,0.0,0.0,0.0,0.0,0.0,0.0,0.0,0.0,0.0,0.0,0.0,0.0,0.0,0.0,0.0,0.0,0.0,0.0,0.0,0.0,0.0,0.0,0.0,0.0,0.0,0.0,0.0,0.0,0.0,0.0,-2.1069,-2.1082,0.0,0.0,0.0,0.0,-1.7238,-1.5814,-1.5043,-1.5043,-1.3613,-1.2964,-1.2964,-1.284,-1.284,-1.284,-1.2832,-1.2708,-1.2708,-1.2708,-1.2576,-1.232,-1.2584,-1.2592,-1.2204,-1.26,-1.2732,-1.2624,-1.1991,-1.1978,-1.2406,-1.2681,-1.3093,-1.3505,-1.3505,-1.339,-1.3369,0.0,0.0,0.0,0.0,0.0,0.0,0.0,0.0,-1.9372,-1.9372,-1.9372,-1.9127,-1.8286,-1.7806,-1.722,-1.6397,-1.5806,-1.5569,-1.5569,-1.4857,-1.4143,-1.3665,-1.2964,-1.2302,-1.1939,-1.1996,-1.2028,-1.2028,-1.215,-1.2025,-1.1781,-1.19,-1.1892,-1.1657,-1.1728,-1.1681,-1.1579,-1.1627,-1.1831,-1.2089,-1.228,-1.2304,0.0,0.0,0.0,0.0,0.0,0.0,0.0,0.0,0.0,0.0,0.0,0.0,0.0,0.0,0.0,0.0,0.0,0.0,0.0,0.0,0.0,0.0,0.0,0.0,0.0,0.0,0.0,0.0,0.0,0.0,0.0,0.0,0.0,0.0,0.0,0.0,0.0,-1.9814,-1.9814,0.0,-1.7882,-1.684,-1.6203,-1.5684,-1.439,-1.3481,-1.3481,-1.3095,-1.284,-1.284,-1.284,-1.2889,-1.3003,-1.3003,-1.3059,-1.3181,-1.2911,-1.2775,-1.264,-1.2504,-1.2361,-1.2361,-1.2368,-1.2435,-1.2216,-1.2171,-1.2278,-1.2626,-1.2759,-1.2893,-1.3027,-1.3027,-1.3051,-1.3092,0.0,0.0,0.0,0.0,0.0,0.0,0.0,0.0,-1.9372,-1.9372,-1.9372,-1.8894,-1.7689,-1.7455,-1.6985,-1.5688,-1.5213,-1.5095,-1.5569,-1.4381,-1.3665,-1.3665,-1.2544,-1.189,-1.1947,-1.206,-1.2093,-1.2028,-1.215,-1.215,-1.2028,-1.2093,-1.2093,-1.2028,-1.2028,-1.206,-1.2134,-1.2004,-1.2051,-1.2304,-1.2304,-1.2304,-1.232,0.0,0.0,0.0,0.0,0.0,0.0,0.0,0.0,0.0,0.0,0.0,0.0,0.0,0.0,0.0,0.0,0.0,0.0,0.0,0.0,0.0,0.0,0.0,0.0,0.0,0.0,0.0,0.0,0.0,0.0,0.0,0.0,0.0,0.0,0.0,-2.0589,-1.9164,-1.9036,-1.8267,-1.6462,-1.5424,-1.4651,-1.4259,-1.3358,-1.284,-1.284,-1.2889,-1.2921,-1.2921,-1.2986,-1.3076,-1.3189,-1.3189,-1.3246,-1.3368,-1.3093,-1.2956,-1.2956,-1.2819,-1.2681,-1.2681,-1.2681,-1.2612,-1.2519,-1.2635,-1.2822,-1.3019,-1.2885,-1.2885,-1.3019,-1.3019,-1.3092,-1.3189,0.0,0.0,0.0,0.0,0.0,0.0,0.0,-1.9372,-1.9372,-1.9372,-1.9372,-1.8881,-1.7689,-1.7455,-1.6985,-1.5806,-1.45,-1.4262,-1.5569,-1.4381,-1.3665,-1.3665,-1.2534,-1.1947,-1.1784,-1.2125,-1.2215,-1.2028,-1.2028,-1.2028,-1.202,-1.1849,-1.1866,-1.2028,-1.2028,-1.2134,-1.2312,-1.2312,-1.232,-1.232,-1.232,-1.232,-1.232,0.0,0.0,0.0,0.0,0.0,0.0,0.0,0.0,0.0,0.0,0.0,0.0,0.0,0.0,0.0,0.0,0.0,0.0,0.0,0.0,0.0,0.0,0.0,0.0,0.0,0.0,0.0,0.0,0.0,0.0,0.0,0.0,0.0,-2.1109,-2.1109,-2.0589,-1.9164,-1.8908,-1.7871,-1.5033,-1.4782,-1.4259,-1.2832,-1.284,-1.2848,-1.2848,-1.3011,-1.31,-1.31,-1.3279,-1.3376,-1.3376,-1.3384,-1.3392,-1.3401,-1.3401,-1.3409,-1.3409,-1.3409,-1.3409,-1.3409,-1.3409,-1.3401,-1.3384,-1.3392,-1.3392,-1.3376,-1.2956,-1.3093,-1.3368,-1.3368,-1.3376,-1.3376,0.0,0.0,0.0,0.0,0.0,0.0,0.0,-1.9372,-1.9372,-1.9372,-1.8648,-1.7935,-1.7572,-1.6632,-1.6397,-1.6985,-1.5806,-1.5569,-1.6868,-1.4966,-1.3315,-1.2371,-1.2059,-1.1882,-1.1955,-1.2052,-1.2077,-1.2028,-1.2028,-1.1963,-1.1849,-1.1801,-1.1866,-1.2028,-1.2028,-1.2199,-1.2491,-1.2491,-1.2572,-1.2678,-1.2548,-1.2572,-1.2694,0.0,0.0,0.0,0.0,0.0,0.0,0.0,0.0,0.0,0.0,0.0,0.0,0.0,0.0,0.0,0.0,0.0,0.0,0.0,0.0,0.0,0.0,0.0,0.0,0.0,0.0,0.0,0.0,0.0,0.0,0.0,0.0,-2.1109,-2.1109,-2.1109,-2.0208,-1.7882,-1.7496,-1.6462,-1.3613,-1.3358,-1.3227,-1.2832,-1.2954,-1.3027,-1.3027,-1.3197,-1.3295,-1.3295,-1.3344,-1.3433,-1.3571,-1.3693,-1.3823,-1.3961,-1.4083,-1.414,-1.414,-1.414,-1.414,-1.414,-1.414,-1.3993,-1.3766,-1.3896,-1.3807,-1.3555,-1.3287,-1.3231,-1.3368,-1.3368,-1.3457,-1.3587,0.0,0.0,0.0,0.0,0.0,0.0,0.0,-1.9372,-1.9372,-1.9372,-1.8286,-1.7337,-1.675,-1.6514,-1.6514,-1.6632,-1.6514,-1.675,-1.7455,-1.5084,-1.3315,-1.2603,-1.2084,-1.1898,-1.1922,-1.1996,-1.1996,-1.1922,-1.1996,-1.1979,-1.189,-1.2036,-1.2199,-1.2369,-1.2442,-1.2637,-1.2897,-1.2816,-1.2848,-1.2929,-1.2751,-1.2743,-1.284,-1.284,-1.284,-1.2964,-1.439,-1.5294,-1.6073,-1.8267,0.0,0.0,0.0,0.0,0.0,0.0,0.0,0.0,0.0,0.0,0.0,0.0,0.0,0.0,0.0,0.0,0.0,0.0,0.0,0.0,0.0,0.0,0.0,0.0,-2.1109,-2.1109,-2.1109,-2.0589,-1.9164,-1.6462,-1.6073,-1.5294,-1.2964,-1.2905,-1.2946,-1.2946,-1.3108,-1.3206,-1.3206,-1.3457,-1.3595,-1.3595,-1.3742,-1.3863,-1.3977,-1.4075,-1.418,-1.4286,-1.4383,-1.4432,-1.4432,-1.4432,-1.4432,-1.4432,-1.4284,-1.4024,-1.3849,-1.3953,-1.3873,0.0,0.0,0.0,0.0,0.0,-1.366,-1.3766,0.0,0.0,0.0,0.0,0.0,0.0,0.0,-1.9372,-1.9372,-1.9372,-1.8286,-1.7103,-1.5924,-1.6868,-1.6985,-1.5924,-1.6868,-1.7337,-1.7103,-1.4847,-1.3435,-1.3435,-1.2516,-1.1931,-1.1784,-1.1922,-1.1939,-1.1809,-1.1955,-1.2036,-1.2069,-1.2402,-1.2661,-1.284,-1.2994,-1.3165,-1.3327,-1.3141,-1.3068,-1.3051,-1.2897,-1.284,-1.284,-1.284,-1.284,-1.2964,-1.439,-1.5684,-1.698,-1.8524,0.0,0.0,0.0,0.0,0.0,0.0,0.0,0.0,0.0,0.0,0.0,0.0,0.0,0.0,0.0,0.0,0.0,0.0,0.0,0.0,0.0,0.0,0.0,0.0,-2.1109,-2.0982,-2.0716,-1.9559,-1.7871,-1.5424,-1.5192,-1.4557,-1.2997,-1.3027,-1.3124,-1.3124,-1.3311,-1.3433,-1.3433,0.0,0.0,0.0,0.0,-1.4432,-1.4432,-1.4456,-1.4464,-1.4464,-1.4481,-1.4489,-1.4489,-1.4489,-1.4489,-1.4489,-1.4058,-1.3901,-1.3878,-1.3878,-1.387,-1.3823,-1.3946,-1.3961,-1.3818,-1.3961,-1.3961,-1.3961,0.0,0.0,0.0,0.0,0.0,0.0,0.0,-1.9372,-1.9372,-1.9372,-1.8286,-1.7455,-1.7103,-1.7337,-1.7455,-1.7103,-1.7337,-1.6621,-1.4609,0.0,-1.213,-1.213,-1.193,-1.1809,-1.1776,-1.1809,-1.1874,-1.1979,-1.2012,-1.2109,-1.2255,-1.2467,-1.2661,-1.284,-1.2873,-1.2986,-1.3133,-1.2962,-1.2889,-1.2881,-1.2848,-1.284,-1.284,-1.284,-1.284,-1.2964,-1.439,-1.5043,-1.5684,-1.8139,-1.9164,-1.9559,-2.0716,0.0,0.0,0.0,0.0,0.0,0.0,0.0,0.0,0.0,0.0,0.0,0.0,0.0,0.0,0.0,0.0,0.0,0.0,0.0,0.0,-2.1109,-2.1109,-2.0335,-1.8139,-1.7625,-1.7238,-1.6721,-1.6629,-1.582,-1.3311,-1.3206,-1.3319,-1.3319,-1.362,-1.3798,-1.3798,-1.414,-1.4326,-1.4326,-1.4391,-1.4432,-1.4432,-1.4578,-1.4651,-1.4659,0.0,0.0,-1.4862,-1.4862,-1.4862,-1.4862,-1.4862,-1.4637,-1.4509,-1.4509,-1.442,-1.4276,-1.4359,-1.404,-1.3901,-1.4187,-1.4326,-1.4326,0.0,0.0,0.0,0.0,0.0,0.0,0.0,-1.9372,-1.9372,-1.9372,-1.8286,-1.722,-1.6632,-1.7103,-1.722,-1.6632,-1.6514,-1.6042,0.0,-1.2844,-1.1776,-1.1776,-1.1776,-1.1776,-1.1776,-1.1857,-1.1947,-1.2028,-1.2207,-1.2393,-1.258,-1.284,-1.3019,-1.3108,-1.3197,-1.3238,-1.3222,-1.3043,-1.2962,-1.2962,-1.2873,-1.284,-1.284,-1.284,-1.284,-1.2832,-1.3613,-1.4782,-1.6203,-1.7496,-1.8908,-2.0195,-2.0856,-2.1216,-2.1336,0.0,0.0,0.0,0.0,0.0,0.0,0.0,0.0,0.0,0.0,0.0,0.0,0.0,0.0,-2.1109,0.0,0.0,-2.1109,-2.1109,-2.1109,-2.0335,-1.8267,-1.8125,-1.7413,-1.5317,-1.5158,-1.4593,-1.3358,-1.3474,-1.3636,-1.3636,-1.3961,-1.4164,-1.4164,-1.4424,-1.457,-1.457,-1.4651,-1.47,-1.47,-1.4789,-1.4838,-1.4838,-1.4927,-1.4968,-1.4968,-1.4968,-1.4968,-1.4968,-1.4814,-1.4621,-1.4541,-1.4541,-1.4486,-1.4406,-1.4549,-1.4445,-1.4144,-1.4284,-1.4432,-1.4432,0.0,0.0,0.0,0.0,0.0,0.0,0.0,-1.9239,-1.9212,-1.9279,-1.8442,-1.7277,-1.6149,-1.7103,-1.7337,-1.6042,-1.5688,-1.5451,0.0,-1.3084,-1.1776,-1.1776,-1.1776,-1.1776,-1.1776,-1.1947,-1.2044,-1.2085,-1.2402,-1.2661,-1.284,-1.3165,-1.3319,-1.3327,-1.3474,-1.3457,-1.3303,-1.3124,-1.3043,-1.3035,-1.2889,-1.284,-1.284,-1.284,-1.284,-1.2832,-1.3481,-1.5043,-1.7109,-1.7625,-1.9304,-2.1109,-2.1109,-2.1269,-2.147,-2.147,-2.147,0.0,0.0,0.0,0.0,0.0,0.0,0.0,0.0,0.0,-2.1109,-2.1109,-2.1109,-2.1109,-2.1109,-2.1109,-2.1109,-2.1109,-2.1109,-2.0488,-1.8852,-1.8782,-1.7499,-1.3595,-1.3468,-1.3543,-1.3457,-1.3766,-1.3969,-1.4002,-1.4302,-1.4481,-1.4481,-1.4659,-1.4757,-1.4757,-1.4895,-1.4968,-1.4968,-1.4968,-1.4968,-1.4968,-1.4968,-1.4968,-1.4968,-1.4968,-1.4968,-1.4968,-1.4669,-1.4515,-1.4515,-1.4515,-1.4515,-1.4515,-1.4814,-1.4789,-1.4538,-1.4538,-1.4538,-1.4538,0.0,0.0,0.0,0.0,0.0,0.0,0.0,0.0,-1.8677,-1.8945,-1.8858,-1.8365,-1.743,-1.8415,-1.8648,-1.7455,-1.6279,0.0,-1.4023,-1.2603,-1.1776,-1.1776,-1.1776,-1.1776,-1.1776,-1.1947,-1.2109,-1.2272,-1.2467,-1.2661,-1.284,-1.3035,-1.3124,-1.3124,-1.3149,-1.3149,-1.3116,-1.2938,-1.2865,-1.2865,-1.2848,-1.284,-1.284,-1.284,-1.284,-1.3095,-1.5684,-1.6721,-1.7367,-1.9814,-2.0856,-2.1109,-2.1109,-2.1136,-2.1162,-2.1162,0.0,-2.1162,-2.1162,-2.1136,0.0,-2.1109,-2.1109,-2.1109,0.0,0.0,-2.1109,-2.1109,-2.1109,-2.1109,-2.1109,-2.1109,-2.1109,-2.1109,-2.1109,-2.0298,-1.7795,-1.7456,-1.6429,-1.3816,-1.4683,-1.5032,-1.3965,-1.4026,-1.4213,-1.4359,-1.4562,-1.4676,-1.4676,-1.4838,-1.4935,-1.4935,-1.4952,-1.4968,-1.4968,-1.4968,-1.4968,-1.4968,-1.4968,-1.4968,-1.4968,-1.4968,-1.4968,-1.4968,-1.4968,-1.4968,-1.4968,-1.4968,-1.4968,-1.4968,-1.4968,-1.4944,-1.4903,-1.4903,-1.4903,-1.4903,0.0,0.0,0.0,0.0,0.0,0.0,0.0,0.0,0.0,-1.8651,-1.8824,-1.8503,-1.7329,-1.7836,-1.8402,-1.8648,0.0,0.0,-1.4857,-1.2964,-1.1776,-1.1776,-1.1776,-1.1776,-1.1776,-1.1947,-1.2069,-1.2142,-1.2328,-1.2613,-1.2986,-1.2954,-1.3051,-1.3246,-1.3141,-1.3035,-1.2938,-1.2865,-1.284,-1.284,-1.284,-1.284,-1.284,-1.284,-1.284,-1.3095,-1.5033,-1.685,0.0,-1.9559,-2.0462,-2.1109,-2.1109,-2.1109,-2.1109,-2.1109,-2.1109,0.0,-2.1109,0.0,0.0,0.0,-2.1109,-2.1109,-2.1109,-2.1109,-2.1109,-2.1109,-2.1109,-2.1109,-2.1109,-2.1109,-2.1109,0.0,-2.0477,-1.9314,-1.7456,-1.6634,-1.5697,-1.404,-1.4449,-1.4694,-1.4058,-1.4221,-1.4399,-1.4578,-1.4757,-1.4854,-1.4854,-1.4927,-1.4968,-1.4968,-1.4968,-1.4968,-1.4968,-1.4968,-1.4968,-1.4968,-1.4968,-1.4968,-1.4968,-1.4968,-1.4968,-1.4968,-1.4968,-1.4968,-1.4968,-1.4968,-1.4968,-1.4968,-1.4968,-1.4968,-1.4968,-1.4968,-1.4968,-1.4968,0.0,0.0,0.0,0.0,0.0,0.0,0.0,0.0,0.0,0.0,-1.8624,-1.8512,-1.774,-1.7927,-1.8286,-1.8881,0.0,0.0,0.0,-1.3315,-1.213,-1.1776,-1.1776,-1.1776,-1.1776,-1.1947,-1.2028,-1.2028,-1.2215,-1.2523,-1.2946,-1.2816,-1.2929,-1.3214,-1.3084,-1.2954,-1.284,-1.284,-1.284,-1.284,-1.284,-1.284,-1.284,-1.3227,-1.3613,-1.4137,-1.5173,-1.6721,-1.8524,-1.9291,-2.0208,-2.1109,-2.1109,-2.1109,-2.1109,-2.1109,-2.1109,-2.1109,-2.1109,0.0,0.0,-2.1109,-2.1109,-2.1109,-2.1109,-2.1109,-2.1109,-2.1109,-2.1109,-2.1109,-2.1109,-2.1109,-2.1009,-2.0706,-1.9844,-1.8708,-1.6984,-1.6245,-1.5307,-1.4096,-1.414,-1.427,-1.4318,-1.444,-1.4586,-1.4765,-1.4895,-1.4968,-1.4968,-1.4968,-1.4968,-1.4968,-1.4968,-1.4968,-1.4968,-1.4968,-1.4968,-1.4968,-1.4968,-1.4968,-1.4968,-1.4968,-1.4968,-1.4968,-1.4968,-1.4968,-1.4968,-1.4968,-1.4968,-1.4968,-1.4968,-1.4968,-1.4968,-1.4968,-1.4968,-1.4968,0.0,0.0,0.0,0.0,0.0,0.0,0.0,0.0,0.0,0.0,0.0,0.0,0.0,-1.9359,-1.8881,0.0,0.0,0.0,0.0,-1.3665,-1.3075,-1.1897,-1.1776,-1.1776,-1.1776,-1.1947,-1.2028,-1.2028,-1.2215,-1.2402,-1.258,-1.2572,-1.267,-1.2848,-1.2848,-1.284,-1.284,-1.284,-1.284,-1.284,-1.284,-1.284,-1.2964,-1.4259,-1.5684,-1.685,-1.698,-1.698,-1.7496,-2.0208,-2.1109,-2.1109,-2.1109,-2.1109,0.0,-2.1109,-2.1109,-2.1109,-2.1109,0.0,-2.1109,-2.1109,-2.1109,-2.1109,-2.1109,-2.1109,-2.1109,-2.1109,-2.1109,-2.1109,-2.1109,-2.1109,-2.068,-1.9528,-1.9304,-1.8426,-1.6048,-1.5868,-1.5515,-1.4293,-1.4318,-1.4497,0.0,-1.47,-1.4773,-1.4944,-1.496,-1.4968,-1.4968,-1.4968,-1.4968,-1.4968,-1.4968,-1.4968,-1.4968,-1.4968,-1.4968,-1.4968,-1.4968,-1.4968,-1.4968,-1.4968,-1.4968,-1.4968,-1.4968,-1.4968,-1.4968,-1.4968,-1.4968,-1.4968,-1.4968,-1.4968,-1.4968,-1.4968,-1.4968,-1.4968,0.0,0.0,0.0,0.0,0.0,0.0,0.0,0.0,0.0,0.0,0.0,0.0,0.0,0.0,0.0,0.0,0.0,0.0,0.0,-1.4609,-1.3545,-1.3075,-1.2251,-1.1776,-1.1776,-1.1833,-1.1857,-1.1857,-1.1922,-1.2166,-1.2564,-1.2442,-1.2613,-1.3003,-1.2889,-1.284,-1.284,-1.284,-1.284,-1.284,-1.284,-1.284,-1.284,-1.3358,-1.439,-1.5684,0.0,-1.8139,-1.9814,-2.0843,0.0,-2.1109,-2.1109,-2.1109,-2.1109,-2.1109,-2.1109,-2.1109,-2.1109,0.0,-2.1109,-2.1109,-2.1109,-2.1109,-2.1109,-2.1109,-2.1109,-2.1109,-2.1109,-2.1162,-2.1363,-2.1403,-2.1368,-2.1123,-1.9578,-1.8178,-1.7395,-1.5951,-1.477,-1.4497,-1.4578,0.0,0.0,0.0,0.0,-1.4952,-1.4968,-1.4968,-1.4968,-1.4968,-1.4968,-1.4968,-1.4968,-1.4968,-1.4968,-1.4968,-1.4968,-1.4968,-1.4968,-1.4968,-1.4968,-1.4968,-1.4968,-1.4968,-1.4968,-1.4968,-1.4968,-1.4968,-1.4968,-1.4968,-1.4968,-1.4968,-1.4968,-1.4968,-1.4968,-1.4968,0.0,0.0,0.0,0.0,0.0,0.0,0.0,0.0,0.0,0.0,0.0,0.0,0.0,0.0,0.0,0.0,0.0,0.0,0.0,0.0,-1.4609,-1.3784,-1.2964,-1.2251,-1.1776,-1.1776,-1.1776,-1.1776,-1.1776,-1.2012,-1.2467,-1.2361,-1.2556,-1.2994,-1.2889,-1.284,-1.284,-1.284,-1.284,-1.284,-1.284,-1.284,-1.2964,-1.3875,-1.4912,0.0,-1.7753,-1.9559,-2.1109,-2.1109,-2.1109,-2.1109,-2.1109,-2.1109,-2.1109,-2.1109,-2.1109,-2.1109,-2.1109,-2.1109,-2.1109,-2.1109,-2.1109,-2.1109,-2.1109,-2.1109,-2.1109,-2.1109,-2.1189,-2.1323,-2.151,-2.163,-2.1673,-2.1421,-1.9434,-1.7866,-1.7621,-1.5723,-1.4375,-1.4676,-1.4765,-1.4846,0.0,0.0,0.0,-1.496,-1.4968,-1.4968,-1.4968,-1.4968,-1.4968,-1.4968,-1.4968,-1.4968,-1.4968,-1.4968,-1.5,-1.5065,-1.513,-1.5163,-1.5163,-1.5163,-1.5163,-1.5163,-1.5163,-1.5163,-1.5163,-1.5163,-1.5163,-1.5163,-1.5163,-1.5163,-1.5163,-1.5007,-1.4999,-1.4983,0.0,0.0,0.0,0.0,0.0,0.0,0.0,0.0,0.0,0.0,0.0,0.0,0.0,0.0,0.0,0.0,0.0,0.0,0.0,0.0,0.0,-1.3904,-1.3784,-1.3075,-1.1776,-1.1776,-1.1776,-1.1776,-1.1784,-1.1971,-1.2304,-1.2312,-1.2507,-1.284,-1.284,-1.284,-1.284,-1.284,-1.284,-1.284,-1.284,-1.284,-1.3095,-1.5814,-1.698,-1.7367,-2.0068,-2.0982,0.0,0.0,0.0,0.0,-2.1109,-2.1109,-2.1109,-2.1109,-2.1109,-2.1109,-2.1109,-2.1109,-2.1109,-2.1109,-2.1109,-2.1109,-2.1109,-2.1122,-2.1136,-2.1136,-2.1363,-2.1577,0.0,0.0,-2.1567,-2.0355,-1.889,-1.7534,-1.6558,-1.5199,-1.4513,0.0,0.0,0.0,0.0,0.0,0.0,-1.4968,0.0,-1.4968,-1.4968,-1.4968,-1.4968,-1.4968,-1.4976,-1.4984,-1.4984,-1.4992,-1.5082,-1.5252,-1.5431,-1.5512,-1.5512,-1.5512,-1.5512,-1.5512,-1.5512,-1.5512,-1.5512,-1.5512,-1.5512,-1.5512,-1.5512,-1.5512,-1.5512,-1.5034,-1.4867,-1.482,0.0,0.0,0.0,0.0,0.0,0.0,0.0,0.0,0.0,0.0,0.0,0.0,0.0,0.0,0.0,0.0,0.0,0.0,0.0,0.0,0.0,0.0,0.0,0.0,0.0,0.0,0.0,0.0,-1.1906,-1.2085,-1.2312,-1.2434,-1.2621,-1.284,-1.284,-1.284,-1.284,-1.284,-1.284,-1.284,-1.284,-1.284,-1.2964,-1.4782,-1.6073,-1.7238,-1.8908,0.0,0.0,0.0,0.0,0.0,0.0,-2.1109,-2.1109,-2.1109,-2.1109,-2.1109,-2.1109,-2.1109,-2.1109,-2.1109,-2.1109,-2.1109,-2.1109,-2.1283,-2.1443,-2.1443,-2.167,-2.1937,0.0,0.0,0.0,-2.0484,-1.8444,0.0,-1.6651,-1.5406,0.0,-1.4879,0.0,-1.4968,-1.4968,-1.4968,0.0,0.0,-1.4968,-1.4968,-1.4968,-1.4968,-1.4968,-1.4968,-1.5098,-1.5171,-1.5171,-1.5309,-1.5398,-1.5447,-1.5496,-1.5512,-1.5512,-1.5512,-1.5512,-1.5512,-1.5512,-1.5512,-1.5512,-1.5512,-1.5512,-1.5512,-1.5512,-1.5512,-1.5512,-1.5353,-1.5034,-1.4859,0.0,0.0,0.0,0.0,0.0,0.0,0.0,0.0,0.0,0.0,0.0,0.0,0.0,0.0,0.0,0.0,0.0,0.0,0.0,0.0,0.0,0.0,0.0,0.0,0.0,0.0,0.0,0.0,0.0,0.0,-1.2426,-1.2515,-1.2661,-1.284,-1.284,-1.284,-1.284,-1.284,-1.284,0.0,0.0,-1.3744,-1.4006,-1.5944,-1.7227,0.0,0.0,0.0,0.0,0.0,0.0,-2.1109,-2.1109,-2.1109,-2.1109,-2.1109,0.0,-2.1109,-2.1109,-2.1109,-2.1109,-2.1109,-2.1203,-2.1309,-2.1309,-2.1537,-2.175,-2.175,-2.1977,0.0,-2.2392,0.0,0.0,0.0,0.0,0.0,-1.6599,-1.5483,-1.4773,0.0,-1.4968,0.0,-1.4968,-1.4968,-1.4968,0.0,-1.4968,-1.4968,-1.4968,-1.4968,-1.5,-1.5082,-1.5187,-1.5277,-1.5358,-1.5536,-1.5626,-1.5626,-1.5707,-1.5748,-1.5748,-1.5748,-1.5748,-1.5748,0.0,-1.5748,-1.5748,-1.5748,-1.5748,-1.5748,-1.5748,-1.5748,-1.5748,-1.5586,-1.5255,-1.5093,0.0,0.0,0.0,0.0,0.0,0.0,0.0,0.0,0.0,0.0,0.0,0.0,0.0,0.0,0.0,0.0,0.0,0.0,0.0,0.0,0.0,0.0,0.0,0.0,0.0,0.0,0.0,0.0,0.0,0.0,0.0,0.0,0.0,0.0,0.0,-1.284,-1.284,-1.284,-1.284,-1.2964,-1.439,-1.4912,-1.5163,0.0,0.0,0.0,0.0,0.0,0.0,0.0,-2.1109,-2.1109,-2.1109,-2.1109,-2.1109,-2.1109,-2.1109,-2.1109,-2.1109,-2.1109,-2.1122,-2.1162,-2.1363,-2.1563,-2.1603,-2.183,-2.2044,-2.2044,0.0,-2.2472,-2.2472,-2.1445,-2.0491,-2.0352,0.0,-1.6421,-1.6462,-1.5501,-1.4797,-1.4952,-1.4968,-1.4968,-1.4968,-1.4968,-1.4968,-1.4968,-1.4992,-1.5,-1.5,-1.5,-1.5098,-1.5301,-1.5309,-1.5398,-1.5585,-1.5731,-1.5813,-1.5813,-1.5967,-1.6048,-1.6048,-1.6048,-1.6048,-1.6048,-1.6048,-1.6048,-1.6048,-1.6048,-1.6048,-1.6048,-1.6048,-1.6048,-1.5883,-1.5546,-1.5381,-1.5381,0.0,0.0,0.0,0.0,0.0,0.0,0.0,0.0,0.0,0.0,-1.8891,-1.9038,0.0,0.0,0.0,0.0,0.0,0.0,0.0,0.0,0.0,0.0,0.0,0.0,0.0,0.0,0.0,0.0,0.0,0.0,0.0,0.0,0.0,0.0,0.0,-1.284,-1.284,-1.284,-1.284,-1.2964,-1.439,-1.4912,-1.5163,0.0,0.0,0.0,0.0,0.0,0.0,0.0,-2.1109,-2.1109,-2.1109,-2.1109,-2.1109,-2.1109,-2.1109,-2.1109,-2.1109,-2.1109,-2.1162,-2.1416,-2.151,-2.1617,-2.1857,-2.2138,0.0,0.0,-2.2579,-2.2779,-2.2779,-2.1571,-2.0213,-1.8938,0.0,0.0,0.0,0.0,-1.4927,0.0,0.0,0.0,0.0,0.0,0.0,0.0,0.0,-1.5187,-1.5187,-1.5187,-1.5342,-1.5666,-1.5683,-1.5764,-1.5951,-1.5983,-1.5999,-1.5999,-1.6032,-1.6048,-1.6048,-1.6048,-1.6048,-1.6048,-1.6048,0.0,-1.6048,-1.6048,-1.6048,-1.6048,-1.6048,-1.6048,-1.6048,-1.5883,-1.5711,-1.5381,0.0,0.0,0.0,0.0,0.0,0.0,0.0,-1.8838,-1.8985,-1.9132,-1.9158,-1.9212,-1.9359,-1.9372,0.0,0.0,0.0,0.0,0.0,0.0,0.0,0.0,0.0,0.0,0.0,0.0,0.0,0.0,0.0,0.0,0.0,0.0,0.0,0.0,0.0,0.0,0.0,-1.284,-1.284,-1.2964,-1.5163,-1.5944,0.0,0.0,0.0,0.0,0.0,0.0,0.0,0.0,-2.1109,-2.1109,-2.1109,-2.1109,-2.1109,-2.1109,-2.1109,-2.1109,-2.1109,-2.1229,-2.1376,-2.151,-2.1777,-2.2044,-2.2178,0.0,0.0,0.0,-2.2766,-2.2859,-2.2859,0.0,0.0,0.0,0.0,0.0,0.0,0.0,0.0,0.0,0.0,0.0,0.0,0.0,0.0,0.0,0.0,-1.5236,-1.5236,-1.5415,-1.5593,-1.5764,-1.5861,-1.5959,-1.6048,-1.6048,-1.6048,-1.6048,-1.6048,-1.6048,-1.6048,-1.6048,-1.6048,-1.6048,-1.6048,-1.6048,-1.6048,-1.6048,-1.6048,-1.6048,-1.6048,-1.6048,-1.6048,-1.6048,-1.5711,-1.5381,0.0,0.0,0.0,0.0,0.0,0.0,0.0,-1.9025,-1.9105,-1.9332,-1.9372,-1.9372,-1.9372,-1.9372,-1.9372,0.0,0.0,0.0,0.0,0.0,0.0,0.0,0.0,0.0,0.0,0.0,0.0,0.0,0.0,0.0,0.0,0.0,0.0,0.0,0.0,0.0,0.0,0.0,-1.2964,0.0,0.0,0.0,0.0,0.0,0.0,0.0,0.0,0.0,0.0,0.0,-2.1109,-2.1109,-2.1109,-2.1109,-2.1109,-2.1109,-2.1109,-2.1122,-2.1189,-2.1376,-2.1577,-2.171,-2.2084,-2.2432,-2.2498,-2.2699,0.0,0.0,-2.2859,-2.2859,-2.2859,0.0,-2.1044,0.0,-1.8646,0.0,0.0,0.0,0.0,0.0,0.0,0.0,0.0,0.0,0.0,0.0,0.0,0.0,-1.5358,-1.5658,-1.5829,-1.5829,-1.5967,-1.6048,-1.6048,-1.6048,-1.6048,-1.6048,-1.6048,-1.6048,-1.6048,-1.6048,-1.6048,-1.6048,-1.6048,-1.6048,-1.6048,-1.6048,-1.6048,-1.6048,-1.6048,-1.6048,-1.6048,-1.5883,-1.5711,-1.5381,0.0,0.0,0.0,0.0,0.0,0.0,0.0,-1.9332,-1.9332,-1.9359,-1.9372,-1.9372,-1.9372,-1.9372,-1.9372,0.0,0.0,0.0,0.0,0.0,0.0,0.0,0.0,0.0,0.0,0.0,0.0,0.0,0.0,0.0,0.0,0.0,0.0,0.0,0.0,0.0,0.0,0.0,0.0,0.0,0.0,0.0,0.0,0.0,0.0,0.0,0.0,0.0,0.0,0.0,0.0,-2.1109,-2.1109,-2.1109,-2.1109,-2.1109,0.0,0.0,-2.1443,-2.1537,-2.1683,-2.2205,-2.2378,-2.2485,-2.2752,0.0,-2.2859,-2.2859,-2.2859,-2.2859,-2.2859,-2.2722,0.0,0.0,0.0,-1.8217,0.0,0.0,0.0,0.0,0.0,0.0,0.0,0.0,0.0,0.0,0.0,0.0,-1.5723,-1.591,-1.6024,-1.6024,-1.604,-1.6048,-1.6048,-1.6048,-1.6048,-1.6048,-1.6048,-1.6048,-1.6048,-1.6048,-1.6048,-1.6048,-1.6048,-1.6048,0.0,-1.6048,-1.6048,-1.6048,-1.6048,-1.6048,-1.5883,-1.5546,-1.5381,-1.5216,0.0,0.0,0.0,0.0,0.0,0.0,-1.9372,-1.9372,-1.9372,-1.9372,-1.9372,-1.9372,-1.9372,-1.9372,-1.9372,-1.9372,0.0,0.0,0.0,0.0,0.0,0.0,0.0,0.0,0.0,0.0,0.0,-1.4857,0.0,0.0,0.0,0.0,0.0,0.0,0.0,0.0,0.0,0.0,0.0,0.0,0.0,0.0,0.0,0.0,0.0,0.0,0.0,0.0,0.0,0.0,0.0,0.0,-2.1109,-2.1109,0.0,0.0,-2.1229,-2.1403,-2.1523,-2.1804,-2.2124,-2.2365,-2.2552,-2.2712,-2.2832,0.0,-2.2859,-2.2859,-2.2859,-2.2859,-2.2859,-2.2859,-2.2775,0.0,-2.1185,0.0,-1.857,0.0,0.0,0.0,0.0,0.0,0.0,0.0,0.0,0.0,0.0,0.0,-1.5934,-1.6008,-1.6048,-1.6048,-1.6048,-1.6048,-1.6048,-1.6048,-1.6048,-1.6048,-1.6048,-1.6048,-1.6048,-1.6048,-1.6048,-1.6048,-1.6048,-1.6048,0.0,-1.6048,-1.6048,-1.6048,-1.6048,-1.6048,-1.5883,-1.5546,-1.5216,-1.4886,0.0,0.0,0.0,0.0,0.0,-1.9372,-1.9372,-1.9372,-1.9372,-1.9372,-1.9372,-1.9372,-1.9372,-1.9372,-1.9372,-1.9372,-1.9372,0.0,0.0,0.0,0.0,0.0,0.0,0.0,0.0,0.0,-1.6161,-1.6161,-1.6161,-1.6397,0.0,0.0,0.0,0.0,0.0,0.0,0.0,0.0,0.0,0.0,0.0,0.0,0.0,0.0,0.0,0.0,0.0,0.0,0.0,0.0,0.0,0.0,0.0,0.0,0.0,0.0,-2.1323,-2.1577,-2.1657,-2.2044,-2.2445,-2.2525,-2.2712,-2.2859,0.0,0.0,-2.2859,-2.2859,-2.2859,-2.2859,-2.2859,-2.2939,-2.3073,-2.3287,-2.1901,-2.0443,-1.9593,-1.7869,0.0,0.0,0.0,0.0,0.0,0.0,0.0,0.0,0.0,0.0,-1.6048,-1.6048,-1.6048,-1.6048,-1.6048,-1.6048,-1.6048,-1.6048,-1.6048,-1.6048,-1.6048,-1.6048,-1.6048,-1.6048,-1.6048,-1.6048,-1.6048,-1.6048,0.0,-1.6048,-1.6048,-1.6048,-1.6048,-1.6048,-1.5883,-1.5381,-1.5043,-1.4548,0.0,0.0,0.0,0.0,0.0,0.0,-1.9372,-1.9372,-1.9372,-1.9372,-1.9372,-1.9372,-1.9372,-1.9372,-1.9372,-1.9372,-1.9372,0.0,0.0,0.0,0.0,0.0,0.0,0.0,0.0,0.0,-1.7455,-1.7455,-1.7455,-1.8169,-1.9372,-1.8052,-1.7757,0.0,0.0,0.0,0.0,0.0,0.0,0.0,0.0,0.0,-2.1109,0.0,0.0,0.0,0.0,0.0,0.0,0.0,0.0,0.0,0.0,-2.1109,-2.1109,0.0,-2.1323,-2.1617,-2.1897,-2.2191,-2.2485,-2.2779,-2.2859,-2.2859,0.0,0.0,-2.2859,-2.2859,-2.2859,-2.2859,-2.2859,-2.3113,-2.3327,-2.3327,-2.1053,-1.9456,-1.9467,-1.6812,0.0,0.0,0.0,0.0,0.0,0.0,0.0,0.0,0.0,0.0,-1.6048,-1.6048,-1.6048,-1.6048,-1.6048,-1.6048,-1.6048,-1.6048,-1.6048,-1.6048,-1.6048,-1.6048,-1.6048,-1.6048,-1.6048,-1.6048,-1.6048,-1.6048,0.0,-1.6048,-1.6048,-1.6048,-1.6048,-1.6048,-1.5883,-1.5043,-1.4713,-1.4548,0.0,0.0,0.0,0.0,0.0,0.0,0.0,-1.9372,-1.9372,-1.9372,-1.9372,-1.9372,-1.9372,-1.9372,-1.9372,-1.9372,-1.9372,0.0,0.0,0.0,0.0,0.0,0.0,0.0,0.0,0.0,-1.8765,-1.8765,-1.8765,-1.901,-1.9372,-1.901,-1.9011,-1.9331,-1.8081,0.0,0.0,0.0,0.0,0.0,0.0,-2.1109,-2.1109,0.0,0.0,0.0,0.0,0.0,0.0,0.0,0.0,0.0,0.0,0.0,0.0,-2.1349,-2.1617,-2.1911,-2.2205,-2.2498,-2.2739,-2.2846,-2.2859,-2.2859,-2.2859,0.0,-2.2859,-2.2859,-2.2859,-2.2859,-2.2859,-2.3113,-2.3394,-2.3594,-2.2186,-2.0706,-1.9832,0.0,0.0,0.0,0.0,0.0,0.0,0.0,0.0,0.0,0.0,0.0,-1.5546,-1.5875,-1.6048,-1.6048,-1.6048,-1.6048,-1.6048,-1.6048,-1.6048,-1.6048,-1.6048,-1.6048,-1.6048,-1.6048,-1.6048,-1.6048,-1.6048,-1.6048,-1.6048,-1.6048,-1.6048,-1.6048,-1.6048,-1.5883,-1.5546,-1.4878,-1.4555,-1.4225,0.0,0.0,0.0,0.0,0.0,0.0,0.0,-1.9372,-1.9372,-1.9372,-1.9372,-1.9372,-1.9372,-1.9372,-1.9372,-1.9372,-1.9372,0.0,0.0,0.0,0.0,0.0,0.0,0.0,0.0,-1.9372,-1.9372,-1.9372,-1.9372,-1.9372,-1.9372,-1.9372,-1.9519,-1.9813,-1.9248,0.0,0.0,0.0,0.0,0.0,-2.1109,-2.1109,-2.1109,0.0,0.0,0.0,0.0,0.0,0.0,0.0,0.0,0.0,0.0,0.0,0.0,0.0,-2.1924,-2.2191,-2.2365,-2.2632,-2.2859,-2.2859,-2.2859,0.0,0.0,0.0,0.0,-2.2859,-2.2859,-2.2899,-2.302,-2.3287,-2.3594,-2.3888,-2.2251,-2.0694,-1.994,0.0,0.0,0.0,0.0,0.0,0.0,0.0,0.0,0.0,0.0,0.0,-1.5381,-1.5719,-1.6048,-1.6048,-1.6048,-1.6048,-1.6048,-1.6048,-1.6048,-1.6048,-1.6048,-1.6048,-1.6048,-1.6048,-1.6048,-1.6048,-1.6048,-1.6048,0.0,-1.6048,-1.6048,-1.6048,-1.6048,-1.5711,-1.5381,-1.4878,-1.439,-1.4066,0.0,0.0,0.0,0.0,0.0,0.0,0.0,-1.9372,-1.9372,-1.9372,-1.9372,-1.9372,-1.9372,-1.9372,-1.9372,-1.9372,0.0,0.0,0.0,0.0,0.0,0.0,0.0,0.0,-1.9372,-1.9372,-1.9372,-1.9372,-1.9372,-1.9372,-1.9372,-1.9372,-1.9519,-1.9813,-2.0107,-1.9653,0.0,0.0,0.0,0.0,-2.1109,-2.1109,0.0,0.0,0.0,0.0,0.0,0.0,0.0,0.0,0.0,0.0,0.0,0.0,0.0,0.0,0.0,0.0,0.0,-2.2645,-2.2859,-2.2859,-2.2859,0.0,0.0,0.0,0.0,0.0,0.0,-2.2979,-2.3273,-2.3581,-2.3888,-2.4155,-2.1745,-1.9811,-1.9811,-1.7093,0.0,0.0,0.0,0.0,0.0,0.0,0.0,0.0,0.0,0.0,-1.5381,-1.5711,-1.6048,-1.6048,-1.6048,-1.6048,-1.6048,-1.6048,-1.6048,-1.6048,-1.6048,-1.6048,-1.6048,-1.6048,-1.6048,0.0,-1.6048,-1.6048,-1.6048,-1.6048,-1.6048,-1.6048,-1.6048,-1.5711,-1.5216,-1.4886,-1.439,-1.4066,0.0,0.0,0.0,0.0,0.0,0.0,0.0,0.0,0.0,0.0,-1.9372,-1.9372,-1.9372,-1.9372,-1.9372,0.0,0.0,0.0,0.0,0.0,0.0,0.0,0.0,0.0,-1.9372,-1.9372,-1.9372,-1.9372,-1.9372,-1.9372,-1.9372,-1.9372,-1.9519,-1.9813,-2.0107,-2.0275,0.0,0.0,0.0,0.0,-2.1109,-2.1109,0.0,0.0,0.0,0.0,-2.1109,-2.1109,0.0,0.0,0.0,0.0,0.0,0.0,0.0,0.0,-2.2191,-2.2472,-2.2699,0.0,-2.2859,-2.2859,-2.2859,-2.2859,0.0,0.0,0.0,0.0,0.0,0.0,0.0,-2.3754,-2.4128,-2.4195,-2.1745,-1.9811,-1.9811,0.0,0.0,0.0,0.0,0.0,0.0,0.0,0.0,0.0,0.0,-1.439,-1.4878,-1.5216,-1.5711,-1.6048,-1.6048,-1.6048,-1.6048,-1.6048,-1.6048,-1.6048,-1.6048,-1.6048,-1.6048,-1.6048,-1.6048,-1.6048,-1.6048,-1.6048,-1.6048,-1.6048,-1.6048,-1.6048,-1.5711,-1.5216,-1.4878,-1.439,-1.3901,-1.3569,0.0,0.0,0.0,0.0,0.0,0.0,0.0,0.0,0.0,0.0,0.0,0.0,0.0,0.0,0.0,0.0,0.0,0.0,0.0,0.0,0.0,0.0,0.0,-1.9372,-1.9372,-1.9372,-1.9372,-1.9372,-1.9372,-1.9372,-1.9372,-1.9372,-1.9519,-1.9813,-2.0241,-2.0615,0.0,0.0,0.0,-2.1109,-2.1109,0.0,0.0,0.0,0.0,0.0,-2.1109,-2.1109,0.0,-2.1109,-2.1109,-2.1109,0.0,0.0,0.0,0.0,-2.2285,-2.2659,-2.2819,-2.2859,-2.2859,-2.2859,-2.2859,-2.2859,0.0,0.0,0.0,0.0,0.0,0.0,0.0,0.0,0.0,-2.3331,-2.0624,-1.8461,0.0,0.0,0.0,0.0,0.0,0.0,0.0,0.0,0.0,0.0,0.0,-1.4232,-1.4713,-1.5216,-1.5546,-1.6048,-1.6048,-1.6048,-1.6048,-1.6048,-1.6048,-1.6048,-1.6048,-1.6048,-1.6048,-1.6048,-1.6048,-1.6048,-1.6048,-1.6048,-1.6048,-1.5875,-1.5719,-1.5711,-1.5216,-1.4886,-1.439,-1.4232,-1.3735,-1.3403,0.0,0.0,0.0,0.0,0.0,0.0,0.0,0.0,0.0,0.0,0.0,0.0,0.0,0.0,0.0,0.0,0.0,0.0,0.0,0.0,0.0,0.0,0.0,-1.9372,-1.9372,-1.9372,-1.9372,-1.9372,-1.9372,-1.9372,-1.9372,-1.9412,-1.9613,-1.996,-2.0494,-2.0735,0.0,0.0,-2.1109,-2.1109,-2.1109,0.0,0.0,0.0,0.0,0.0,0.0,0.0,0.0,-2.1109,-2.1109,-2.1122,-2.1162,0.0,0.0,0.0,0.0,0.0,-2.2859,-2.2859,-2.2859,-2.2859,-2.2859,-2.2859,0.0,0.0,0.0,0.0,0.0,0.0,0.0,0.0,0.0,0.0,0.0,0.0,0.0,0.0,0.0,0.0,0.0,0.0,0.0,0.0,0.0,0.0,0.0,-1.4225,-1.4713,-1.5051,-1.5546,-1.6048,-1.6048,-1.6048,-1.6048,-1.6048,-1.6048,-1.6048,-1.6048,-1.6048,-1.6048,-1.6048,-1.6048,-1.6048,-1.5883,0.0,-1.5883,-1.5381,-1.5216,-1.5216,-1.4721,-1.439,-1.4066,-1.4066,-1.3735,-1.3403,0.0,0.0,0.0,0.0,0.0,0.0,0.0,0.0,0.0,0.0,0.0,0.0,0.0,0.0,0.0,0.0,0.0,0.0,0.0,0.0,0.0,-1.9372,-1.9372,-1.9372,-1.9372,-1.9372,-1.9372,-1.9372,-1.9372,-1.9372,-1.9372,-1.9626,-2.0027,-2.0561,-2.0895,-2.1042,-2.1042,-2.1096,-2.1109,-2.1109,-2.1109,0.0,0.0,0.0,0.0,0.0,0.0,0.0,0.0,-2.1109,-2.1109,-2.1149,-2.1403,0.0,0.0,0.0,0.0,0.0,-2.2859,-2.2859,-2.2859,-2.2859,-2.2859,-2.2859,0.0,0.0,0.0,0.0,0.0,0.0,0.0,0.0,0.0,0.0,0.0,0.0,0.0,0.0,0.0,0.0,0.0,0.0,0.0,0.0,0.0,0.0,0.0,-1.3894,-1.4713,-1.4713,-1.5216,-1.6048,-1.6048,-1.6048,-1.6048,-1.6048,-1.6048,-1.6048,-1.6048,-1.6048,-1.6048,-1.6048,-1.6048,-1.6048,0.0,-1.5546,-1.5381,-1.5051,-1.4878,-1.4713,-1.439,-1.4232,-1.4066,-1.3569,-1.3403,-1.3417,0.0,0.0,0.0,0.0,0.0,0.0,0.0,0.0,0.0,0.0,0.0,0.0,0.0,0.0,0.0,0.0,0.0,0.0,0.0,0.0,0.0,-1.9372,-1.9372,-1.9372,-1.9372,-1.9372,-1.9372,-1.9372,-1.9372,-1.9452,-1.9613,-2.0067,-2.0334,-2.0454,-2.0909,-2.1029,-2.0882,-2.1042,-2.1109,-2.1109,0.0,0.0,0.0,0.0,0.0,0.0,0.0,0.0,0.0,0.0,-2.1216,-2.1376,-2.151,0.0,0.0,0.0,0.0,0.0,-2.2859,-2.2859,-2.2859,-2.2859,-2.2859,-2.2859,0.0,0.0,0.0,0.0,0.0,0.0,0.0,0.0,0.0,0.0,0.0,0.0,0.0,0.0,0.0,0.0,0.0,0.0,0.0,0.0,0.0,0.0,0.0,-1.3728,-1.439,-1.4555,-1.5051,-1.5711,-1.5883,-1.6048,-1.6048,-1.6048,-1.6048,-1.6048,-1.6048,-1.6048,-1.6048,-1.6048,-1.6048,-1.6048,0.0,-1.5381,-1.5381,-1.4721,-1.439,-1.4397,-1.3992,-1.386,-1.3867,-1.3614,-1.3641,-1.3648,0.0,0.0,0.0,0.0,0.0,0.0,0.0,0.0,0.0,0.0,0.0,0.0,0.0,0.0,0.0,0.0,0.0,0.0,0.0,0.0,-1.9372,-1.9372,-1.9372,-1.9372,-1.9372,-1.9372,-1.9372,-1.9372,-1.9439,-1.9653,-2.0013,-2.0468,-2.0628,-2.0561,-2.1015,-2.1096,-2.0895,-2.1122,-2.1176,-2.1109,0.0,0.0,0.0,0.0,0.0,0.0,0.0,0.0,0.0,0.0,0.0,0.0,0.0,0.0,0.0,-2.2498,-2.2686,-2.2859,-2.2859,-2.2859,-2.2859,-2.2859,0.0,0.0,0.0,0.0,0.0,0.0,0.0,0.0,0.0,0.0,0.0,0.0,0.0,0.0,0.0,0.0,0.0,0.0,0.0,0.0,0.0,0.0,0.0,0.0,0.0,-1.3569,-1.4066,-1.439,-1.4886,-1.5381,-1.5711,-1.5883,-1.6048,-1.6089,-1.6089,-1.6048,-1.6048,-1.6048,-1.6048,-1.5883,-1.5875,-1.5883,-1.5381,-1.5074,-1.5112,-1.4289,-1.3978,-1.402,-1.3803,-1.3682,-1.3695,-1.3797,-1.3838,-1.3844,0.0,0.0,0.0,0.0,0.0,0.0,0.0,0.0,0.0,0.0,0.0,0.0,0.0,0.0,0.0,0.0,0.0,0.0,0.0,0.0,-1.9372,-1.9372,-1.9372,-1.9372,-1.9372,-1.9372,-1.9372,-1.9372,-1.9639,-2.0054,-2.0615,-2.0655,-2.0962,-2.1456,-2.1496,-2.151,-2.1496,-2.151,-2.1363,-2.1109,-2.1109,0.0,0.0,0.0,0.0,0.0,0.0,0.0,0.0,0.0,0.0,0.0,0.0,0.0,-2.2472,-2.2752,-2.2846,-2.2859,-2.2859,-2.2859,-2.2859,0.0,0.0,0.0,0.0,0.0,0.0,0.0,0.0,0.0,0.0,0.0,0.0,0.0,0.0,0.0,0.0,0.0,0.0,0.0,0.0,0.0,0.0,0.0,0.0,0.0,-1.3403,-1.3569,-1.4066,-1.4066,-1.4563,-1.5381,-1.5381,-1.5546,-1.6048,-1.6202,-1.6202,-1.6048,-1.6048,-1.6048,-1.6048,-1.5546,-1.5381,-1.5381,-1.4563,-1.4311,-1.4273,-1.3775,-1.3688,-1.381,-1.3824,-1.3824,-1.3824,-1.3838,-1.3838,-1.3865,0.0,0.0,0.0,0.0,0.0,0.0,0.0,0.0,0.0,0.0,0.0,0.0,0.0,0.0,0.0,0.0,0.0,0.0,0.0,-1.9426,-1.9372,-1.9372,-1.9372,-1.9452,-1.9639,-1.9466,-1.9452,-1.9639,-2.0294,-2.0735,-2.0949,-2.1323,-2.1603,-2.1817,-2.163,-2.155,-2.1537,-2.1363,-2.1216,-2.1109,-2.1109,-2.1109,0.0,0.0,0.0,0.0,0.0,0.0,0.0,0.0,-2.1697,-2.2111,-2.2218,-2.2458,-2.2712,-2.2832,-2.2859,-2.2859,-2.2859,-2.2859,0.0,0.0,0.0,0.0,0.0,0.0,0.0,0.0,0.0,0.0,0.0,0.0,0.0,0.0,0.0,0.0,0.0,0.0,0.0,0.0,0.0,0.0,0.0,0.0,0.0,0.0,-1.3403,-1.3403,-1.3735,-1.3901,-1.4232,-1.4563,-1.5051,-1.5435,-1.5711,-1.5774,-1.5829,-1.5869,-1.5869,-1.57,-1.5539,-1.5371,-1.5202,-1.5202,-1.4689,-1.4387,-1.4436,-1.3933,-1.379,-1.3851,-1.3946,-1.4041,-1.4129,-1.4129,-1.4129,-1.4136,0.0,0.0,0.0,0.0,0.0,0.0,0.0,0.0,0.0,0.0,0.0,0.0,0.0,0.0,0.0,0.0,0.0,0.0,-1.9386,-1.9372,-1.9372,-1.9372,-1.9452,-1.9599,-1.98,-1.9786,-1.988,-2.008,-2.0869,-2.1296,-2.139,-2.179,-2.1991,-2.1977,-2.1777,-2.1643,-2.1537,-2.1336,-2.1189,-2.1109,-2.1109,-2.1109,0.0,0.0,0.0,0.0,0.0,0.0,0.0,0.0,-2.2017,-2.2418,-2.2418,-2.2619,-2.2859,-2.2859,-2.2859,-2.2859,-2.2859,-2.2939,-2.2921,0.0,0.0,0.0,0.0,0.0,0.0,0.0,0.0,0.0,0.0,0.0,0.0,0.0,0.0,0.0,0.0,0.0,0.0,0.0,0.0,0.0,0.0,0.0,0.0,-1.3403,-1.3403,-1.3403,-1.3403,-1.3735,-1.3901,-1.4066,-1.4773,-1.5188,-1.5302,-1.5409,-1.5516,-1.5459,-1.5511,-1.5481,-1.522,-1.5049,-1.5049,-1.4878,-1.4529,-1.4386,-1.4435,-1.4084,-1.3939,-1.3994,-1.4102,-1.4204,-1.4299,-1.4299,-1.4299,-1.4299,0.0,0.0,0.0,0.0,0.0,0.0,0.0,0.0,0.0,0.0,0.0,0.0,0.0,0.0,0.0,0.0,0.0,0.0,-1.9386,-1.9372,-1.9372,-1.9372,-1.9653,-1.9813,-1.9813,-2.0388,-2.0695,-2.0681,-2.1269,-2.171,-2.1991,-2.1991,-2.1991,-2.1991,-2.1991,-2.1817,-2.155,-2.155,-2.1376,-2.1109,-2.1109,-2.1109,-2.1109,0.0,0.0,0.0,0.0,0.0,0.0,0.0,-2.2178,-2.2418,-2.2418,-2.2619,-2.2859,-2.2859,-2.2859,-2.2859,-2.2859,-2.3086,0.0,0.0,0.0,0.0,0.0,0.0,0.0,0.0,0.0,0.0,0.0,0.0,0.0,0.0,0.0,0.0,0.0,0.0,0.0,0.0,0.0,0.0,0.0,0.0,-1.3403,-1.3403,-1.3403,-1.3403,-1.3403,-1.3403,-1.3569,-1.4066,-1.4216,-1.4462,-1.4967,-1.5287,-1.5111,-1.4771,-1.492,-1.501,-1.5227,-1.4707,-1.4536,-1.4536,-1.4016,-1.3933,-1.4075,-1.4075,-1.4163,-1.4299,-1.4299,-1.4299,-1.4299,-1.4299,-1.4299,-1.4299,0.0,0.0,0.0,0.0,0.0,0.0,0.0,0.0,0.0,0.0,0.0,0.0,0.0,0.0,0.0,0.0,0.0,0.0,-1.9372,-1.9559,-1.9666,-1.9666,-1.9947,-2.0294,-2.0708,-2.1496,-2.1697,-2.1296,-2.1871,-2.2205,-2.2285,-2.2285,-2.2285,-2.2271,-2.1857,-2.163,-2.1537,-2.1336,-2.1189,-2.1122,-2.1336,-2.1416,-2.1443,0.0,0.0,0.0,0.0,0.0,0.0,0.0,0.0,0.0,-2.2726,-2.2792,-2.2859,-2.2859,-2.2859,-2.2859,-2.2859,-2.2228,0.0,0.0,0.0,0.0,0.0,0.0,0.0,0.0,0.0,0.0,0.0,0.0,0.0,0.0,0.0,0.0,0.0,0.0,0.0,0.0,0.0,0.0,0.0,0.0,-1.3403,-1.3403,-1.3403,-1.3403,-1.3403,-1.3403,-1.3403,-1.3569,-1.4041,-1.4513,-1.4628,-1.4837,-1.4995,-1.4928,-1.4625,-1.4604,-1.4513,-1.4338,-1.4338,-1.4338,-1.4163,-1.419,-1.4231,-1.4231,-1.4258,-1.4299,-1.4299,-1.4299,-1.4299,-1.4299,-1.4299,-1.4299,0.0,0.0,0.0,0.0,0.0,0.0,0.0,0.0,0.0,0.0,0.0,0.0,0.0,0.0,0.0,0.0,0.0,0.0,0.0,-1.9706,-1.9853,-1.996,-2.0361,-2.0909,-2.1617,-2.2151,-2.2298,-2.2071,-2.2418,-2.2539,-2.2418,-2.2418,-2.2298,-2.2058,-2.171,-2.1483,-2.1376,-2.1309,-2.1283,-2.1309,-2.1603,-2.1724,-2.175,0.0,0.0,0.0,0.0,0.0,0.0,0.0,0.0,0.0,-2.2859,-2.2859,-2.2859,-2.2859,-2.2859,-2.2749,-2.2302,0.0,0.0,0.0,0.0,0.0,0.0,0.0,0.0,0.0,0.0,0.0,0.0,0.0,0.0,0.0,0.0,0.0,0.0,0.0,0.0,0.0,0.0,0.0,0.0,-1.3403,-1.3403,-1.3403,-1.3403,-1.3403,-1.3403,-1.3403,-1.3403,-1.3403,-1.3937,-1.4089,-1.4358,-1.4402,-1.4555,-1.4646,-1.4476,-1.4299,-1.4299,-1.4299,-1.4299,-1.4299,-1.4299,-1.4299,-1.4299,-1.4299,-1.4299,-1.4299,-1.4299,-1.4299,-1.4299,-1.4299,-1.4299,-1.4299,0.0,0.0,0.0,0.0,0.0,0.0,0.0,0.0,0.0,0.0,0.0,0.0,0.0,0.0,0.0,0.0,0.0,0.0,0.0,0.0,-2.0013,-2.0294,-2.0895,-2.1603,-2.2405,-2.2445,-2.2592,-2.2859,-2.2832,-2.2686,-2.2418,-2.2365,-2.2058,-2.155,-2.1523,-2.1376,-2.1162,-2.1443,-2.1563,-2.1617,-2.1911,-2.2031,-2.2031,-2.2058,0.0,0.0,0.0,0.0,0.0,0.0,0.0,0.0,-2.2859,-2.2859,-2.2859,-2.2859,-2.2873,-2.2402,0.0,0.0,0.0,0.0,0.0,0.0,0.0,0.0,0.0,0.0,0.0,0.0,0.0,0.0,0.0,0.0,0.0,0.0,0.0,0.0,0.0,0.0,0.0,0.0,-1.3403,-1.3403,-1.3403,-1.3403,-1.3403,-1.3403,-1.3403,-1.3403,-1.3403,-1.3403,-1.3688,-1.3838,-1.3838,-1.4143,-1.4299,-1.4299,-1.4299,-1.4299,-1.4299,-1.4299,-1.4299,-1.4299,-1.4299,-1.4299,-1.4299,-1.4299,-1.4299,-1.4299,-1.4299,-1.4299,-1.4299,-1.4299,-1.4299,-1.4299,0.0,0.0,0.0,0.0,0.0,0.0,0.0,0.0,0.0,0.0,0.0,0.0,0.0,0.0,0.0,0.0,0.0,0.0,0.0,0.0,-2.0615,-2.0909,-2.1697,-2.2231,-2.2418,-2.2645,-2.2806,-2.2859,-2.2632,-2.2485,-2.2405,-2.1951,-2.167,-2.1537,-2.1309,-2.1296,-2.1456,-2.1523,-2.1683,-2.1924,-2.2205,-2.2325,-2.2352,-2.2579,-2.2712,0.0,0.0,0.0,0.0,0.0,0.0,0.0,-2.2859,-2.2859,-2.2859,-2.2859,-2.2177,-2.1224,0.0,0.0,0.0,0.0,0.0,0.0,0.0,0.0,0.0,0.0,0.0,0.0,0.0,0.0,0.0,0.0,0.0,0.0,0.0,0.0,0.0,0.0,0.0,0.0,-1.3403,-1.3403,-1.3403,-1.3403,-1.3403,-1.3403,-1.3403,-1.3403,-1.3403,-1.3403,-1.3688,-1.3838,-1.3838,-1.4143,-1.4299,-1.4299,-1.4299,-1.4299,-1.4299,-1.4299,-1.4299,-1.4299,-1.4299,-1.4299,-1.4299,-1.4299,-1.4299,-1.4299,-1.4299,-1.4299,-1.4299,-1.4299,-1.4299,-1.4299,0.0,0.0,0.0,0.0,0.0,0.0,0.0,0.0,0.0,0.0,0.0,0.0,0.0,0.0,0.0,0.0,0.0,0.0,0.0,0.0,-2.1136,-2.171,-2.2178,-2.2485,-2.2632,-2.2779,-2.2792,-2.2645,-2.2352,-2.2218,0.0,-2.1764,-2.147,-2.1336,-2.1323,-2.1403,-2.1577,-2.1844,-2.2058,-2.2218,-2.2512,-2.2632,-2.2645,-2.2806,-2.2859,-2.2859,-2.2859,0.0,0.0,0.0,0.0,0.0,0.0,0.0,-2.2886,-2.3046,-2.2623,-2.1795,0.0,0.0,0.0,0.0,0.0,0.0,0.0,0.0,0.0,0.0,0.0,0.0,0.0,0.0,0.0,0.0,0.0,0.0,0.0,0.0,0.0,0.0,0.0,-1.3403,-1.3403,-1.3403,-1.3403,-1.3403,-1.3403,-1.3403,-1.3403,-1.3403,-1.3403,-1.3403,-1.3688,-1.3838,-1.3838,-1.4143,-1.4299,-1.4299,-1.4299,-1.4299,-1.4299,-1.4299,-1.4299,-1.4299,-1.4299,-1.4299,-1.4299,-1.4299,-1.4299,-1.4299,-1.4299,-1.4299,-1.4299,-1.4299,-1.4299,-1.4299,0.0,0.0,0.0,0.0,0.0,0.0,0.0,0.0,0.0,0.0,0.0,0.0,0.0,0.0,0.0,0.0,0.0,0.0,0.0,0.0,0.0,-2.1975,-2.2337,-2.2605,-2.2859,-2.2806,-2.2672,-2.2418,-2.2084,0.0,0.0,0.0,0.0,-2.1203,-2.1496,-2.1657,-2.1737,-2.2218,-2.2445,-2.2512,-2.2766,-2.2859,-2.2859,-2.2859,-2.2859,-2.2859,-2.2859,-2.2859,-2.2859,-2.2859,0.0,0.0,0.0,0.0,-2.3006,-2.3313,-2.3153,-2.2576,0.0,0.0,0.0,0.0,0.0,0.0,0.0,0.0,0.0,0.0,0.0,0.0,0.0,0.0,0.0,0.0,0.0,0.0,0.0,0.0,0.0,0.0,0.0,-1.3403,-1.3403,-1.3403,-1.3403,-1.3403,-1.3403,-1.3403,-1.3403,-1.3403,-1.3403,-1.3403,-1.3688,-1.3838,-1.3838,-1.4143,-1.4299,-1.4299,-1.4299,-1.4299,-1.4299,-1.4299,-1.4299,-1.4299,-1.4299,-1.4299,-1.4299,-1.4299,-1.4299,-1.4299,-1.4299,-1.4299,-1.4299,-1.4299,-1.4299,-1.4299,0.0,0.0,0.0,0.0,0.0,0.0,0.0,0.0,0.0,0.0,0.0,0.0,0.0,0.0,0.0,0.0,0.0,0.0,-2.1416,0.0,0.0,-2.0502,-2.1978,-2.2819,-2.2859,-2.2605,-2.2458,-2.2418,0.0,0.0,0.0,0.0,0.0,-2.151,0.0,0.0,-2.2311,-2.2392,-2.2565,-2.2806,-2.2846,-2.2859,-2.2859,-2.2859,-2.2859,-2.2859,-2.2859,-2.2859,-2.2859,-2.2859,-2.2859,0.0,0.0,0.0,-2.3327,-2.3621,-2.287,-2.1886,0.0,0.0,0.0,0.0,0.0,0.0,0.0,0.0,0.0,0.0,0.0,0.0,0.0,0.0,0.0,0.0,0.0,0.0,0.0,0.0,0.0,0.0,-1.3403,-1.3403,-1.3403,-1.3403,-1.3403,-1.3403,-1.3403,-1.3403,-1.3403,-1.3403,-1.3403,-1.3403,-1.3688,-1.3838,-1.3838,-1.4143,-1.4299,-1.4299,-1.4299,-1.4299,-1.4299,-1.4299,-1.4299,-1.4299,-1.4299,-1.4299,-1.4299,-1.4299,-1.4299,-1.4299,-1.4299,-1.4299,-1.4299,-1.4299,-1.4299,-1.4299,0.0,0.0,0.0,0.0,0.0,0.0,0.0,0.0,0.0,0.0,0.0,0.0,0.0,0.0,0.0,-2.1122,-2.1283,-2.155,-2.2004,-2.0637,-2.0427,-2.1693,-2.1531,-2.179,-2.2605,-2.1507,-2.0952,-2.0965,0.0,0.0,0.0,-1.9456,-2.034,0.0,0.0,0.0,0.0,0.0,0.0,-2.2859,-2.2859,-2.2448,-2.1747,-2.2585,-2.2297,-2.176,-2.2783,-2.3126,-2.3153,-2.3313,-2.3367,-2.3394,-2.3527,0.0,0.0,0.0,-2.3655,0.0,0.0,0.0,0.0,0.0,0.0,0.0,0.0,0.0,0.0,0.0,0.0,0.0,0.0,0.0,0.0,0.0,0.0,0.0,0.0,0.0,0.0,-1.3403,-1.3403,-1.3403,-1.3403,-1.3403,-1.3403,-1.3403,-1.3403,-1.3403,-1.3403,-1.3403,-1.3403,-1.3403,-1.3688,-1.3838,-1.3838,-1.4143,-1.4299,-1.4299,-1.4299,-1.4299,-1.4299,-1.4299,-1.4299,-1.4299,-1.4299,-1.4299,-1.4299,-1.4299,-1.4299,-1.4299,-1.4299,-1.4299,-1.4299,-1.4299,-1.4299,-1.4299,0.0,0.0,0.0,0.0,0.0,0.0,0.0,0.0,0.0,0.0,0.0,0.0,0.0,0.0,0.0,0.0,-2.0797,-2.0737,-2.0749,-1.9403,-1.946,-2.1531,-2.065,-2.0712,-2.1867,-2.0513,-1.9735,0.0,0.0,0.0,-1.763,-1.7402,-1.8653,0.0,-2.0107,0.0,0.0,0.0,0.0,0.0,-2.1885,-2.1321,-2.0641,-2.1546,-2.1155,-2.0343,-2.2179,-2.2858,-2.2897,-2.3545,-2.3768,-2.3781,-2.3861,-2.3875,0.0,0.0,0.0,0.0,0.0,0.0,0.0,0.0,0.0,0.0,0.0,0.0,0.0,0.0,0.0,0.0,0.0,0.0,0.0,0.0,0.0,0.0,0.0,0.0,0.0,-1.3403,-1.3403,-1.3403,-1.3403,-1.3403,-1.3403,-1.3403,-1.3403,-1.3403,-1.3403,-1.3403,-1.3403,-1.3403,-1.3688,-1.3838,-1.3838,-1.4143,-1.4299,-1.4299,-1.4299,-1.4299,-1.4299,-1.4299,-1.4299,-1.4299,-1.4299,-1.4299,-1.4299,-1.4299,-1.4299,-1.4299,-1.4299,-1.4299,-1.4299,-1.4299,-1.4299,-1.4299,0.0,0.0,0.0,0.0,0.0,0.0,0.0,0.0,0.0,0.0,0.0,0.0,-1.9139,-1.9253,-1.9519,-1.9808,-1.8823,-1.7591,-1.6382,-1.872,-1.9581,-1.8003,-1.9189,0.0,-2.0367,-1.9977,0.0,0.0,0.0,0.0,-1.7876,-1.652,-1.6768,-1.8626,-1.8497,-1.9345,-2.0605,0.0,0.0,0.0,0.0,-1.9367,-2.0515,-1.9357,-1.8877,-1.9041,-2.0744,-2.1414,-2.1701,-2.3327,-2.3768,-2.3821,-2.4102,-2.4182,-2.4235,0.0,0.0,0.0,0.0,0.0,0.0,0.0,0.0,0.0,0.0,0.0,0.0,0.0,0.0,0.0,0.0,0.0,0.0,0.0,0.0,0.0,0.0,0.0,-1.3403,-1.3403,-1.3403,-1.3403,-1.3403,-1.3403,-1.3403,-1.3403,-1.3403,-1.3403,-1.3403,-1.3403,-1.3403,-1.3403,-1.3688,-1.3838,-1.3838,-1.4143,-1.4299,-1.4299,-1.4299,-1.4299,-1.4299,-1.4299,-1.4299,-1.4299,-1.4299,-1.4299,-1.4299,-1.4299,-1.4299,-1.4299,-1.4299,-1.4299,-1.4299,-1.4299,-1.4299,-1.4299,0.0,0.0,0.0,0.0,0.0,0.0,0.0,0.0,0.0,0.0,0.0,0.0,0.0,-1.7949,-1.849,-1.9687,-1.9393,-1.862,-1.7266,-1.7265,-1.7591,-1.7916,-1.7507,-1.7675,-1.8709,-1.7527,0.0,0.0,0.0,-1.5144,-1.5334,-1.4788,-1.5379,-1.6987,-1.6987,-1.783,-1.9077,-1.8659,0.0,0.0,0.0,0.0,0.0,0.0,0.0,0.0,0.0,0.0,0.0,-2.2484,-2.3426,-2.4342,-2.4449,-2.4476,-2.4502,-2.4609,-2.4636,-2.4179,-2.267,0.0,0.0,0.0,0.0,0.0,0.0,0.0,0.0,0.0,0.0,0.0,0.0,0.0,0.0,0.0,0.0,0.0,0.0,0.0,-1.3403,-1.3403,-1.3403,-1.3403,-1.3403,-1.3403,-1.3403,-1.3403,-1.3403,-1.3403,-1.3403,-1.3403,-1.3403,-1.3403,-1.3688,-1.3933,-1.4136,-1.4245,-1.4299,-1.4299,-1.4299,-1.4299,-1.4299,-1.4299,-1.4299,-1.4299,-1.4299,-1.4299,-1.4299,-1.4299,-1.4299,-1.4299,-1.4299,-1.4299,-1.4299,-1.4299,-1.4299,-1.4299,0.0,0.0,0.0,0.0,0.0,0.0,0.0,0.0,0.0,0.0,0.0,0.0,0.0,0.0,-1.6799,-1.7641,-1.862,-1.8485,-1.6586,-1.6038,-1.6225,-1.7107,-1.6147,-1.6038,-1.721,0.0,0.0,0.0,0.0,0.0,0.0,0.0,-1.4466,-1.531,-1.531,-1.615,0.0,0.0,0.0,-1.7672,0.0,0.0,-1.6585,0.0,0.0,0.0,0.0,0.0,0.0,0.0,0.0,0.0,0.0,0.0,-2.3883,-2.4488,-2.4636,-2.4341,-2.3277,0.0,0.0,0.0,0.0,0.0,0.0,0.0,0.0,0.0,0.0,0.0,0.0,0.0,0.0,0.0,0.0,0.0,0.0,-1.3403,-1.3403,-1.3403,-1.3403,-1.3403,-1.3403,-1.3403,-1.3403,-1.3403,-1.3403,0.0,-1.3403,-1.3403,-1.3444,-1.3546,-1.3736,-1.3987,-1.4299,-1.4299,-1.4299,-1.4299,-1.4299,-1.4299,-1.4299,-1.4299,-1.4299,-1.4299,-1.4299,-1.4299,-1.4299,-1.4299,-1.4299,-1.4299,-1.4299,-1.4299,-1.4299,-1.4299,-1.4299,-1.4299,0.0,0.0,0.0,0.0,0.0,0.0,0.0,0.0,0.0,-1.7012,0.0,0.0,0.0,0.0,0.0,-1.3743,-1.6382,-1.6796,-1.3776,-1.5014,-1.5744,-1.5409,-1.5409,-1.5503,-1.557,0.0,0.0,0.0,0.0,0.0,0.0,0.0,-1.3904,0.0,-1.3912,-1.4759,-1.5904,0.0,-1.5035,-1.6192,0.0,-1.5319,-1.6517,0.0,0.0,0.0,-1.6259,-1.6779,0.0,0.0,0.0,0.0,0.0,0.0,0.0,-2.4179,-2.4636,-2.4488,0.0,0.0,0.0,0.0,0.0,0.0,0.0,0.0,0.0,0.0,0.0,0.0,0.0,0.0,0.0,0.0,0.0,0.0,0.0,-1.3403,-1.3403,-1.3403,-1.3403,-1.3403,-1.3403,-1.3403,-1.3403,-1.3403,-1.3403,-1.3403,-1.3403,-1.3403,-1.3532,-1.3824,-1.3838,-1.3987,-1.4292,-1.4299,-1.4299,-1.4299,-1.4299,-1.4299,-1.4299,-1.4299,-1.4299,-1.4299,-1.4299,-1.4299,-1.4299,-1.4299,-1.4299,-1.4299,-1.4299,-1.4299,-1.4299,-1.4299,-1.4299,-1.4299,0.0,0.0,0.0,0.0,0.0,0.0,0.0,-1.5864,-1.5492,0.0,0.0,0.0,-1.4156,-1.4944,-1.481,-1.3571,-1.6021,-1.643,-1.3579,-1.4943,-1.5265,-1.4119,-1.4238,-1.4339,-1.439,0.0,0.0,0.0,0.0,0.0,-1.3904,-1.3904,0.0,0.0,-1.4099,-1.4455,-1.4863,-1.435,0.0,0.0,-1.4703,-1.4627,0.0,0.0,0.0,0.0,0.0,-1.5412,0.0,0.0,-1.7825,-1.9338,0.0,0.0,0.0,-2.4179,-2.3735,-2.2831,-2.2831,0.0,0.0,0.0,0.0,0.0,-1.3112,-1.2501,0.0,0.0,0.0,0.0,0.0,0.0,0.0,0.0,0.0,0.0,-1.3356,-1.3403,-1.3403,-1.3403,-1.3403,-1.3403,-1.3403,-1.3403,-1.3403,0.0,-1.3403,-1.3403,-1.3403,-1.3403,-1.3492,-1.3682,-1.379,-1.3933,-1.4136,-1.4245,-1.4299,-1.4299,-1.4299,-1.4299,-1.4299,-1.4299,-1.4299,-1.4299,-1.4299,-1.4299,-1.4299,-1.4299,-1.4299,-1.4299,-1.4299,-1.4299,-1.4299,-1.4299,-1.4299,-1.4299,0.0,0.0,0.0,0.0,0.0,0.0,-1.5173,-1.4585,-1.4095,0.0,0.0,0.0,-1.3214,-1.4376,-1.4746,-1.3612,-1.4844,-1.5147,-1.3727,-1.4386,-1.4587,-1.375,-1.3847,-1.3904,-1.3904,-1.3761,0.0,0.0,0.0,-1.3761,-1.3904,-1.3977,-1.4075,0.0,0.0,0.0,0.0,0.0,0.0,0.0,-1.4597,0.0,0.0,-1.4168,-1.3898,0.0,0.0,0.0,-1.4952,-1.4637,-1.571,0.0,0.0,0.0,0.0,0.0,0.0,0.0,0.0,0.0,0.0,0.0,0.0,0.0,-1.2804,-1.2501,-1.2501,0.0,0.0,0.0,0.0,0.0,0.0,0.0,0.0,-1.2969,-1.3261,-1.3363,-1.3403,-1.3403,-1.3403,-1.3403,-1.3403,-1.3403,-1.3403,-1.3403,-1.3403,-1.3403,-1.3403,-1.3403,-1.3471,-1.3627,-1.3709,-1.3858,-1.4068,-1.4156,-1.4238,-1.4299,-1.4299,-1.4299,-1.4299,-1.4299,-1.4299,-1.4299,-1.4299,-1.4299,-1.4299,-1.4299,-1.4299,-1.4299,-1.4299,-1.4299,-1.4299,-1.4299,-1.4299,-1.4299,0.0,0.0,0.0,-1.284,-1.284,-1.284,-1.2865,-1.2994,-1.3043,0.0,-1.3173,-1.3376,-1.3401,-1.4207,-1.4414,-1.3652,-1.3388,-1.331,-1.3745,-1.3904,-1.3753,-1.3761,-1.3761,-1.3761,-1.3761,-1.3468,-1.3468,-1.3904,-1.3491,-1.3499,-1.3937,-1.4123,-1.4213,-1.4245,0.0,0.0,0.0,0.0,0.0,-1.4605,-1.4452,-1.4361,0.0,0.0,-1.359,0.0,-1.312,-1.2965,-1.2965,-1.2656,-1.2965,0.0,0.0,0.0,0.0,0.0,-1.951,0.0,0.0,0.0,0.0,0.0,0.0,0.0,-1.2656,-1.2501,-1.2501,-1.2501,0.0,0.0,0.0,0.0,0.0,0.0,0.0,-1.2834,-1.3132,-1.3288,-1.3383,-1.3397,-1.3403,-1.3403,-1.3403,-1.3403,-1.3403,-1.3403,-1.3403,-1.3403,-1.3403,-1.3403,-1.3464,-1.36,-1.362,-1.3756,-1.4021,-1.4055,-1.4143,-1.4278,-1.4292,-1.4299,-1.4299,-1.4299,-1.4299,-1.4299,-1.4299,-1.4299,-1.4299,-1.4299,-1.4299,-1.4299,-1.4299,-1.4299,-1.4299,-1.4299,-1.4299,-1.4299,-1.284,0.0,0.0,0.0,-1.284,-1.2881,-1.3027,-1.3076,-1.3133,-1.3254,-1.3327,-1.3287,-1.3153,-1.3587,-1.3792,-1.3839,-1.3705,-1.3579,-1.3468,-1.3468,-1.3325,-1.3039,-1.3039,-1.3039,-1.3039,-1.2896,-1.3039,-1.3468,-1.3473,-1.3688,-1.4123,-1.4302,-1.4464,-1.4603,0.0,0.0,0.0,0.0,0.0,-1.4467,-1.4353,0.0,-1.3744,-1.3428,-1.2965,-1.2656,-1.2656,-1.2656,-1.2656,0.0,-1.312,-1.3583,0.0,0.0,0.0,0.0,0.0,0.0,0.0,0.0,0.0,0.0,0.0,0.0,-1.2656,-1.2501,-1.2501,0.0,0.0,0.0,0.0,0.0,0.0,0.0,0.0,-1.2834,-1.3132,-1.32,-1.3261,-1.339,-1.3403,-1.3403,-1.3403,-1.3403,-1.3403,-1.3403,-1.3403,-1.3403,-1.3403,-1.3403,-1.3417,-1.3444,-1.3566,-1.3654,-1.3715,-1.3953,-1.4089,-1.4116,-1.4238,-1.4299,-1.4299,-1.4299,-1.4299,-1.4299,-1.4299,-1.4299,-1.4299,-1.4299,-1.4299,-1.4299,-1.4299,-1.4299,-1.4299,-1.4299,-1.4299,-1.4299,-1.284,0.0,0.0,0.0,-1.2962,-1.3027,-1.3206,-1.323,-1.3271,-1.336,-1.3311,-1.3292,-1.3185,-1.3066,-1.2955,-1.3317,-1.319,-1.3047,-1.3039,-1.3039,-1.3039,-1.2753,-1.2753,-1.279,-1.288,-1.2735,-1.2917,-1.359,-1.3382,-1.3722,-1.431,-1.4332,-1.4319,0.0,0.0,0.0,0.0,0.0,-1.4814,-1.4361,-1.4207,0.0,-1.3428,-1.2965,-1.2656,-1.2501,-1.2501,-1.2501,-1.2501,-1.2656,-1.2965,0.0,0.0,-1.4798,-1.5105,0.0,-1.571,-1.5267,0.0,0.0,0.0,-1.3274,0.0,0.0,0.0,-1.2501,-1.2501,-1.2501,0.0,0.0,0.0,0.0,0.0,-1.2501,-1.2569,-1.2698,-1.2922,-1.3017,-1.3119,-1.3268,-1.3288,-1.3315,-1.3397,-1.3403,-1.3403,-1.3403,-1.3403,-1.3403,-1.3403,-1.3403,-1.3403,-1.3403,-1.3478,-1.3553,-1.3627,-1.3844,-1.3994,-1.4075,-1.4224,-1.4299,-1.4299,-1.4299,-1.4299,-1.4299,-1.4299,-1.4299,-1.4299,-1.4299,-1.4299,-1.4299,-1.4299,-1.4299,-1.4299,-1.4299,-1.4299,-1.4299,-1.2889,0.0,0.0,0.0,-1.3149,-1.3206,-1.3392,-1.3425,-1.3433,-1.3327,-1.3184,-1.3036,-1.3167,-1.2617,-1.2474,-1.2753,-1.2474,-1.2488,-1.2654,-1.2654,-1.2669,-1.2706,-1.2706,-1.2772,-1.2758,-1.2465,-1.2823,-1.3706,-1.3439,-1.3595,-1.434,-1.4223,0.0,0.0,0.0,0.0,0.0,0.0,0.0,-1.4053,0.0,-1.3428,-1.312,-1.2656,-1.2501,-1.2501,-1.2501,-1.2501,-1.2501,-1.2501,0.0,-1.2965,-1.2965,-1.3274,0.0,0.0,0.0,0.0,0.0,0.0,0.0,0.0,0.0,-1.2501,0.0,0.0,0.0,0.0,0.0,0.0,0.0,0.0,0.0,0.0,0.0,0.0,0.0,-1.2793,0.0,-1.3112,-1.3159,-1.322,-1.3342,-1.3383,-1.3403,-1.3403,-1.3403,-1.3403,-1.3403,-1.3403,-1.3403,-1.3403,-1.3403,-1.3458,-1.3587,-1.3729,-1.3865,-1.3987,-1.417,-1.4258,-1.4258,-1.4285,-1.4299,-1.4299,-1.4299,-1.4299,-1.4299,-1.4299,-1.4299,-1.4299,-1.4299,-1.4299,-1.4299,-1.4299,-1.4299,-1.4299,-1.31,-1.3197,0.0,0.0,-1.3336,-1.3401,-1.3587,-1.3612,-1.3528,-1.3389,-1.3001,-1.2873,0.0,0.0,0.0,0.0,0.0,0.0,-1.2525,0.0,-1.2304,-1.2155,-1.2162,-1.2168,-1.2182,-1.2182,-1.2494,-1.3252,-1.3394,-1.3763,-1.4073,-1.4252,0.0,0.0,-1.3729,0.0,0.0,0.0,-1.3583,0.0,-1.312,-1.312,0.0,-1.2656,-1.2501,-1.2501,-1.2501,-1.2501,-1.2501,0.0,-1.2501,-1.2501,0.0,-1.2656,-1.2656,0.0,0.0,0.0,0.0,0.0,0.0,0.0,-1.2501,0.0,0.0,0.0,-1.2501,-1.2501,0.0,0.0,0.0,0.0,0.0,0.0,0.0,0.0,-1.2522,-1.2542,-1.2657,-1.2949,-1.3098,-1.318,-1.32,-1.3322,-1.3403,-1.3403,-1.3403,-1.3403,-1.3403,-1.3403,-1.3403,-1.3403,-1.3403,-1.341,-1.3424,-1.358,-1.3661,-1.3682,-1.3966,-1.4095,-1.4102,-1.4238,-1.4299,-1.4299,-1.4299,-1.4299,-1.4299,-1.4299,-1.4299,-1.4299,-1.4299,-1.4299,-1.4299,-1.4299,-1.4299,-1.4299,-1.3295,-1.3319,0.0,0.0,-1.3392,-1.3308,-1.3342,-1.3224,-1.3105,-1.3031,-1.2691,0.0,0.0,0.0,0.0,0.0,0.0,-1.2339,0.0,0.0,-1.2141,-1.206,-1.206,-1.2101,-1.2189,-1.2196,-1.2539,-1.3079,-1.3297,-1.3479,-1.3793,-1.3707,0.0,0.0,-1.3274,0.0,-1.3436,0.0,0.0,0.0,0.0,0.0,0.0,-1.2501,-1.2501,-1.2501,-1.2501,-1.2501,-1.2501,0.0,-1.2501,0.0,0.0,0.0,0.0,0.0,0.0,0.0,0.0,0.0,0.0,0.0,0.0,0.0,-1.2501,0.0,-1.2501,0.0,0.0,0.0,0.0,0.0,0.0,0.0,-1.2501,0.0,0.0,0.0,-1.2583,0.0,0.0,0.0,-1.3159,-1.3227,-1.3308,-1.3397,-1.3403,-1.3403,-1.3403,-1.3403,-1.3403,-1.3403,-1.3403,-1.3403,-1.3403,-1.3553,-1.3627,-1.3634,-1.3838,-1.3987,-1.4075,-1.4136,-1.4217,-1.4299,-1.4299,-1.4299,-1.4299,-1.4299,-1.4299,-1.4299,-1.4299,-1.4299,-1.4299,-1.4299,-1.4299,-1.4299,-1.3547,0.0,0.0,0.0,0.0,0.0,0.0,0.0,0.0,0.0,0.0,0.0,-1.2339,-1.2141,0.0,0.0,0.0,-1.2081,0.0,0.0,-1.2142,0.0,0.0,0.0,0.0,-1.2345,-1.2553,-1.312,-1.312,-1.3274,-1.359,-1.3274,-1.2965,0.0,0.0,-1.2965,-1.2965,0.0,0.0,-1.2965,-1.2965,-1.2811,-1.2501,-1.2501,-1.2501,-1.2501,-1.2501,-1.2501,-1.2501,-1.2501,-1.2501,0.0,-1.2501,0.0,0.0,0.0,0.0,0.0,-1.2501,0.0,0.0,0.0,0.0,0.0,0.0,0.0,0.0,0.0,0.0,0.0,0.0,0.0,0.0,0.0,0.0,-1.2501,0.0,-1.2501,0.0,0.0,0.0,0.0,0.0,-1.3152,-1.322,-1.3329,-1.3376,-1.3403,-1.3403,-1.3403,-1.3403,-1.3403,-1.3403,-1.3403,-1.3403,-1.3512,-1.3566,-1.3566,-1.3715,-1.3844,-1.3953,-1.4034,-1.4136,-1.4238,-1.4285,-1.4299,-1.4299,-1.4299,-1.4299,-1.4299,-1.4299,-1.4299,-1.4299,-1.4299,-1.4299,-1.4299,-1.3888,-1.3595,0.0,0.0,0.0,0.0,0.0,0.0,0.0,0.0,0.0,0.0,0.0,0.0,0.0,0.0,0.0,-1.2128,-1.2271,0.0,-1.2345,0.0,0.0,-1.2488,0.0,0.0,-1.2649,-1.312,-1.312,-1.312,0.0,-1.312,-1.2965,-1.2501,0.0,-1.2501,-1.2501,-1.2501,-1.2501,-1.2501,-1.2501,-1.2501,-1.2501,0.0,-1.2501,-1.2501,-1.2501,0.0,0.0,-1.2501,-1.2501,0.0,0.0,0.0,0.0,0.0,0.0,0.0,0.0,0.0,0.0,-1.2501,0.0,0.0,0.0,0.0,-1.2501,0.0,0.0,0.0,0.0,0.0,0.0,0.0,0.0,0.0,0.0,0.0,0.0,0.0,0.0,0.0,0.0,-1.3091,-1.3173,-1.318,-1.3315,-1.3403,-1.3403,-1.3403,-1.3403,-1.3403,-1.3403,-1.3403,-1.3403,-1.3403,-1.341,-1.341,-1.3559,-1.3641,-1.3654,-1.3939,-1.4075,-1.4089,-1.4238,-1.4299,-1.4299,-1.4299,-1.4299,-1.4299,-1.4299,-1.4299,-1.4299,-1.4299,-1.4299,-1.4299,0.0,0.0,0.0,0.0,0.0,0.0,0.0,-1.2178,0.0,0.0,0.0,0.0,0.0,0.0,-1.2352,0.0,0.0,-1.2372,-1.2427,-1.2427,0.0,0.0,0.0,-1.2501,0.0,0.0,0.0,0.0,0.0,0.0,0.0,0.0,0.0,0.0,0.0,-1.2501,0.0,0.0,0.0,0.0,0.0,-1.2501,-1.2501,0.0,0.0,-1.2501,-1.2501,-1.2501,0.0,-1.2501,-1.2501,-1.2501,-1.2501,-1.2501,-1.2501,-1.2501,-1.2501,0.0,0.0,0.0,-1.2501,-1.2501,0.0,0.0,0.0,0.0,0.0,0.0,0.0,0.0,0.0,0.0,0.0,0.0,0.0,0.0,0.0,0.0,0.0,0.0,0.0,0.0,0.0,0.0,-1.3071,-1.3166,-1.3315,-1.3403,-1.3403,-1.3403,-1.3403,-1.3403,-1.3403,-1.3403,-1.3403,-1.3403,-1.3403,-1.3403,-1.3451,-1.3532,-1.3634,-1.3736,-1.3885,-1.4075,-1.4129,-1.4204,-1.4299,-1.4299,-1.4299,-1.4299,-1.4299,-1.4299,-1.4299,-1.4299,-1.4299,-1.4299,-1.3512,0.0,0.0,0.0,0.0,0.0,0.0,0.0,0.0,0.0,-1.2271,0.0,-1.2366,0.0,-1.2501,0.0,-1.2501,-1.2501,-1.2501,-1.2501,0.0,-1.2501,-1.2501,0.0,0.0,0.0,0.0,0.0,0.0,-1.2501,0.0,0.0,0.0,0.0,0.0,0.0,0.0,0.0,-1.2501,0.0,0.0,-1.2501,0.0,0.0,-1.2501,-1.2501,0.0,-1.2501,-1.2501,-1.2501,-1.2501,-1.2501,-1.2501,-1.2501,-1.2501,-1.2501,-1.2501,-1.2501,-1.2501,-1.2501,0.0,-1.2501,-1.2501,0.0,-1.2501,0.0,0.0,0.0,0.0,0.0,0.0,0.0,0.0,0.0,0.0,0.0,0.0,-1.2501,0.0,-1.2501,-1.2501,0.0,0.0,-1.2786,-1.2942,-1.3085,-1.3234,-1.3342,-1.3397,-1.3403,-1.3403,-1.3403,-1.3403,-1.3403,-1.3403,-1.3403,-1.3403,-1.3403,-1.3403,-1.3451,-1.3553,-1.3607,-1.3763,-1.3994,-1.4048,-1.4156,-1.4299,-1.4299,-1.4299,-1.4299,-1.4299,-1.4299,-1.4299,-1.4299,-1.4299,-1.4299,0.0,0.0,0.0,0.0,-1.2275,0.0,0.0,0.0,-1.2298,0.0,-1.242,-1.2501,-1.2501,-1.2501,-1.2501,-1.2501,-1.2501,0.0,-1.2501,-1.2501,0.0,0.0,-1.2501,-1.2501,-1.2501,0.0,0.0,0.0,0.0,0.0,0.0,0.0,0.0,0.0,-1.2501,0.0,-1.2501,-1.2501,-1.2501,-1.2501,-1.2501,-1.2501,-1.2501,-1.2501,-1.2501,-1.2501,-1.2501,-1.2501,-1.2501,-1.2501,-1.2508,-1.2515,-1.2515,-1.2515,-1.2522,-1.2522,-1.2522,-1.2522,-1.2522,-1.2522,-1.2522,-1.2522,-1.2522,0.0,0.0,0.0,-1.2522,0.0,0.0,0.0,0.0,0.0,0.0,0.0,0.0,0.0,0.0,0.0,-1.2501,-1.2501,-1.2501,-1.2501,-1.2501,-1.2637,-1.2793,-1.2949,-1.3091,-1.3241,-1.339,-1.3403,-1.3403,-1.3403,-1.3403,-1.3403,-1.3403,-1.3403,-1.3403,-1.3403,-1.3403,-1.3403,-1.3403,-1.3553,-1.3702,-1.3851,-1.3994,-1.415,-1.4299,-1.4299,-1.4299,-1.4299,-1.4299,-1.4299,-1.4299,-1.4299,-1.4299,-1.4299,-1.3401,-1.3207,-1.2856,0.0,-1.2277,-1.223,0.0,0.0,0.0,0.0,-1.2481,-1.2501,-1.2501,-1.2501,-1.2501,-1.2501,-1.2501,0.0,0.0,0.0,0.0,-1.2501,-1.2501,-1.2501,-1.2501,-1.2501,0.0,-1.2501,0.0,0.0,-1.2501,0.0,0.0,0.0,0.0,0.0,-1.2501,-1.2501,-1.2501,-1.2501,-1.2501,-1.2501,0.0,0.0,-1.2501,-1.2501,-1.2501,-1.2501,-1.2501,-1.2501,-1.2576,-1.2671,-1.2671,-1.2752,-1.284,-1.284,-1.284,-1.284,-1.284,-1.284,-1.284,-1.284,-1.284,-1.284,0.0,0.0,0.0,0.0,0.0,0.0,0.0,0.0,0.0,0.0,0.0,0.0,0.0,0.0,0.0,-1.2501,-1.2501,-1.2501,-1.2501,-1.2637,-1.2793,-1.2949,-1.3091,-1.3241,-1.339,-1.3403,-1.3403,-1.3403,-1.3403,-1.3403,-1.3403,-1.3403,-1.3403,-1.3403,-1.3403,-1.3403,-1.3403,-1.3444,-1.36,-1.3844,-1.3885,-1.4055,-1.4299,-1.4299,-1.4299,-1.4299,-1.4299,-1.4299,-1.4299,-1.4299,-1.4299,-1.4299,-1.3166,0.0,0.0,-1.2488,0.0,0.0,-1.2379,0.0,0.0,-1.2501,-1.2501,0.0,-1.2501,-1.2501,-1.2501,-1.2501,-1.2501,0.0,-1.2501,0.0,0.0,-1.2501,-1.2501,-1.2501,-1.2501,-1.2501,0.0,-1.2501,0.0,0.0,-1.2501,0.0,0.0,0.0,0.0,-1.2501,0.0,-1.2501,-1.2501,-1.2501,-1.2501,0.0,0.0,-1.2576,-1.2603,-1.261,-1.2678,-1.2657,-1.261,-1.2678,-1.2759,-1.2834,-1.2834,-1.2895,-1.2963,-1.2963,-1.2963,-1.2963,-1.2963,-1.2963,-1.2963,-1.2963,-1.2963,-1.2963,-1.2963,-1.2963,-1.2963,0.0,-1.2963,-1.2963,0.0,0.0,0.0,0.0,0.0,0.0,0.0,0.0,0.0,0.0,-1.2501,-1.2501,-1.2501,-1.2576,-1.2691,-1.2847,-1.2996,-1.3146,-1.3295,-1.3363,-1.3403,-1.3403,-1.3403,-1.3403,-1.3403,-1.3403,-1.3403,-1.3403,-1.3403,-1.3403,-1.3403,-1.3403,-1.3559,-1.3838,-1.3838,-1.4014,-1.4299,-1.4299,-1.4299,-1.4299,-1.4299,-1.4299,-1.4299,-1.4299,-1.4299,-1.4299,0.0,0.0,0.0,0.0,0.0,0.0,0.0,-1.2501,0.0,-1.2501,0.0,-1.2501,-1.2501,-1.2501,-1.2501,-1.2501,0.0,-1.2501,-1.2501,-1.2501,-1.2501,-1.2501,-1.2501,-1.2501,-1.2501,-1.2501,0.0,0.0,0.0,0.0,0.0,0.0,0.0,0.0,0.0,0.0,0.0,-1.2501,-1.2501,-1.2501,-1.2522,-1.2528,-1.2549,-1.2705,-1.2759,-1.2779,-1.2935,-1.2888,-1.2779,-1.2915,-1.2976,-1.299,-1.299,-1.3003,-1.3017,-1.3017,-1.3017,-1.3017,-1.3017,-1.3017,-1.3017,-1.3017,-1.3017,-1.3017,-1.3017,-1.3017,-1.3017,-1.3017,-1.3017,-1.3017,0.0,0.0,0.0,0.0,0.0,0.0,0.0,0.0,0.0,0.0,0.0,0.0,-1.2501,-1.2501,-1.2562,-1.2718,-1.2874,-1.3024,-1.3166,0.0,-1.3403,-1.3403,-1.3403,-1.3403,-1.3403,-1.3403,-1.3403,-1.3403,-1.3403,-1.3403,-1.3403,-1.3424,-1.358,-1.3844,-1.3865,-1.4034,-1.4299,-1.4299,-1.4299,-1.4299,-1.4299,-1.4299,-1.4299,-1.4299,-1.4299,-1.4299,0.0,0.0,0.0,0.0,0.0,-1.2501,-1.2501,-1.2501,-1.2501,-1.2501,-1.2501,-1.2501,-1.2501,-1.2501,-1.2501,-1.2501,-1.2501,0.0,0.0,0.0,0.0,-1.2501,-1.2501,-1.2501,-1.2501,-1.2501,-1.2501,0.0,0.0,0.0,0.0,0.0,0.0,0.0,0.0,0.0,-1.2501,-1.2501,0.0,-1.2515,-1.2637,-1.2691,-1.2705,-1.2861,-1.2922,-1.2942,-1.3085,-1.3044,-1.2929,-1.2949,-1.3037,-1.3132,-1.3132,-1.322,-1.3322,-1.3322,-1.3322,-1.3322,-1.3322,-1.3322,-1.3322,-1.3322,-1.3322,-1.3322,-1.3322,-1.3322,-1.3322,-1.3322,-1.3322,-1.3322,-1.3322,0.0,0.0,0.0,0.0,0.0,0.0,0.0,0.0,0.0,0.0,-1.2501,-1.2501,-1.2501,-1.2562,-1.2718,-1.2874,-1.3024,-1.3166,0.0,-1.3403,0.0,-1.3403,-1.3403,0.0,0.0,-1.3403,-1.3403,-1.3403,-1.3403,-1.3403,-1.3532,-1.3682,-1.3844,-1.3973,-1.4136,-1.4299,-1.4299,-1.4299,-1.4299,-1.4299,-1.4299,-1.4299,-1.4299,-1.4299,-1.4299,0.0,0.0,0.0,0.0,0.0,0.0,0.0,-1.2501,0.0,-1.2501,-1.2501,-1.2501,-1.2501,-1.2501,-1.2501,-1.2501,-1.2501,-1.2501,-1.2501,-1.2501,-1.2501,-1.2501,-1.2501,0.0,-1.2501,-1.2501,-1.2501,-1.2501,0.0,0.0,-1.2501,0.0,0.0,0.0,0.0,-1.2501,0.0,0.0,0.0,-1.2623,-1.2698,-1.2779,-1.2868,-1.3017,-1.3071,-1.3091,-1.3241,-1.3247,-1.3193,-1.3193,-1.3234,-1.3288,-1.3288,-1.3342,-1.3403,-1.3403,-1.3403,-1.3403,-1.3403,-1.3403,-1.3403,-1.3403,-1.3403,-1.3403,-1.3403,-1.3403,-1.3403,-1.3403,-1.3403,-1.3403,-1.3403,-1.3342,0.0,0.0,0.0,0.0,0.0,0.0,0.0,0.0,0.0,0.0,0.0,-1.2617,-1.2651,-1.2725,-1.2874,-1.3024,-1.3166,-1.3315,-1.3403,0.0,0.0,0.0,-1.3403,0.0,-1.3403,-1.3403,-1.3403,-1.3403,-1.3403,-1.3559,-1.3709,-1.3851,-1.4007,-1.4156,-1.4299,-1.4299,-1.4299,-1.4299,-1.4299,-1.4299,-1.4299,-1.4299,-1.4299,-1.4299,0.0,-1.2501,0.0,0.0,-1.2501,0.0,-1.2501,-1.2501,-1.2501,-1.2501,-1.2501,-1.2501,-1.2501,-1.2501,-1.2501,-1.2501,-1.2501,-1.2501,-1.2501,-1.2501,-1.2501,-1.2501,-1.2501,-1.2501,-1.2501,-1.2501,-1.2501,0.0,0.0,0.0,0.0,-1.2501,0.0,0.0,0.0,0.0,0.0,0.0,-1.2617,-1.2732,-1.28,-1.2895,-1.3024,-1.3166,-1.322,-1.3241,-1.3356,-1.3403,-1.3403,-1.3403,-1.3403,-1.3403,-1.3403,-1.3403,-1.3403,-1.3403,-1.3403,-1.3403,-1.3403,-1.3403,-1.3403,-1.3403,-1.3403,-1.3403,-1.3403,-1.3403,-1.3403,-1.3403,-1.3403,-1.3403,-1.3403,-1.3403,0.0,0.0,0.0,0.0,0.0,0.0,0.0,0.0,0.0,0.0,-1.2779,-1.2779,-1.2793,-1.282,-1.2935,-1.3057,-1.3166,-1.3315,-1.3403,-1.3403,0.0,-1.3403,-1.3403,0.0,-1.3403,-1.3403,-1.3403,-1.3403,-1.341,-1.3593,-1.3736,-1.3851,-1.4041,-1.419,-1.4299,-1.4299,-1.4299,-1.4299,-1.4299,-1.4299,-1.4299,-1.4299,-1.4299,-1.4299,0.0,0.0,0.0,0.0,0.0,0.0,0.0,-1.2501,-1.2501,-1.2501,-1.2501,-1.2501,-1.2501,-1.2501,-1.2501,-1.2501,-1.2501,-1.2501,-1.2501,-1.2501,-1.2501,-1.2501,-1.2501,-1.2501,-1.2501,-1.2501,-1.2501,0.0,0.0,-1.2501,0.0,0.0,0.0,0.0,0.0,0.0,0.0,-1.2651,-1.2718,-1.2752,-1.3024,-1.3139,-1.3166,-1.3322,-1.3376,-1.3383,-1.3397,-1.3403,-1.3403,-1.3403,-1.3403,-1.3403,-1.3403,-1.3403,-1.3403,-1.3403,-1.3403,-1.3403,-1.3403,-1.3403,-1.3403,-1.3403,-1.3403,-1.3403,-1.3403,-1.3403,-1.3403,-1.3403,-1.3403,-1.3403,-1.3403,-1.3403,-1.3397,0.0,0.0,0.0,0.0,0.0,-1.3105,-1.2976,0.0,0.0,-1.2942,-1.2942,-1.299,-1.3119,-1.3146,-1.3159,-1.3173,-1.3315,-1.3403,-1.3403,-1.3403,-1.3403,-1.3403,-1.3403,-1.3403,-1.3403,-1.3403,-1.3403,-1.341,-1.3695,-1.3831,-1.3858,-1.415,-1.4285,-1.4299,-1.4299,-1.4299,-1.4299,-1.4299,-1.4299,-1.4299,-1.4299,-1.4299,-1.4299,0.0,0.0,0.0,0.0,0.0,0.0,0.0,-1.2501,-1.2501,-1.2501,-1.2501,-1.2501,-1.2501,-1.2501,-1.2501,-1.2501,-1.2501,-1.2501,-1.2501,-1.2501,-1.2501,-1.2501,-1.2501,-1.2501,-1.2501,-1.2501,-1.2501,0.0,0.0,0.0,0.0,0.0,0.0,0.0,0.0,-1.2637,-1.2651,-1.2807,-1.2915,-1.3003,-1.3125,-1.3227,-1.3315,-1.3376,-1.3403,-1.3403,-1.3403,-1.3403,-1.3403,-1.3403,-1.3403,-1.3403,-1.3403,-1.3403,-1.3403,-1.3403,-1.3403,-1.3403,-1.3403,-1.3403,-1.3403,-1.3403,-1.3403,-1.3403,-1.3403,-1.3403,-1.3403,-1.3403,-1.3403,-1.3403,-1.3403,-1.3403,-1.3403,-1.3403,0.0,0.0,0.0,0.0,0.0,-1.3234,0.0,-1.3085,-1.3085,-1.3085,-1.3112,-1.3166,-1.3173,-1.3214,-1.3302,-1.337,-1.3403,-1.3403,0.0,-1.3403,-1.3403,-1.3403,-1.3403,-1.3403,-1.3403,-1.3451,-1.3546,-1.3749,-1.3939,-1.4122,-1.4245,-1.4299,-1.4299,-1.4299,-1.4299,-1.4299,-1.4299,-1.4299,-1.4299,-1.4299,-1.4299,-1.4299,-0.7513,0.0,-0.9226,0.0,-1.0319,-1.1095,-1.1095,-1.1095,-1.1107,-1.0993,-1.0993,-1.1448,-1.2353,-1.2501,-1.2501,-1.2501,-1.2501,-1.2501,-1.2501,-1.2501,-1.2501,-1.2501,-1.2501,0.0,-1.2501,-1.2501,-1.2501,-1.2501,-1.2501,0.0,0.0,0.0,0.0,0.0,-1.2732,-1.28,-1.2807,-1.2956,-1.3078,-1.3173,-1.322,-1.3302,-1.3403,-1.3403,-1.3403,-1.3403,-1.3403,-1.3403,-1.3403,-1.2733,-1.2561,-1.2733,-1.3231,-1.3403,-1.3403,-1.3403,-1.3065,-1.2561,-1.2561,-1.2253,-1.1778,-1.1778,-1.1807,-1.1837,-1.1837,-1.1837,-1.1999,-1.2464,-1.3098,-1.3403,-1.3403,-1.3403,-1.3403,-1.3403,0.0,0.0,0.0,-1.3403,0.0,-1.3403,-1.3308,-1.3241,-1.3241,-1.3241,-1.3241,-1.3241,0.0,-1.3288,-1.3397,-1.3403,-1.3403,0.0,0.0,0.0,-1.3403,-1.3403,-1.3403,-1.3403,-1.3444,-1.3526,-1.3634,-1.3824,-1.4048,-1.4299,-1.4299,-1.4299,-1.4299,-1.4299,-1.4299,-1.4299,-1.4299,-1.4299,-1.4299,-1.4299,-1.4299,-1.4299,-0.7513,-0.7513,-0.7517,-0.7517,-0.7513,-0.7513,-0.7513,-0.7513,-0.7546,-0.7627,-0.764,-0.8869,-1.2205,-1.2501,-1.2501,-1.2501,-1.2501,-1.2501,-1.2501,-1.2501,-1.2501,0.0,0.0,-1.2501,-1.2501,-1.2501,-1.2501,-1.2501,0.0,0.0,-1.2508,0.0,-1.2725,-1.2732,-1.2888,-1.2956,-1.2969,-1.3112,-1.3173,-1.3186,-1.3336,-1.3397,-1.3403,-1.3403,-1.3403,-1.3403,-1.3403,-1.3403,-1.3065,-1.1392,-1.0726,-1.1059,-1.2899,-1.3403,-1.3403,-1.3403,-1.2063,-1.0726,-1.0726,-0.9459,-0.8174,-0.8174,-0.8244,-0.8137,-0.8137,-0.8137,-0.8629,-1.0413,-1.2154,-1.3403,-1.3403,-1.3403,-1.3403,-1.3403,0.0,0.0,0.0,-1.3403,0.0,-1.3403,-1.3397,-1.3397,-1.3397,-1.3397,-1.3397,0.0,0.0,-1.3397,0.0,0.0,0.0,-1.3403,-1.3403,0.0,-1.3403,-1.3403,-1.3403,-1.3403,-1.3553,-1.3627,-1.3641,-1.3933,-1.4156,-1.4299,-1.4299,-1.4299,-1.4299,-1.4299,-1.4299,-1.4299,-1.4299,-1.4299,-1.4299,-1.4299,-1.4299,-1.4299,-0.4079,-0.5016,-0.5796,-0.5796,-0.6777,-0.7603,-0.7603,-0.7493,-0.7541,-0.7569,-0.7573,-0.8042,-0.8974,-0.9128,-0.9128,0.0,-0.9128,-0.9128,0.0,-0.9128,-0.9128,-0.9128,-1.0401,-1.1042,-1.1042,-1.2172,-1.2813,-1.2813,0.0,0.0,0.0,-1.1574,-1.1752,-1.2895,-1.1739,-1.1956,-1.3112,-1.3268,-1.3329,-1.3336,-1.3383,-1.3403,-1.3403,-1.3403,-1.2567,-1.1558,-1.1558,-1.0775,-0.9656,-0.915,-0.8857,-0.9081,-0.9592,-0.9714,-0.984,-0.9743,-0.9422,-0.891,-0.891,-0.859,-0.8097,-0.8097,-0.8117,-0.8141,-0.8141,-0.8141,-0.8305,-0.8792,-0.9445,-1.0083,-1.1368,-1.1693,-1.1999,-1.3251,-1.3403,0.0,-1.3403,0.0,-1.3403,-1.3403,-1.3403,-1.3403,-1.3403,-1.3403,0.0,0.0,0.0,0.0,0.0,0.0,0.0,0.0,-1.3403,0.0,-1.3403,-1.3403,-1.3451,-1.3559,-1.3607,-1.3736,-1.3939,-1.4136,-1.4251,-1.4299,-1.4299,-1.4299,-1.4299,-1.4299,-1.4299,-1.4299,-1.4299,-1.4299,-1.4299,-1.4299,-1.4299,-1.4299,-0.2529,-0.3319,-0.411,-0.4128,-0.4952,-0.5774,-0.5774,-0.565,-0.5686,-0.5709,-0.5712,-0.5721,-0.5748,-0.5751,0.0,-0.7459,-0.7613,-0.7613,-0.7613,-0.7613,-0.7613,-0.7613,-0.8742,-0.9225,-0.9225,-1.0362,0.0,-1.1011,-1.1011,-1.1011,-1.1011,-0.9921,-0.9941,-1.093,-1.006,-1.0606,-1.2269,-1.1689,-1.1724,-1.2395,-1.2395,-1.2063,-1.1392,-1.2063,-1.1254,-0.9775,-0.9775,-0.9,-0.8057,-0.7373,-0.7063,-0.6935,-0.6271,-0.6079,-0.6391,-0.7788,-0.7623,-0.7104,-0.7104,-0.6608,-0.6106,-0.6106,-0.6127,-0.6144,-0.6144,-0.6647,-0.7146,-0.7146,-0.7645,-0.8469,-0.9611,-1.0454,-1.1266,-1.2328,-1.2984,-1.3464,-1.341,0.0,-1.3403,0.0,0.0,0.0,0.0,-1.3403,-1.3403,0.0,0.0,0.0,0.0,0.0,-1.3403,-1.3403,-1.3403,-1.3431,-1.3485,-1.3485,-1.3559,-1.3709,-1.377,-1.3926,-1.4163,-1.4258,-1.4299,-1.4299,-1.4299,-1.4299,-1.4299,-1.4299,-1.4299,-1.4299,-1.4299,-1.4299,-1.4299,-1.4299,-1.4299,-1.4299,-0.2557,-0.2563,0.0,0.0,-0.2604,0.0,-0.2605,-0.2607,-0.2617,-0.2646,-0.265,-0.2661,-0.269,-0.2692,-0.3999,-0.7,0.0,0.0,0.0,-0.7309,-0.7309,-0.7309,-0.7309,-0.7471,-0.7471,-0.7633,-0.7633,-0.7633,-0.7633,-0.7633,-0.7637,-0.7553,-0.7757,-0.7761,-0.7845,-0.8883,-1.0388,-0.872,-0.9054,-1.0554,-1.0554,-0.9559,-0.8227,-0.9898,-0.9459,-0.7847,-0.7847,-0.7902,-0.7457,-0.5903,-0.5388,-0.5053,-0.3351,-0.2831,-0.353,-0.6795,-0.6602,-0.5391,-0.5391,-0.4034,-0.2831,-0.2831,-0.2853,-0.2874,-0.2874,-0.4095,-0.5296,-0.5296,-0.6647,-0.7811,-0.7976,-0.9357,-1.0704,-1.0763,-1.2283,-1.3425,-1.3451,-1.3424,-1.3417,-1.3417,0.0,0.0,-1.3403,-1.3403,-1.3403,0.0,0.0,0.0,0.0,0.0,-1.341,-1.3403,-1.341,-1.3485,-1.3627,-1.3641,-1.3715,-1.3858,-1.4014,-1.4163,-1.4299,-1.4299,-1.4299,-1.4299,-1.4299,-1.4299,-1.4299,-1.4299,-1.4299,-1.4299,-1.4299,-1.4299,-1.4299,-1.4299,-1.4299,-1.4299,0.0,0.0,-0.2594,-0.2601,-0.262,-0.2637,-0.2637,-0.2656,-0.2673,-0.2682,-0.2682,-0.2684,-0.2691,-0.2692,-0.3021,-0.3838,-0.3836,-0.3836,-0.3836,-0.3836,-0.3836,-0.3836,-0.5164,-0.5992,-0.5992,-0.7154,-0.7987,-0.7987,-0.7987,-0.7987,-0.7821,-0.651,-0.6683,-0.7853,-0.6533,-0.7045,-0.8553,-0.8219,-0.8219,-0.872,-0.872,-0.8424,-0.8146,-0.8484,-0.7692,-0.6046,-0.6046,-0.5222,-0.4046,-0.352,-0.3539,-0.3386,-0.3039,-0.2863,-0.304,-0.3921,-0.3919,-0.3563,-0.3563,-0.3214,-0.2863,-0.2863,-0.2868,-0.2874,-0.2874,-0.3225,-0.3576,-0.3576,-0.3924,-0.4615,-0.5805,-0.6495,-0.769,-1.0537,-1.1378,-1.2057,-1.3573,-1.3641,-1.3573,0.0,-1.3471,-1.3403,-1.3403,-1.3403,-1.3403,0.0,0.0,-1.3451,-1.3566,-1.3573,-1.3519,-1.3403,-1.3512,-1.3593,-1.3627,-1.3736,-1.3865,-1.4021,-1.4177,-1.4265,-1.4299,-1.4299,-1.4299,-1.4299,-1.4299,-1.4299,-1.4299,-1.4299,-1.4299,-1.4299,-1.4299,-1.4299,-1.4299,-1.4299,-1.4299,-1.4299,-0.262,-0.2622,-0.2627,-0.2641,-0.2657,-0.2668,-0.2668,-0.2682,-0.2692,-0.2692,-0.2692,-0.2692,-0.2692,-0.2692,-0.2692,-0.2692,-0.2692,-0.2692,-0.2692,-0.2692,-0.2692,-0.2692,-0.3698,-0.4201,-0.4201,-0.5038,-0.5541,-0.5541,-0.5541,-0.5541,-0.5541,-0.4535,-0.4703,-0.5541,-0.4535,-0.5206,-0.671,-0.5876,-0.6044,-0.6881,-0.6748,-0.6277,-0.5804,-0.6515,-0.5885,-0.4199,-0.4199,-0.3703,-0.2849,-0.2849,-0.286,-0.2874,-0.2874,-0.2874,-0.2874,-0.2874,-0.2874,-0.2874,-0.2874,-0.2874,-0.2874,-0.2874,-0.2874,-0.2874,-0.2874,-0.2874,-0.2874,-0.2874,-0.2874,-0.3227,-0.4095,-0.4265,-0.5304,-0.8039,-0.9937,-1.1485,-1.2466,-1.3258,-1.3729,-1.3729,-1.3654,-1.36,-1.36,-1.36,-1.36,-1.36,-1.36,0.0,-1.3722,-1.3729,-1.3688,-1.3607,-1.3682,-1.3763,-1.3831,-1.398,-1.4095,-1.4177,-1.4258,-1.4299,-1.4299,-1.4299,-1.4299,-1.4299,-1.4299,-1.4299,-1.4299,-1.4299,-1.4299,-1.4299,-1.4299,-1.4299,-1.4299,-1.4299,-1.4299,-1.4299,-0.2649,-0.2654,-0.2662,-0.2688,-0.2692,-0.2692,-0.2692,-0.2692,-0.2692,-0.2692,-0.2692,-0.2692,-0.2692,-0.2692,-0.2692,-0.2692,-0.2692,-0.2692,-0.2692,-0.2692,-0.2692,-0.2692,-0.2692,-0.2692,-0.2692,-0.2692,-0.2692,-0.2692,-0.2692,-0.2692,-0.2692,-0.2692,-0.2692,-0.2692,-0.2692,-0.3532,-0.487,-0.3369,-0.3539,-0.5053,-0.4942,-0.4115,-0.2926,-0.4509,-0.4207,-0.2836,-0.2836,-0.2852,-0.2874,-0.2874,-0.2874,-0.2874,-0.2874,-0.2874,-0.2874,-0.2874,-0.2874,-0.2874,-0.2874,-0.2874,-0.2874,-0.2874,-0.2874,-0.2874,-0.2874,-0.2694,-0.2694,-0.2694,-0.2694,-0.2694,-0.2694,-0.287,-0.357,-0.5309,-0.8293,-1.0549,-1.1318,0.0,-1.3528,-1.3878,-1.3858,-1.3838,-1.3838,-1.3838,-1.3838,-1.3838,-1.3838,-1.3851,-1.3871,-1.3878,-1.3885,-1.3912,-1.3885,-1.3946,-1.4102,-1.4238,-1.4299,-1.4299,-1.4299,-1.4299,-1.4299,-1.4299,-1.4299,-1.4299,-1.4299,-1.4299,-1.4299,-1.4299,-1.4299,-1.4299,-1.4299,-1.4299,-1.4299,-1.4299,-1.4299,-1.4299,-0.2684,-0.2686,-0.2687,-0.2691,-0.2692,-0.2692,-0.2692,-0.2692,-0.2692,-0.2692,-0.2692,-0.2692,-0.2692,-0.2692,-0.2692,-0.2692,-0.2692,-0.2692,-0.2692,-0.2692,-0.2692,-0.2692,-0.2692,-0.2692,-0.2692,-0.2692,-0.2692,-0.2692,-0.2692,-0.2692,-0.2692,-0.2692,-0.2692,-0.2692,-0.2692,-0.2861,-0.3029,-0.289,-0.2901,-0.3073,-0.3109,-0.2965,-0.2815,-0.3171,-0.3017,-0.2867,-0.2867,-0.287,-0.2874,-0.2874,-0.2874,-0.2874,-0.2874,-0.2874,-0.2874,-0.2874,-0.2874,-0.2874,-0.2874,-0.2874,-0.2874,-0.2874,-0.2874,-0.2874,-0.2874,-0.2156,-0.1616,-0.1616,-0.1616,-0.1616,-0.1616,-0.2334,-0.3764,-0.6065,-0.6602,-0.8207,-1.3161,0.0,-1.2277,-1.3861,-1.3919,-1.3838,-1.3838,-1.3838,-1.3838,-1.3838,-1.3838,-1.3899,-1.4027,-1.4034,-1.4095,-1.4224,-1.4102,-1.4109,-1.4265,-1.4285,-1.4299,-1.4299,-1.4299,-1.4299,-1.4299,-1.4299,-1.4299,-1.4299,-1.4299,-1.4299,-1.4299,-1.4299,-1.4299,-1.4299,-1.4299,-1.4299,-1.4299,-1.4299,-1.4299,-1.4299,-0.2692,-0.2692,-0.2692,-0.2692,-0.2692,-0.2692,-0.2692,-0.2692,-0.2692,-0.2692,-0.2692,-0.2692,-0.2692,-0.2692,-0.2692,-0.2692,-0.2692,-0.2692,-0.2692,-0.2692,-0.2692,-0.2692,-0.2692,-0.2692,-0.2692,-0.2692,-0.2692,-0.2692,-0.2692,-0.2692,-0.2692,-0.2692,-0.2692,-0.2692,-0.271,-0.2717,-0.2718,-0.275,-0.2762,-0.2765,-0.2796,-0.2816,-0.283,-0.2846,-0.2861,-0.2874,-0.2874,-0.2874,-0.2874,-0.2874,-0.2874,-0.2874,-0.2874,-0.2874,-0.2874,-0.2874,-0.2874,-0.2874,-0.2874,-0.2874,-0.2874,-0.2874,-0.2874,-0.2874,-0.2874,-0.1795,-0.0718,-0.0718,-0.0718,-0.0718,-0.0718,-0.1436,-0.2692,-0.4299,-0.5196,-0.6624,-0.9299,-0.9791,-1.047,-1.2419,-1.2541,-1.2854,-1.3914,-1.4089,-1.4089,-1.4089,-1.4089,-1.4122,-1.419,-1.4197,-1.4224,-1.4299,-1.4231,-1.4231,-1.4299,-1.4299,-1.4299,-1.4299,-1.4299,-1.4299,-1.4299,-1.4299,-1.4299,-1.4299,-1.4299,-1.4299,-1.4299,-1.4299,-1.4299,-1.4299,-1.4299,-1.4299,-1.4299,-1.4299,-1.4299,-1.4299,-0.2692,-0.2692,-0.2692,-0.2692,-0.2692,-0.2692,-0.2692,-0.2692,-0.2692,-0.2692,-0.2692,-0.2692,-0.2692,-0.2692,-0.2692,-0.2692,-0.2692,-0.2692,-0.2692,-0.2692,-0.2692,-0.2692,-0.2692,-0.2692,-0.2692,-0.2692,-0.2692,-0.2692,-0.2692,-0.2692,-0.2692,-0.2699,-0.2703,-0.2705,-0.2735,-0.2748,-0.275,-0.2781,-0.2793,-0.2796,-0.2827,-0.284,-0.2842,-0.2866,-0.2874,-0.2874,-0.2874,-0.2874,-0.2874,-0.2874,-0.2874,-0.2874,-0.2874,-0.2874,-0.2874,-0.2874,-0.2874,-0.2874,-0.2874,-0.2874,-0.2874,-0.2874,-0.2694,-0.2694,-0.2874,-0.1436,0.0,0.0,0.0,0.0,0.0,-0.0539,-0.1436,-0.2692,0.0,-0.5378,-0.627,-0.7338,-0.8587,-1.0545,-1.1083,-1.1976,-1.3407,-1.3945,-1.4299,-1.4299,-1.4299,-1.4299,-1.4299,-1.4299,-1.4299,-1.4299,-1.4299,-1.4299,-1.4299,-1.4299,-1.4299,-1.4299,-1.4299,-1.4299,-1.4299,-1.4299,-1.4299,-1.4299,-1.4299,-1.4299,-1.4299,-1.4299,-1.4299,-1.4299,-1.4299,-1.4299,-1.4299,-1.4299,-1.4299,-1.4299,-0.2692,-0.2692,-0.2692,-0.2692,-0.2692,-0.2692,-0.2692,-0.2692,-0.2692,-0.2692,-0.2692,-0.2692,-0.2692,-0.2692,-0.2692,-0.2692,-0.2692,-0.2692,-0.2692,-0.2692,-0.2692,-0.2692,-0.2692,-0.2692,-0.2692,-0.2692,-0.2692,-0.2692,-0.2692,-0.2692,-0.2692,-0.2721,-0.2735,-0.2736,-0.2766,-0.278,-0.2782,-0.2812,-0.2825,-0.2827,-0.2859,-0.2871,-0.2871,-0.2874,-0.2874,-0.2874,-0.2874,-0.2874,-0.2874,-0.2874,-0.2874,-0.2874,-0.2874,-0.2874,-0.2874,-0.2874,-0.2874,-0.2874,-0.2874,-0.2874,-0.2874,-0.2874,-0.2156,-0.1795,-0.2694,-0.1436,0.0,0.0,0.0,0.0,0.0,-0.0,-0.0718,-0.2507,0.0,0.0,-0.7874,-0.6981,-0.6627,-0.8587,-1.0367,-1.1438,-1.1616,-1.3224,-1.4299,-1.4299,-1.4299,-1.4299,-1.4299,-1.4299,-1.4299,-1.4299,-1.4299,-1.4299,-1.4299,-1.4299,-1.4299,-1.4299,-1.4299,-1.4299,-1.4299,-1.4299,-1.4299,-1.4299,-1.4299,-1.4299,-1.4299,-1.4299,-1.4299,-1.4299,-1.4299,-1.4299,-1.4299,-1.4299,-1.4299,-1.4299,-0.2717,-0.2721,-0.2727,-0.2746,-0.2748,-0.2748,-0.2748,-0.2748,-0.2748,-0.2748,-0.2732,-0.2721,-0.2721,-0.2703,-0.2692,-0.2692,-0.2692,-0.2692,-0.2692,-0.2692,-0.2692,-0.2692,-0.2692,-0.2692,-0.2692,-0.2692,-0.2702,-0.2721,-0.2721,-0.2731,-0.2748,-0.2761,-0.2766,-0.2767,-0.2797,-0.2811,-0.2814,-0.2844,-0.2857,-0.2857,-0.287,-0.2874,-0.2874,-0.2874,-0.2874,-0.2874,-0.2874,-0.2874,-0.2874,-0.2874,-0.2874,-0.2874,-0.2874,-0.2874,-0.2874,-0.2874,-0.2874,-0.2874,-0.2874,-0.2874,-0.2874,-0.2874,-0.2156,-0.1436,-0.1077,-0.0539,0.0,0.0,0.0,0.0,0.0,0.0,-0.0359,-0.1794,0.0,-0.3411,-0.4841,-0.4485,-0.4662,-0.6627,-0.7517,-0.8765,-1.1083,-1.2154,-1.3046,-1.4122,-1.4299,-1.4299,-1.4299,-1.4299,-1.4299,-1.4299,-1.4299,-1.4299,-1.4299,-1.4299,-1.4299,-1.4299,-1.4299,-1.4299,-1.4299,-1.4299,-1.4299,-1.4299,-1.4299,-1.4299,-1.4299,-1.4299,-1.4299,-1.4299,-1.4299,-1.4299,-1.4299,-1.4299,-1.4299,-1.4299,-0.2748,-0.2752,-0.2759,-0.278,-0.2784,-0.2784,-0.2784,-0.2784,-0.2784,-0.2784,-0.2765,-0.2752,-0.2752,-0.2725,-0.2706,-0.2706,-0.2698,-0.2692,-0.2692,-0.2692,-0.2692,-0.2692,-0.2692,-0.2697,-0.2706,-0.2706,-0.2721,-0.2752,-0.2752,-0.2762,-0.2784,-0.2793,-0.2797,-0.2799,-0.2829,-0.2842,-0.2844,-0.2866,-0.2874,-0.2874,-0.2874,-0.2874,-0.2874,-0.2874,-0.2874,-0.2874,-0.2874,-0.2874,-0.2874,-0.2874,-0.2874,-0.2874,-0.2874,-0.2874,-0.2874,-0.2874,-0.2874,-0.2874,-0.2874,-0.2874,-0.2874,-0.2874,-0.2335,-0.1616,-0.0359,0.0,0.0,0.0,0.0,0.0,0.0,0.0,-0.0359,-0.1257,-0.2156,-0.2874,-0.2874,-0.2874,-0.3411,-0.4662,-0.5378,-0.6803,-0.9299,-1.0728,-1.1976,-1.3224,-1.3945,-1.4299,-1.4299,-1.4299,-1.4299,-1.4299,-1.4299,-1.4299,-1.4299,-1.4299,-1.4299,-1.4299,-1.4299,-1.4299,-1.4299,-1.4299,-1.4299,-1.4299,-1.4299,-1.4299,-1.4299,-1.4299,-1.4299,-1.4299,-1.4299,-1.4299,-1.4299,-1.4299,-1.4299,-1.4299,-0.2784,-0.2784,-0.2784,-0.2784,-0.2784,-0.2784,-0.2784,-0.2784,-0.2784,-0.2784,-0.2784,-0.2784,-0.2784,-0.2757,-0.2737,-0.2737,-0.271,-0.2692,-0.2692,-0.2692,-0.2692,-0.2692,-0.2692,-0.2706,-0.2737,-0.2737,-0.2754,-0.2784,-0.2784,-0.2784,-0.2785,-0.2815,-0.2829,-0.283,-0.286,-0.2874,-0.2874,-0.2874,-0.2874,-0.2874,-0.2874,-0.2874,-0.2874,-0.2874,-0.2874,-0.2874,-0.2874,-0.2874,-0.2874,-0.2874,-0.2874,-0.2874,-0.2874,-0.2874,-0.2874,-0.2874,-0.2874,-0.2874,-0.2874,-0.2874,-0.2874,-0.2874,-0.2874,-0.2335,-0.0359,0.0,0.0,0.0,0.0,0.0,0.0,0.0,-0.0359,-0.1257,-0.2156,-0.2874,-0.2874,-0.2874,-0.2874,-0.2874,-0.4483,-0.5733,-0.5733,-0.9121,-1.1438,-1.1438,-1.3224,-1.4299,-1.4299,-1.4299,-1.4299,-1.4299,-1.4299,-1.4299,-1.4299,-1.4299,-1.4299,-1.4299,-1.4299,-1.4299,-1.4299,-1.4299,-1.4299,-1.4299,-1.4299,-1.4299,-1.4299,-1.4299,-1.4299,-1.4299,-1.4299,-1.4299,-1.4299,-1.4299,-1.4299,-1.4299,-0.2811,-0.2815,-0.2822,-0.2844,-0.2846,-0.2846,-0.2846,-0.2846,-0.2846,-0.2846,-0.2829,-0.2815,-0.2815,-0.2788,-0.277,-0.277,-0.2761,-0.2757,-0.2757,-0.2736,-0.2733,-0.2755,-0.2736,-0.2728,-0.2737,-0.2759,-0.2785,-0.2815,-0.2815,-0.2826,-0.2846,-0.2856,-0.286,-0.286,-0.287,-0.2874,-0.2874,-0.2874,-0.2874,-0.2874,-0.2874,-0.2874,-0.2874,-0.2874,-0.2874,-0.2874,-0.2874,-0.2874,-0.2874,-0.2874,-0.2874,-0.2874,-0.2874,-0.2874,-0.2874,-0.2874,-0.2874,-0.2874,-0.2874,-0.2874,-0.2694,-0.1976,-0.2335,-0.2335,-0.0359,0.0,0.0,0.0,0.0,0.0,0.0,0.0,-0.018,-0.0359,-0.1795,-0.2874,-0.2874,-0.2874,-0.2874,-0.2874,-0.3411,-0.4305,-0.5554,-0.6803,-0.8052,-0.9299,-1.0011,-1.0905,-1.2154,-1.1083,-1.0372,-1.0372,-1.1616,-1.2331,-1.2331,-1.3584,-1.4299,-1.4299,-1.4299,-1.4299,-1.4299,-1.4299,-1.4299,-1.4299,-1.4299,-1.4299,-1.4299,-1.4299,-1.4299,-1.4299,-1.4299,-1.4299,-1.4299,-1.4299,-1.4299,-1.4299,-0.2842,-0.2846,-0.2852,-0.2871,-0.2874,-0.2874,-0.2874,-0.2874,-0.2874,-0.2874,-0.2857,-0.2846,-0.2846,-0.2819,-0.2801,-0.2801,-0.2791,-0.2784,-0.2784,-0.2766,-0.2763,-0.2782,-0.2777,-0.2774,-0.2774,-0.2792,-0.2816,-0.2846,-0.2846,-0.2856,-0.2874,-0.2874,-0.2874,-0.2874,-0.2874,-0.2874,-0.2874,-0.2874,-0.2874,-0.2874,-0.2874,-0.2874,-0.2874,-0.2874,-0.2874,-0.2874,-0.2874,-0.2874,-0.2874,-0.2874,-0.2874,-0.2874,-0.2874,-0.2874,-0.2874,-0.2874,-0.2874,-0.2874,-0.2874,-0.2874,-0.2694,-0.2156,-0.1795,-0.1436,-0.018,0.0,0.0,0.0,0.0,0.0,0.0,0.0,0.0,0.0,-0.1257,-0.2515,-0.2874,-0.2874,-0.2874,-0.2874,-0.2874,-0.3411,-0.4485,-0.5199,-0.6448,-0.8409,-0.8587,-0.9121,-1.0194,-0.9299,-0.8587,-0.8587,-0.9655,-1.0728,-1.1438,-1.2514,-1.3584,-1.4299,-1.4299,-1.3938,-1.3224,-1.3224,-1.2692,-1.1976,-1.1976,-1.2509,-1.3224,-1.3224,-1.3584,-1.4299,-1.4299,-1.4299,-1.4299,-1.4299,-1.4299,-1.4299,-0.2874,-0.2874,-0.2874,-0.2874,-0.2874,-0.2874,-0.2874,-0.2874,-0.2874,-0.2874,-0.2874,-0.2874,-0.2874,-0.2849,-0.2833,-0.2833,-0.2804,-0.2788,-0.2791,-0.2789,-0.2788,-0.2791,-0.2818,-0.2833,-0.2833,-0.2833,-0.2846,-0.2874,-0.2874,-0.2874,-0.2874,-0.2874,-0.2874,-0.2874,-0.2874,-0.2874,-0.2874,-0.2874,-0.2874,-0.2874,-0.2874,-0.2874,-0.2874,-0.2874,-0.2874,-0.2874,-0.2874,-0.2874,-0.2874,-0.2874,-0.2874,-0.2874,-0.2874,-0.2874,-0.2874,-0.2874,-0.2874,-0.2874,-0.2874,-0.2874,-0.2874,-0.2874,-0.1436,0.0,0.0,0.0,0.0,0.0,0.0,0.0,0.0,0.0,0.0,0.0,-0.0718,-0.1616,-0.2694,-0.2874,-0.2874,-0.2874,-0.2874,-0.2874,-0.2874,-0.4485,-0.627,-0.823,-0.823,-0.823,-0.8409,-0.823,-0.8052,-0.8052,-0.823,-0.9121,-1.0905,-1.1083,-1.2154,-1.4122,-1.4122,-1.3046,-1.1083,-1.1083,-1.0194,-0.8587,-0.8587,-0.9655,-1.1083,-1.1261,-1.2331,-1.3761,-1.4122,-1.4122,-1.4122,-1.4299,-1.4299,-1.4299,-0.2874,-0.2874,-0.2874,-0.2874,-0.2874,-0.2874,-0.2874,-0.2874,-0.2874,-0.2874,-0.2874,-0.2874,-0.2874,-0.2868,-0.2864,-0.2864,-0.2836,-0.2829,-0.2853,-0.2831,-0.2829,-0.2853,-0.286,-0.2864,-0.2864,-0.2864,-0.2867,-0.2874,-0.2874,-0.2874,-0.2874,-0.2874,-0.2874,-0.2874,-0.2874,-0.2874,-0.2874,-0.2874,-0.2874,-0.2874,-0.2874,-0.2874,-0.2874,-0.2874,-0.2874,-0.2874,-0.2874,-0.2874,-0.2874,-0.2874,-0.2874,-0.2874,-0.2874,-0.2874,-0.2874,-0.2874,-0.2874,-0.2694,-0.1975,-0.2335,-0.2874,-0.2874,-0.1436,0.0,0.0,0.0,0.0,0.0,0.0,0.0,0.0,0.0,0.0,0.0,-0.018,-0.0898,-0.2694,-0.2874,-0.2874,-0.2874,-0.2874,-0.2874,-0.2874,-0.3233,-0.4305,-0.627,-0.502,-0.4841,-0.627,-0.502,-0.4126,-0.4126,-0.5557,-0.6448,-0.6981,-0.8409,-1.0189,-1.1976,-1.1976,-1.1083,-0.9121,-0.9121,-0.8943,-0.8587,-0.8587,-0.8765,-0.9299,-1.0728,-1.0728,-1.0189,-1.3046,-1.3407,-1.2154,-1.3761,-1.4299,-1.4299,-0.2874,-0.2874,-0.2874,-0.2874,-0.2874,-0.2874,-0.2874,-0.2874,-0.2874,-0.2874,-0.2874,-0.2874,-0.2874,-0.2874,-0.2874,-0.2874,-0.2859,-0.2857,-0.2872,-0.2859,-0.2857,-0.2874,-0.2874,-0.2874,-0.2874,-0.2874,-0.2874,-0.2874,-0.2874,-0.2874,-0.2874,-0.2874,-0.2874,-0.2874,-0.2874,-0.2874,-0.2874,-0.2874,-0.2874,-0.2874,-0.2874,-0.2874,-0.2874,-0.2874,-0.2874,-0.2874,-0.2874,-0.2874,-0.2874,-0.2874,-0.2874,-0.2874,-0.2874,-0.2874,-0.2874,-0.2874,-0.2515,-0.2156,-0.2156,-0.2515,-0.2874,-0.2874,-0.1436,0.0,0.0,0.0,0.0,0.0,0.0,0.0,0.0,0.0,0.0,0.0,0.0,-0.0359,-0.1436,-0.2335,-0.2874,-0.2874,-0.2874,-0.2874,-0.2874,-0.2874,-0.3233,-0.4305,-0.3411,-0.3411,-0.4305,-0.3411,-0.2874,-0.2874,-0.3769,-0.4841,-0.5733,-0.6627,-0.7695,-0.8765,-0.9655,-0.9121,-0.716,-0.716,-0.6806,-0.5912,-0.5912,-0.6448,-0.7338,-0.823,-0.8587,-0.8943,-1.1799,-1.2331,-1.1621,-1.3584,-1.4299,-1.4299,-0.2874,-0.2874,-0.2874,-0.2874,-0.2874,-0.2874,-0.2874,-0.2874,-0.2874,-0.2874,-0.2874,-0.2874,-0.2874,-0.2874,-0.2874,-0.2874,-0.2874,-0.2874,-0.2874,-0.2874,-0.2874,-0.2874,-0.2874,-0.2874,-0.2874,-0.2874,-0.2874,-0.2874,-0.2874,-0.2874,-0.2874,-0.2874,-0.2874,-0.2874,-0.2874,-0.2874,-0.2874,-0.2874,-0.2874,-0.2874,-0.2874,-0.2874,-0.2874,-0.2874,-0.2874,-0.2874,-0.2874,-0.2874,-0.2874,-0.2874,-0.2874,-0.2874,-0.2874,-0.2874,-0.2874,-0.2874,-0.2335,-0.1795,-0.2335,-0.2335,-0.2335,-0.2335,-0.1257,0.0,0.0,0.0,0.0,0.0,0.0,0.0,0.0,0.0,0.0,0.0,0.0,-0.0,-0.018,-0.1616,-0.2694,-0.2874,-0.2874,-0.2874,-0.2874,-0.2874,-0.2874,-0.2874,-0.2874,-0.2874,-0.2874,-0.2874,-0.2874,-0.2874,-0.2874,-0.359,-0.5199,-0.5199,-0.5199,-0.5199,-0.6803,-0.6806,-0.5199,-0.5199,-0.4305,-0.2874,-0.2874,-0.3769,-0.5199,-0.5554,-0.6448,-0.7874,-1.0011,-1.0905,-1.1261,-1.3407,-1.4299,-1.4299,-0.2874,-0.2874,-0.2874,-0.2874,-0.2874,-0.2874,-0.2874,-0.2874,-0.2874,-0.2874,-0.2874,-0.2874,-0.2874,-0.2874,-0.2874,-0.2874,-0.2874,-0.2874,-0.2874,-0.2874,-0.2874,-0.2874,-0.2874,-0.2874,-0.2874,-0.2874,-0.2874,-0.2874,-0.2874,-0.2874,-0.2874,-0.2874,-0.2874,-0.2874,-0.2874,-0.2874,-0.2874,-0.2874,-0.2874,-0.2874,-0.2874,-0.2874,-0.2874,-0.2874,-0.2874,-0.2874,-0.2874,-0.2874,-0.2874,-0.2874,-0.2874,-0.2874,-0.2874,-0.2874,-0.2874,-0.2874,-0.2874,-0.2335,-0.0898,-0.0359,-0.0359,-0.0359,-0.018,0.0,0.0,0.0,0.0,0.0,0.0,0.0,0.0,0.0,0.0,0.0,0.0,-0.0359,-0.1077,-0.1436,-0.1975,-0.2874,-0.2874,-0.2874,-0.2874,-0.2874,-0.2874,-0.2874,-0.2874,-0.2874,-0.2874,-0.2874,-0.2874,-0.2874,-0.2874,-0.3053,-0.3233,-0.3233,-0.3233,-0.3233,-0.359,-0.359,-0.3233,-0.3233,-0.3053,-0.2874,-0.2874,-0.3053,-0.3411,-0.502,-0.4841,-0.3947,-0.7517,-0.8943,-0.9477,-1.3046,-1.4299,-1.4299,-0.2874,-0.2874,-0.2874,-0.2874,-0.2874,-0.2874,-0.2874,-0.2874,-0.2874,-0.2874,-0.2874,-0.2874,-0.2874,-0.2874,-0.2874,-0.2874,-0.2874,-0.2874,-0.2874,-0.2874,-0.2874,-0.2874,-0.2874,-0.2874,-0.2874,-0.2874,-0.2874,-0.2874,-0.2874,-0.2874,-0.2874,-0.2874,-0.2874,-0.2874,-0.2874,-0.2874,-0.2874,-0.2874,-0.2874,-0.2874,-0.2874,-0.2874,-0.2874,-0.2874,-0.2874,-0.2874,-0.2874,-0.2874,-0.2874,-0.2874,-0.2874,-0.2874,-0.2874,-0.2874,-0.2874,-0.2874,-0.2874,-0.2515,-0.0539,0.0,0.0,0.0,0.0,0.0,0.0,0.0,0.0,0.0,0.0,0.0,0.0,0.0,0.0,0.0,0.0,-0.0359,-0.1257,-0.1436,-0.1795,-0.2694,-0.2874,-0.2874,-0.2874,-0.2874,-0.2874,-0.2874,-0.2874,-0.2874,-0.2874,-0.2874,-0.2874,-0.2874,-0.2874,-0.2874,-0.2874,-0.2874,-0.2874,-0.2874,-0.2874,-0.2874,-0.2874,-0.2874,-0.2874,-0.2874,-0.2874,-0.2874,-0.3053,-0.3769,-0.359,-0.3233,-0.5912,-0.823,-1.055,-1.323,-1.4299,-1.4299]}]]